[[{"header":{"parameterUnit":"m.s-1","parameterCategory":1,"la1":30.6,"la2":29.2853,"lo1":-89.7004,"lo2":-87.6739,"dy":0.0162,"dx":0.0183,"nx":112,"ny":82,"refTime":"2024-07-30T06:00:00:Z","depth":0,"parameterNumber":2,"parameterNumberName":"U-component_of_WINDS"},"data":[0.0,0.0,0.0,0.0,0.0,0.0,0.0,0.0,0.0,0.0,0.0,0.0,0.0,0.0,0.0,0.0,0.0,0.0,0.0,0.0,0.0,0.0,0.0,0.0,0.0,0.0,0.0,0.0,0.0,0.0,0.0,0.0,0.0,0.0,0.0,0.0,0.0,0.0,0.0,0.0,0.0,0.0,0.0,0.0,0.0,0.0,0.0,0.0,0.0,0.0,0.0,0.0,0.0,0.0,0.0,0.0,0.0,0.0,0.0,0.0,0.0,0.0,0.0,0.0,0.0,0.0,0.0,0.0,0.0,0.0,0.0,0.0,0.0,0.0,0.0,0.0,0.0,0.0,0.0,0.0,0.0,0.0,0.0,0.0,0.0,0.0,0.0,0.0,0.0,0.0,-0.0,-0.0,-0.092,-0.2145,-0.3663,-0.4227,-0.409,-0.3111,0.0,0.0,0.0,0.0,0.0,0.0,0.0,0.0,0.0,0.0,0.0,0.0,0.0,0.0,0.0,0.0,0.0,0.0,0.0,0.0,0.0,0.0,0.0,0.0,0.0,0.0,0.0,0.0,0.0,0.0,0.0,0.0,0.0,0.0,0.0,0.0,0.0,0.0,0.0,0.0,0.0,0.0,0.0,0.0,0.0,0.0,0.0,0.0,0.0,0.0,0.0,0.0,0.0,0.0,0.0,0.0,0.0,0.0,0.0,0.0,0.0,0.0,0.0,0.0,0.0,0.0,0.0,0.0,0.0,0.0,0.0,0.0,0.0,0.0,0.0,0.0,0.0,0.0,0.0,0.0,0.0,0.0,0.0,0.0,0.0,0.0,0.0,0.0,0.0,0.0,0.0,0.0,0.0,0.0,0.0,0.0,0.0,0.0,0.0,0.0,0.0,0.0,0.0,0.0,-0.0,-0.0,-0.0159,-0.0389,-0.0668,-0.3023,-0.3351,-0.0709,0.0,0.0,0.0,0.0,0.0,0.0,0.0,0.0,0.0,0.0,0.0,0.0,0.0,0.0,0.0,0.0,0.0,0.0,0.0,0.0,0.0,0.0,0.0,0.0,0.0,0.0,0.0,0.0,0.0,0.0,0.0,0.0,0.0,0.0,0.0,0.0,0.0,0.0,0.0,0.0,0.0,0.0,0.0,0.0,0.0,0.0,0.0,0.0,0.0,0.0,0.0,0.0,0.0,0.0,0.0,0.0,0.0,0.0,0.0,0.0,0.0,0.0,0.0,0.0,0.0,0.0,0.0,0.0,0.0,0.0,0.0,0.0,0.0,0.0,0.0,0.0,0.0,0.0,0.0,0.0,0.0,0.0,0.0,0.0,0.0,0.0,0.0,0.0,0.0,0.0,0.0,0.0,0.0,0.0,0.0,0.0,0.0,0.0,0.0,0.0,0.0,0.0,0.0,-0.0,-0.0,-0.0,-0.0,-0.0,-0.0,-0.1266,-0.1185,0.0835,0.117,0.0,0.0,0.0,0.0,0.0,0.0,0.0,0.0,0.0,0.0,0.0,0.0,0.0,0.0,0.0,0.0,0.0,0.0,0.0,0.0,0.0,0.0,0.0,0.0,0.0,0.0,0.0,0.0,0.0,0.0,0.0,0.0,0.0,0.0,0.0,0.0,0.0,0.0,0.0,0.0,0.0,0.0,0.0,0.0,0.0,0.0,0.0,0.0,0.0,0.0,0.0,0.0,0.0,0.0,0.0,0.0,0.0,0.0,0.0,0.0,0.0,0.0,0.0,0.0,0.0,0.0,0.0,0.0,0.0,0.0,0.0,0.0,0.0,0.0,0.0,0.0,0.0,0.0,0.0,0.0,0.0,0.0,0.0,0.0,0.0,0.0,0.0,0.0,0.0,0.0,0.0,0.0,0.0,0.0,0.0,0.0,0.0,0.0,0.0,0.0,0.0,0.0,-0.0,-0.0,-0.0,-0.0,-0.0,-0.0,-0.0,0.051,0.1712,0.1363,0.0,0.0,0.0,0.0,0.0,0.0,0.0,0.0,0.0,0.0,0.0,0.0,0.0,0.0,0.0,0.0,0.0,0.0,0.0,0.0,0.0,0.0,0.0,0.0,0.0,0.0,0.0,0.0,0.0,0.0,0.0,0.0,0.0,0.0,0.0,0.0,0.0,0.0,0.0,0.0,0.0,0.0,0.0,0.0,0.0,0.0,0.0,0.0,0.0,0.0,0.0,0.0,0.0,0.0,0.0,0.0,0.0,0.0,0.0,0.0,0.0,0.0,0.0,0.0,0.0,0.0,0.0,0.0,0.0,0.0,0.0,0.0,0.0,0.0,0.0,0.0,0.0,0.0,0.0,0.0,0.0,0.0,0.0,0.0,0.0,0.0,0.0,0.0,0.0,0.0,0.0,0.0,0.0,0.0,0.0,0.0,0.0,0.0,0.0,0.0,0.0,0.0,-0.0,-0.0,-0.0,-0.0,-0.0,-0.0,-0.0,0.0524,0.1705,0.1756,0.0,0.0,0.0,0.0,0.0,0.0,0.0,0.0,0.0,0.0,0.0,0.0,0.0,0.0,0.0,0.0,0.0,0.0,0.0,0.0,0.0,0.0,0.0,0.0,0.0,0.0,0.0,0.0,0.0,0.0,0.0,0.0,0.0,0.0,0.0,0.0,0.0,0.0,0.0,0.0,0.0,0.0,0.0,0.0,0.0,0.0,0.0,0.0,0.0,0.0,0.0,0.0,0.0,0.0,0.0,0.0,0.0,0.0,0.0,0.0,0.0,0.0,0.0,0.0,0.0,0.0,0.0,0.0,0.0,0.0,0.0,0.0,0.0,0.0,0.0,0.0,0.0,0.0,0.0,0.0,0.0,0.0,0.0,0.0,0.0,0.0,0.0,0.0,0.0,0.0,0.0,0.0,0.0,0.0,0.0,0.0,0.0,0.0,0.0,0.0,0.0,0.0,0.0937,-0.0,-0.0,-0.0,-0.0,-0.0,-0.0,0.0362,0.1175,0.0,0.0,0.0,0.0,0.0,0.0,0.0,0.0,0.0,0.0,0.0,0.0,0.0,0.0,0.0,0.0,0.0,0.0,0.0,0.0,0.0,0.0,0.0,0.0,0.0,0.0,0.0,0.0,0.0,0.0,0.0,0.0,0.0,0.0,0.0,0.0,0.0,0.0,0.0,0.0,0.0,0.0,0.0,0.0,0.0,0.0,0.0,0.0,0.0,0.0,0.0,0.0,0.0,0.0,0.0,0.0,0.0,0.0,0.0,0.0,0.0,0.0,0.0,0.0,0.0,0.0,0.0,0.0,0.0,0.0,0.0,0.0,0.0,0.0,0.0,0.0,0.0,0.0,0.0,0.0,0.0,0.0,0.0,0.0,0.0,0.0,0.0,0.0,0.0,0.0,0.0,0.0,0.0,0.0,0.0,0.0,0.0,0.0,0.0,0.0,0.0,0.0,0.3323,0.2101,0.0855,0.01,-0.0,-0.0,-0.0,-0.0,0.0178,0.0588,0.0,0.0,0.0,0.0,0.0,0.0,0.0,0.0,0.0,0.0,0.0,0.0,0.0,0.0,0.0,0.0,0.0,0.0,0.0,0.0,0.0,0.0,0.0,0.0,0.0,0.0,0.0,0.0,0.0,0.0,0.0,0.0,0.0,0.0,0.0,0.0,0.0,0.0,0.0,0.0,0.0,0.0,0.0,0.0,0.0,0.0,0.0,0.0,0.0,0.0,0.0,0.0,0.0,0.0,0.0,0.0,0.0,0.0,0.0,0.0,0.0,0.0,0.0,0.0,0.0,0.0,0.0,0.0,0.0,0.0,0.0,0.0,0.0,0.0,0.0,0.0,0.0,0.0,0.0,0.0,0.0,0.0,0.0,0.0,0.0,0.0,0.0,0.0,0.0,0.0,0.0,0.0,0.0,0.0,0.0,0.0,0.0,0.0,0.0,0.0,0.0,0.0,0.2974,0.336,0.2675,0.0252,-0.0,-0.0,-0.0,-0.0,-0.0,0.0,0.0,0.0,0.0,0.0,0.0,0.0,0.0,0.0,0.0,0.0,0.0,0.0,0.0,0.0,0.0,0.0,0.0,0.0,0.0,0.0,0.0,0.0,0.0,0.0,0.0,0.0,0.0,0.0,0.0,0.0,0.0,0.0,0.0,0.0,0.0,0.0,0.0,0.0,0.0,0.0,0.0,0.0,0.0,0.0,0.0,0.0,0.0,0.0,0.0,0.0,0.0,0.0,0.0,0.0,0.0,0.0,0.0,0.0,0.0,0.0,0.0,0.0,0.0,0.0,0.0,0.0,0.0,0.0,0.0,0.0,0.0,0.0,0.0,0.0,0.0,0.0,0.0,0.0,0.0,0.0,0.0,0.0,0.0,0.0,0.0,0.0,0.0,0.0,0.0,0.0,0.0,0.0,0.0,0.0,0.0,0.0,0.0,0.0,0.0,0.0,0.0,0.0,0.2905,0.3334,0.3016,0.1461,0.0491,-0.0,-0.0,-0.0,-0.0,-0.0,0.0,0.0,0.0,0.0,0.0,0.0,0.0,0.0,0.0,0.0,0.0,0.0,0.0,0.0,0.0,0.0,0.0,0.0,0.0,0.0,0.0,0.0,0.0,0.0,0.0,0.0,0.0,0.0,0.0,0.0,0.0,0.0,0.0,0.0,0.0,0.0,0.0,0.0,0.0,0.0,0.0,0.0,0.0,0.0,0.0,0.0,0.0,0.0,0.0,0.0,0.0,0.0,0.0,0.0,0.0,0.0,0.0,0.0,0.0,0.0,0.0,0.0,0.0,0.0,0.0,0.0,0.0,0.0,0.0,0.0,0.0,0.0,0.0,0.0,0.0,0.0,0.0,0.0,0.0,0.0,0.0,0.0,0.0,0.0,0.0,0.0,0.0,0.0,0.0,0.0,0.0,0.0,0.0,0.0,0.0,0.0,0.0,0.0,0.0,0.0,0.0,0.0,0.2675,0.3226,0.3343,0.2603,0.0988,-0.0,-0.0,-0.0,-0.0,-0.0,0.0,0.0,0.0,0.0,0.0,0.0,0.0,0.0,0.0,0.0,0.0,0.0,0.0,0.0,0.0,0.0,0.0,0.0,0.0,0.0,0.0,0.0,0.0,0.0,0.0,0.0,0.0,0.0,0.0,0.0,0.0,0.0,0.0,0.0,0.0,0.0,0.0,0.0,0.0,0.0,0.0,0.0,0.0,0.0,0.0,0.0,0.0,0.0,0.0,0.0,0.0,0.0,0.0,0.0,0.0,0.0,0.0,0.0,0.0,0.0,0.0,0.0,0.0,0.0,0.0,0.0,0.0,0.0,0.0,0.0,0.0,0.0,0.0,0.0,0.0,0.0,0.0,0.0,0.0,0.0,0.0,0.0,0.0,0.0,0.0,0.0,0.0,0.0,0.0,0.0,0.0,0.0,0.0,0.0,0.0,0.0,0.0,0.0,0.0,0.0,0.0,0.0,0.2405,0.2921,0.3351,0.3649,0.1487,-0.0,-0.0,-0.0,-0.0,-0.0,0.0,0.0,0.0,0.0,0.0,0.0,0.0,0.0,0.0,0.0,0.0,0.0,0.0,0.0,0.0,0.0,0.0,0.0,0.0,0.0,0.0,0.0,0.0,0.0,0.0,0.0,0.0,0.0,0.0,0.0,0.0,0.0,0.0,0.0,0.0,0.0,0.0,0.0,0.0,0.0,0.0,0.0,0.0,0.0,0.0,0.0,0.0,0.0,0.0,0.0,0.0,0.0,0.0,0.0,0.0,0.0,0.0,0.0,0.0,0.0,0.1035,-0.0,0.0,0.0,0.0,0.0,0.0,0.0,0.0,0.0,0.0,0.0,0.0,0.0,0.0,0.0,0.0,0.0,0.0,0.0,0.0,0.0,0.0,0.0,0.0,0.0,0.0,0.0,0.0,0.0,0.0,0.0,0.0,0.0,0.0,0.0,0.0,0.0,0.0,0.0,0.0,0.0,0.2557,0.1549,0.1659,0.4045,0.1732,-0.0,-0.0,-0.0,-0.0,-0.0,-0.0,0.0,0.0,0.0,0.0,0.0,0.0,0.0,0.0,0.0,0.0,0.0,0.0,0.0,0.0,0.0,0.0,0.0,0.0,0.0,0.0,0.0,0.0,0.0,0.0,0.0,0.0,0.0,0.0,0.0,0.0,0.0,0.0,0.0,0.0,0.0,0.0,0.0,0.0,0.0,0.0,0.0,0.0,0.0,0.0,0.0,0.0,0.0,0.0,0.0,0.0,0.0,0.0,0.0,0.0,0.0,0.0,0.0,0.0,0.0,0.1302,-0.0,0.0,0.0,0.0,0.0,0.0,0.0,0.0,0.0,0.0,0.0,0.0,0.0,0.0,0.0,0.0,0.0,0.0,0.0,0.0,0.0,0.0,0.0,0.0,0.0,0.0,0.0,0.0,0.0,0.0,0.0,0.0,0.0,0.0,0.0,0.0,0.0,0.0,0.0,0.0,0.0,0.1839,0.0754,0.0582,0.2176,0.0953,-0.0,-0.0,-0.0,-0.0,-0.0,-0.0,0.0,0.0,0.0,0.0,0.0,0.0,0.0,0.0,0.0,0.0,0.0,0.0,0.0,0.0,0.0,0.0,0.0,0.0,0.0,0.0,0.0,0.0,0.0,0.0,0.0,0.0,0.0,0.0,0.0,0.0,0.0,0.0,0.0,0.0,0.0,0.0,0.0,0.0,0.0,0.0,0.0,0.0,0.0,0.0,0.0,0.0,0.0,0.0,0.0,0.0,0.0,0.0,0.0,-0.0,-0.0,-0.0,-0.0,0.1338,0.3618,0.1632,0.051,-0.0,-0.0,0.0,0.0,0.0,0.0,0.0,0.0,0.0,0.0,0.0,0.0,0.0,0.0,0.0,0.0,0.0,0.0,0.0,0.0,0.0,0.0,0.0,0.0,0.1338,0.0862,0.0735,0.1121,0.2556,0.0,0.0,0.0,0.0,0.0,0.0,0.0,0.0,0.0,0.0,0.0,0.1134,0.0439,-0.0,-0.0,-0.0,-0.0,-0.0,-0.0,-0.0,-0.0,-0.0,-0.0,0.0,0.0,0.0,0.0,0.0,0.0,0.0,0.0,0.0,0.0,0.0,0.0,0.0,0.0,0.0,0.0,0.0,0.0,0.0,0.0,0.0,0.0,0.0,0.0,0.0,0.0,0.0,0.0,0.0,0.0,0.0,0.0,-0.0166,-0.0035,0.0,0.0,0.0,0.0,0.0,0.0,0.0,0.0,0.0,0.0,0.0,0.0,0.0,0.3717,0.0062,-0.0,-0.0,-0.0,-0.0,-0.0,-0.0,-0.0,0.023,0.069,0.2956,0.0,-0.0,-0.0,0.0,0.0,0.0,0.0,0.0,0.0,0.0,0.0,0.0,0.0,0.0,0.0,0.0,0.0,0.0,0.0,0.0,0.0,0.0,0.0,0.0,0.0,0.0238,0.0119,0.0119,0.0537,0.2,0.3084,0.3663,0.3313,0.3039,0.2835,0.0,0.0,0.0,0.0,0.0,0.0,0.1679,0.0694,-0.0,-0.0,-0.0,-0.0,-0.0,-0.0,-0.0,-0.0,-0.0,-0.0,-0.0,0.0143,0.0,0.0,0.0,0.0,0.0,0.0,0.0,0.0,0.0,0.0,0.0,0.0,0.0,0.0,0.0,0.0,0.0,0.0,0.0,0.0,0.0,0.0,0.0,0.0,0.0,0.0,0.0,0.0,0.0,-0.0,-0.0,-0.0,0.1488,0.2514,0.0,0.0,0.0,0.0,0.0,0.0,0.0,0.0,0.0,-0.0,0.179,0.3188,0.3977,0.3997,0.3333,0.2012,0.2003,0.1303,-0.0,-0.0,-0.0,0.0082,0.139,0.1182,-0.0,-0.0,-0.0,0.0122,0.0,0.0,0.0,0.0,0.2563,0.264,0.2953,0.3732,0.4329,0.3312,0.0,0.0,0.0,0.0,0.0,0.0,0.0,0.0646,0.011,-0.0,-0.0,-0.0,-0.0,0.0185,0.08,0.2685,0.4192,0.4028,0.3864,0.3644,0.309,0.2766,0.0,0.0,0.0,0.193,0.2249,0.0936,-0.0,-0.0,-0.0,-0.0,-0.0,-0.0,-0.0,-0.0,-0.0,-0.0,-0.0,-0.0,-0.0,0.0,0.0,0.0,0.0,0.0,0.0,0.0,0.0,0.0,0.0,0.0,0.0,0.0,0.0,0.0,0.0,0.0,0.0,0.0,0.0,0.0,0.0,0.0,0.0,0.0,0.0,0.0,0.0,-0.0,-0.0,-0.0,0.2775,0.4707,0.0,0.0,0.0,0.0,0.0,0.0,0.3264,0.2185,0.1609,0.1844,0.1796,0.317,0.6187,0.681,0.6274,0.4663,0.4626,0.3644,0.1735,0.052,-0.0,-0.0,-0.0,-0.0,-0.0,-0.0,-0.0,-0.0,-0.0,0.1189,0.2912,0.2594,0.2006,0.1338,0.1541,0.3145,0.4824,0.3723,0.3402,0.3206,0.2269,0.0,0.0,0.0,0.0,-0.0,-0.0,-0.0,-0.0,-0.0,-0.0,-0.0,-0.0,0.1756,0.3488,0.384,0.3915,0.3687,0.2976,0.2899,0.0,0.1727,0.1428,0.1488,0.1941,0.081,-0.0,-0.0,-0.0,-0.0,-0.0,-0.0,-0.0,-0.0,-0.0,-0.0,-0.0,-0.0,-0.0,-0.0,0.0,0.0,0.0,0.0,0.0,0.0,0.0,0.0,0.0,0.0,0.0,0.0,0.0,0.0,0.0,0.0,0.0,0.0,0.0,0.0,0.0,0.0,0.0,0.0,0.0,0.0,0.0,0.0,0.0,-0.0,0.3159,0.0,0.0,0.0,0.0,0.5147,0.515,0.3675,0.043,0.3554,0.587,0.6725,0.6558,0.5635,0.3752,0.6022,0.7241,0.7436,0.7369,0.7136,0.6576,0.2082,-0.0,-0.0,-0.0,-0.0,-0.0,-0.0,-0.0,-0.0,-0.0,0.0074,0.0508,0.3352,0.2516,0.0073,0.0075,0.2412,0.5393,0.5275,0.3008,0.0202,0.0138,0.0067,0.0,0.0,-0.0,-0.0,-0.0,-0.0,-0.0,-0.0,-0.0,-0.0,-0.0,0.0131,0.0637,0.2029,0.2317,0.2296,0.2266,0.0,0.3554,0.3483,0.1549,0.0106,0.0106,0.0055,-0.0,-0.0,-0.0,-0.0,-0.0,-0.0,-0.0,-0.0,-0.0,-0.0,-0.0,-0.0,-0.0,-0.0,0.1695,0.0,0.0,0.0,0.0,0.0,0.0,0.0,0.0,0.0,0.0,0.0,0.0,0.0,0.0,0.0,0.0,0.0,0.0,0.0,0.0,0.0,0.0,0.0,0.0,0.0,0.0,0.0,0.0,0.3737,0.3961,0.0,0.5672,0.5625,0.5572,0.5776,0.5817,0.4863,0.2707,0.389,0.5496,0.7376,0.7375,0.6982,0.6286,0.7034,0.7554,0.7646,0.7567,0.7537,0.7276,0.3898,0.1426,-0.0,-0.0,-0.0,-0.0,-0.0,-0.0,-0.0,-0.0,-0.0,0.016,0.1214,0.0888,-0.0,-0.0,0.0883,0.1896,0.1928,0.1047,-0.0,-0.0,-0.0,-0.0,-0.0,-0.0,-0.0,-0.0,-0.0,-0.0,-0.0,-0.0,-0.0,-0.0,-0.0,0.0135,0.0656,0.0753,0.078,0.0755,0.105,0.1269,0.1309,0.0557,-0.0,-0.0,-0.0,-0.0,-0.0,-0.0,-0.0,-0.0,-0.0,-0.0,-0.0,-0.0,-0.0,-0.0,-0.0,-0.0,-0.0,0.103,0.1702,0.0,0.0,0.0,0.0,0.0,0.0,0.0,0.0,0.0,0.0,0.0,0.0,0.0,0.0,0.0,0.0,0.0,0.0,0.0,0.0,0.0,0.0,0.0,0.0,0.0,0.0,0.2833,0.404,0.4214,0.479,0.614,0.6064,0.5993,0.6247,0.6298,0.6013,0.5109,0.5198,0.5979,0.7581,0.7584,0.7628,0.7708,0.7756,0.7678,0.7672,0.7733,0.7773,0.7701,0.593,0.3203,-0.0,-0.0,-0.0,-0.0,-0.0,0.1031,0.2511,0.0702,-0.0,-0.0,-0.0,-0.0,-0.0,-0.0,-0.0,-0.0,-0.0,-0.0,-0.0,-0.0,-0.0,-0.0,-0.0,-0.0,-0.0,-0.0,-0.0,-0.0,-0.0,-0.0,-0.0,-0.0,-0.0,-0.0,-0.0,-0.0,-0.0,-0.0,-0.0,-0.0,-0.0,-0.0,-0.0,-0.0,-0.0,-0.0,-0.0,-0.0,-0.0,-0.0,-0.0,-0.0,-0.0,-0.0,-0.0,-0.0,-0.0,-0.0,-0.0,0.0982,0.1754,0.2226,0.0,0.0,0.0,0.0,0.0,0.0,0.0,0.0,0.0,0.0,0.0,0.0,0.0,0.0,0.0,0.0,0.0,0.0,0.0,0.0,0.0,0.0,0.0,-0.0,0.3966,0.5222,0.0774,0.3911,0.6563,0.6677,0.6588,0.6559,0.6715,0.6927,0.7072,0.7129,0.7453,0.7722,0.7725,0.7621,0.7614,0.7614,0.775,0.7818,0.7821,0.7892,0.7979,0.7885,0.7908,0.5056,0.0202,0.0101,-0.0,0.0098,0.0197,0.3307,0.739,0.2054,-0.0,-0.0,-0.0,-0.0,-0.0,-0.0,-0.0,-0.0,-0.0,-0.0,-0.0,-0.0,-0.0,-0.0,-0.0,-0.0,-0.0,-0.0,-0.0,-0.0,-0.0,-0.0,-0.0,-0.0,-0.0,-0.0,-0.0,-0.0,-0.0,-0.0,-0.0,-0.0,-0.0,-0.0,0.0,-0.0,-0.0,-0.0,-0.0,-0.0,-0.0,-0.0,-0.0,-0.0,-0.0,-0.0,-0.0,-0.0,-0.0,-0.0,-0.0,0.1736,0.2185,0.1283,0.0,0.0,0.0,0.0,0.0,0.0,0.0,0.0,0.0,0.0,0.0,0.0,0.0,0.0,0.0,0.0,0.0,0.0,0.0,0.0,0.0,-0.0,-0.0,-0.0,0.1121,0.2762,0.4929,0.4688,0.5079,0.6858,0.6926,0.7068,0.7333,0.7434,0.7546,0.7594,0.7736,0.7811,0.7919,0.7919,0.7919,0.7919,0.7957,0.7977,0.7977,0.8024,0.6939,0.5129,0.5133,0.5347,0.5567,0.1716,0.1105,0.3093,0.5012,0.5497,0.4745,0.134,-0.0,-0.0,-0.0,-0.0,-0.0,-0.0,-0.0,-0.0,-0.0,-0.0,-0.0,-0.0,-0.0,-0.0,-0.0,-0.0,-0.0,-0.0,-0.0,-0.0,-0.0,-0.0,-0.0,-0.0,-0.0,-0.0,-0.0,-0.0,-0.0,-0.0,-0.0,-0.0,-0.0,-0.0,-0.0,-0.0,-0.0,-0.0,-0.0,-0.0,-0.0,-0.0,-0.0,-0.0,-0.0,-0.0,-0.0,-0.0,-0.0,-0.0,-0.0,0.0485,0.0939,0.0,0.0,0.0,0.0,0.0,0.0,0.0,0.0,0.0,0.0,0.0,0.0,0.0,0.0,0.0,0.0,0.0,0.0,0.0,0.0,0.0,0.0,-0.0,-0.0,-0.0,-0.0,0.1765,0.6546,0.5422,0.5027,0.7068,0.7309,0.7431,0.7672,0.7689,0.7753,0.7899,0.7906,0.7946,0.8035,0.8038,0.8038,0.8038,0.8048,0.7952,0.7952,0.7969,0.7163,0.5646,0.5646,0.657,0.7818,0.4746,0.3623,0.4218,0.6871,0.7071,0.5515,0.0,0.0,0.0,0.0,-0.0,-0.0,-0.0,-0.0,-0.0,-0.0,-0.0,-0.0,-0.0,-0.0,-0.0,-0.0,-0.0,-0.0,-0.0,-0.0,-0.0,-0.0,-0.0,-0.0,-0.0,-0.0,-0.0,-0.0,-0.0,0.0,-0.0,-0.0,-0.0,-0.0,-0.0,-0.0,-0.0,-0.0,-0.0,-0.0,-0.0,-0.0,-0.0,-0.0,0.0,0.0,0.0,-0.0,-0.0,-0.0,0.0,0.0,0.0,0.0,0.0,0.0619,0.0,0.0,0.2454,0.2772,0.0,0.0,0.0,0.0,0.0,0.0,0.0,0.0,0.0,0.0,0.0,0.0,0.0,0.0,0.0,0.0,0.0226,-0.0,-0.0,0.0515,0.2478,0.6676,0.6166,0.5926,0.7359,0.7556,0.7682,0.7828,0.7838,0.7896,0.8031,0.8041,0.0,0.0,0.0,0.8045,0.8045,0.7965,0.7872,0.7666,0.7695,0.7711,0.7711,0.7711,0.7811,0.8019,0.7999,0.6653,0.462,0.7059,0.7982,0.7965,0.7658,0.442,-0.0,-0.0,-0.0,-0.0,-0.0,0.0,0.0,-0.0,-0.0,-0.0,-0.0,-0.0,-0.0,-0.0,-0.0,-0.0,-0.0,-0.0,-0.0,-0.0,-0.0,-0.0,-0.0,-0.0,-0.0,-0.0,-0.0,-0.0,-0.0,-0.0,-0.0,-0.0,-0.0,-0.0,-0.0,-0.0,-0.0,-0.0,-0.0,0.0,-0.0,-0.0,-0.0,-0.0,-0.0,-0.0,-0.0,-0.0,-0.0,-0.0,-0.0,-0.0,-0.0,-0.0,0.0757,0.222,0.3063,0.3501,0.0,0.0,0.0,0.0,0.0,0.0,0.0,0.0,0.0,0.0,0.0,0.0,0.0,0.0,0.0,0.3297,0.155,-0.0,-0.0,0.3704,0.6778,0.7741,0.7492,0.7335,0.7849,0.777,0.7831,0.7984,0.7994,0.8007,0.8038,0.7955,0.7965,0.7965,0.7975,0.7979,0.7979,0.7985,0.7263,0.5927,0.5932,0.0,0.5934,0.5934,0.6651,0.7982,0.7989,0.7666,0.7235,0.7762,0.7979,0.7779,0.5615,0.2776,-0.0,-0.0,-0.0,-0.0,-0.0,-0.0,-0.0,-0.0,-0.0,-0.0,-0.0,-0.0,0.0,-0.0,-0.0,-0.0,-0.0,-0.0,-0.0,-0.0,-0.0,-0.0,-0.0,-0.0,-0.0,-0.0,-0.0,-0.0,-0.0,-0.0,-0.0,-0.0,-0.0,-0.0,-0.0,-0.0,-0.0,-0.0,-0.0,-0.0,-0.0,-0.0,-0.0,-0.0,-0.0,-0.0,-0.0,-0.0,-0.0,-0.0,-0.0,-0.0,-0.0,-0.0,0.0769,0.226,0.3609,0.4168,0.0,0.0,0.0,0.0,0.0,0.0,0.0,0.0,0.0,0.0,0.0,0.105,0.0139,0.0,0.0472,0.2002,0.096,-0.0,-0.0,0.4624,0.8044,0.7969,0.7875,0.7876,0.7758,0.7818,0.7885,0.7959,0.7965,0.7965,0.7965,0.7975,0.7366,0.6037,0.6039,0.6042,0.6042,0.7372,0.7575,0.6748,0.6748,0.6748,0.6748,0.6745,0.7153,0.7972,0.7965,0.7955,0.8041,0.7962,0.7985,0.7902,0.6567,0.3509,-0.0,-0.0,-0.0,-0.0,-0.0,-0.0,-0.0,-0.0,-0.0,-0.0,-0.0,-0.0,-0.0,-0.0,-0.0,-0.0,-0.0,-0.0,-0.0,-0.0,-0.0,-0.0,-0.0,-0.0,-0.0,-0.0,-0.0,-0.0,-0.0,-0.0,-0.0,-0.0,-0.0,-0.0,-0.0,-0.0,-0.0,-0.0,-0.0,-0.0,-0.0,-0.0,-0.0,-0.0,-0.0,-0.0,-0.0,-0.0,-0.0,-0.0,-0.0,-0.0,-0.0,-0.0,0.0376,0.1143,0.3444,0.4435,0.0,0.0,0.0,0.0,0.0,0.0,0.0,0.0,0.0574,0.2502,0.1371,-0.0,-0.0,-0.0,-0.0,-0.0,-0.0,-0.0,-0.0,0.3692,0.6869,0.789,0.7563,0.7116,0.6917,0.7108,0.7269,0.7269,0.7269,0.7269,0.7269,0.7685,0.6968,0.4828,0.3718,0.3718,0.4728,0.6968,0.7995,0.7985,0.7985,0.7985,0.7979,0.7972,0.7965,0.7965,0.8048,0.8041,0.7949,0.7453,0.7481,0.8026,0.8029,0.4754,-0.0,-0.0,-0.0,-0.0,-0.0,-0.0,-0.0,-0.0,-0.0,-0.0,-0.0,-0.0,-0.0,-0.0,-0.0,-0.0,-0.0,-0.0,-0.0,-0.0,-0.0,-0.0,-0.0,-0.0,-0.0,-0.0,-0.0,-0.0,-0.0,-0.0,-0.0,-0.0,-0.0,-0.0,-0.0,-0.0,-0.0,-0.0,-0.0,-0.0,-0.0,-0.0,-0.0,-0.0,-0.0,-0.0,-0.0,-0.0,-0.0,-0.0,-0.0,-0.0,-0.0,-0.0,-0.0,0.0056,0.2465,0.3931,-0.0,-0.0,-0.0,-0.0,0.0178,0.0247,0.0,0.0,0.0075,0.0325,0.0168,-0.0,-0.0,-0.0,-0.0,-0.0,-0.0,-0.0,-0.0,0.0489,0.266,0.7475,0.5934,0.4407,0.4407,0.4414,0.442,0.442,0.442,0.442,0.442,0.6673,0.7815,0.7607,0.2927,0.2725,0.7503,0.7815,0.8006,0.7975,0.7975,0.7965,0.8045,0.8045,0.8041,0.8041,0.8041,0.7952,0.7766,0.5427,0.5849,0.8026,0.8046,0.4762,-0.0,-0.0,-0.0,-0.0,-0.0,-0.0,-0.0,-0.0,-0.0,-0.0,-0.0,-0.0,-0.0,-0.0,-0.0,-0.0,-0.0,-0.0,-0.0,-0.0,-0.0,-0.0,-0.0,-0.0,-0.0,-0.0,-0.0,-0.0,-0.0,-0.0,-0.0,-0.0,-0.0,-0.0,-0.0,-0.0,-0.0,-0.0,-0.0,-0.0,-0.0,-0.0,-0.0,-0.0,-0.0,-0.0,-0.0,-0.0,-0.0,-0.0,-0.0,-0.0,-0.0,-0.0,-0.0,-0.0,0.0335,0.1953,-0.0,-0.0,0.0,0.0,-0.0,-0.0,-0.0,-0.0,-0.0,-0.0,-0.0,-0.0,-0.0,-0.0,-0.0,0.0,-0.0,-0.0,-0.0,-0.0,0.0787,0.3081,0.5077,0.5092,0.2011,0.1711,0.1711,0.1711,0.1711,0.1711,0.1711,0.2724,0.3334,0.3334,0.1212,0.2524,0.7922,0.8012,0.7995,0.7972,0.7959,0.8048,0.8038,0.8038,0.8038,0.8038,0.7952,0.7969,0.7882,0.6768,0.5151,0.3334,0.3338,0.2022,-0.0,-0.0,-0.0,-0.0,-0.0,-0.0,-0.0,-0.0,-0.0,-0.0,-0.0,-0.0,-0.0,-0.0,-0.0,-0.0,-0.0,-0.0,-0.0,-0.0,-0.0,-0.0,-0.0,-0.0,-0.0,-0.0,-0.0,-0.0,-0.0,-0.0,-0.0,-0.0,-0.0,-0.0,-0.0,-0.0,-0.0,-0.0,-0.0,-0.0,-0.0,-0.0,-0.0,-0.0,-0.0,-0.0,-0.0,-0.0,-0.0,-0.0,-0.0,-0.0,-0.0,-0.0,-0.0,-0.0,-0.0,0.0671,-0.0,0.0,0.0,-0.0,-0.0,-0.0,-0.0,-0.0,-0.0,-0.0,-0.0,-0.0,-0.0,-0.0,-0.0,-0.0,-0.0,-0.0,-0.0,-0.0,-0.0,-0.0,0.3454,0.4267,0.0403,-0.0,-0.0,-0.0,-0.0,-0.0,-0.0,0.1414,0.1515,-0.0,-0.0,0.2218,0.6882,0.7588,0.7982,0.7962,0.8048,0.8038,0.8038,0.8038,0.8041,0.8048,0.7965,0.7982,0.8002,0.8019,0.4853,-0.0,-0.0,-0.0,-0.0,-0.0,-0.0,-0.0,-0.0,-0.0,-0.0,-0.0,-0.0,-0.0,-0.0,-0.0,-0.0,-0.0,-0.0,-0.0,-0.0,-0.0,-0.0,-0.0,-0.0,-0.0,-0.0,-0.0,-0.0,-0.0,-0.0,-0.0,-0.0,-0.0,-0.0,-0.0,-0.0,-0.0,-0.0,-0.0,-0.0,-0.0,-0.0,-0.0,-0.0,-0.0,-0.0,-0.0,-0.0,-0.0,-0.0,-0.0,-0.0,-0.0,-0.0,-0.0,-0.0,-0.0,-0.0,-0.0,-0.0,-0.0,0.0,0.0,-0.0,-0.0,-0.0,-0.0,-0.0,-0.0,-0.0,-0.0,-0.0,-0.0,-0.0,-0.0,-0.0,-0.0,-0.0,-0.0,-0.0,-0.0,-0.0,-0.0,0.0099,0.0198,-0.0,-0.0,-0.0,-0.0,-0.0,-0.0,-0.0,0.4956,0.5363,0.0202,-0.0,0.1306,0.4117,0.6656,0.7972,0.8041,0.8038,0.8038,0.8038,0.8038,0.7952,0.7972,0.7972,0.7992,0.8022,0.8026,0.4853,-0.0,-0.0,-0.0,-0.0,-0.0,-0.0,-0.0,-0.0,-0.0,-0.0,-0.0,-0.0,-0.0,-0.0,-0.0,-0.0,-0.0,-0.0,-0.0,-0.0,-0.0,-0.0,-0.0,-0.0,-0.0,-0.0,-0.0,-0.0,-0.0,-0.0,-0.0,-0.0,-0.0,-0.0,-0.0,-0.0,-0.0,-0.0,-0.0,-0.0,-0.0,-0.0,-0.0,-0.0,-0.0,-0.0,-0.0,-0.0,-0.0,-0.0,-0.0,-0.0,-0.0,-0.0,-0.0,-0.0,-0.0,-0.0,-0.0,-0.0,-0.0,0.0,0.0,-0.0,-0.0,-0.0,-0.0,-0.0,-0.0,-0.0,-0.0,-0.0,-0.0,-0.0,-0.0,-0.0,-0.0,-0.0,-0.0,-0.0,-0.0,-0.0,-0.0,-0.0,-0.0,-0.0,-0.0,0.0,-0.0,-0.0,-0.0,-0.0,0.1716,0.3536,0.526,0.5356,0.5751,0.6648,0.7566,0.7965,0.8038,0.8038,0.8038,0.8038,0.8038,0.7952,0.7872,0.6137,0.6358,0.7717,0.4144,0.1615,-0.0,-0.0,-0.0,-0.0,-0.0,-0.0,-0.0,-0.0,-0.0,-0.0,-0.0,-0.0,-0.0,-0.0,-0.0,-0.0,-0.0,-0.0,-0.0,-0.0,-0.0,-0.0,-0.0,-0.0,-0.0,-0.0,-0.0,-0.0,-0.0,-0.0,-0.0,-0.0,-0.0,-0.0,-0.0,-0.0,-0.0,-0.0,-0.0,-0.0,-0.0,-0.0,-0.0,-0.0,-0.0,-0.0,-0.0,-0.0,-0.0,-0.0,-0.0,-0.0,-0.0,-0.0,-0.0,-0.0,-0.0,-0.0,-0.0,-0.0,-0.0,-0.0,-0.0,-0.0,-0.0,-0.0,-0.0,-0.0,-0.0,-0.0,-0.0,-0.0,-0.0,-0.0,-0.0,-0.0,-0.0,-0.0,-0.0,-0.0,-0.0,-0.0,-0.0,-0.0,-0.0,0.0,0.0,0.0,-0.0,-0.0,-0.0,-0.0,0.0907,0.3429,0.7818,0.8012,0.7995,0.7972,0.7972,0.7962,0.8038,0.8038,0.8038,0.8038,0.8038,0.7952,0.7869,0.5527,0.4728,0.4847,0.1411,-0.0,-0.0,-0.0,-0.0,-0.0,-0.0,-0.0,-0.0,-0.0,-0.0,-0.0,-0.0,-0.0,-0.0,-0.0,-0.0,-0.0,-0.0,-0.0,-0.0,-0.0,-0.0,-0.0,-0.0,-0.0,-0.0,-0.0,-0.0,-0.0,-0.0,-0.0,-0.0,-0.0,-0.0,-0.0,-0.0,-0.0,-0.0,-0.0,-0.0,-0.0,-0.0,-0.0,-0.0,-0.0,-0.0,-0.0,-0.0,-0.0,-0.0,-0.0,-0.0,-0.0,-0.0,-0.0,-0.0,-0.0,-0.0,-0.0,-0.0,-0.0,-0.0,-0.0,-0.0,-0.0,-0.0,-0.0,-0.0,-0.0,-0.0,-0.0,-0.0,-0.0,-0.0,-0.0,0.0,-0.0,-0.0,-0.0,-0.0,-0.0,-0.0,-0.0,0.0,0.0,0.0,0.0,0.0,0.0,-0.0,-0.0,0.0101,0.0404,0.2816,0.534,0.7918,0.7992,0.7972,0.7972,0.7972,0.7962,0.8038,0.8038,0.8038,0.8038,0.8038,0.7952,0.7872,0.6234,0.3613,0.0402,0.0101,-0.0,-0.0,-0.0,-0.0,-0.0,-0.0,-0.0,-0.0,-0.0,-0.0,-0.0,-0.0,-0.0,-0.0,-0.0,-0.0,-0.0,-0.0,-0.0,-0.0,-0.0,-0.0,-0.0,-0.0,-0.0,-0.0,-0.0,-0.0,-0.0,-0.0,-0.0,-0.0,-0.0,-0.0,-0.0,-0.0,-0.0,-0.0,-0.0,-0.0,-0.0,-0.0,-0.0,-0.0,-0.0,-0.0,-0.0,-0.0,-0.0,-0.0,-0.0,-0.0,-0.0,-0.0,-0.0,-0.0,-0.0,-0.0,-0.0,-0.0,-0.0,-0.0,-0.0,-0.0,-0.0,-0.0,-0.0,-0.0,-0.0,-0.0,-0.0,-0.0,-0.0,-0.0,-0.0,0.0,0.0,-0.0,-0.0,0.0,-0.0,-0.0,0.0,-0.0,0.0,-0.0,-0.0,-0.0,0.0,-0.0,-0.0,0.1716,0.577,0.6595,0.7302,0.7985,0.7985,0.7972,0.8048,0.8048,0.8045,0.8038,0.8038,0.8038,0.8038,0.8038,0.7952,0.7972,0.7559,0.6853,0.5644,0.1609,-0.0,-0.0,-0.0,-0.0,-0.0,-0.0,-0.0,-0.0,-0.0,-0.0,-0.0,-0.0,-0.0,-0.0,-0.0,-0.0,-0.0,-0.0,-0.0,-0.0,-0.0,-0.0,-0.0,-0.0,-0.0,-0.0,-0.0,-0.0,-0.0,-0.0,-0.0,-0.0,-0.0,-0.0,-0.0,-0.0,-0.0,-0.0,-0.0,-0.0,-0.0,-0.0,-0.0,-0.0,-0.0,-0.0,-0.0,-0.0,-0.0,-0.0,-0.0,-0.0,-0.0,-0.0,-0.0,-0.0,-0.0,-0.0,-0.0,-0.0,-0.0,-0.0,-0.0,-0.0,-0.0,-0.0,-0.0,-0.0,-0.0,-0.0,-0.0,-0.0,-0.0,0.0,-0.0,-0.0,0.0,0.0,0.0,0.0,-0.0,-0.0,-0.0,0.0,-0.0,0.0,-0.0,-0.0,-0.0,0.0,-0.0,0.2323,0.7717,0.8029,0.8012,0.7975,0.7969,0.7959,0.8038,0.8038,0.8038,0.8038,0.8038,0.8038,0.8038,0.8038,0.8045,0.7959,0.7959,0.7969,0.7775,0.473,0.2111,-0.0,-0.0,-0.0,-0.0,-0.0,-0.0,-0.0,-0.0,-0.0,-0.0,-0.0,-0.0,-0.0,-0.0,-0.0,-0.0,-0.0,-0.0,-0.0,-0.0,-0.0,-0.0,-0.0,-0.0,-0.0,-0.0,-0.0,-0.0,-0.0,-0.0,-0.0,-0.0,-0.0,-0.0,-0.0,-0.0,-0.0,-0.0,-0.0,-0.0,-0.0,-0.0,-0.0,-0.0,-0.0,-0.0,-0.0,-0.0,-0.0,-0.0,-0.0,-0.0,-0.0,-0.0,-0.0,-0.0,-0.0,-0.0,-0.0,-0.0,-0.0,-0.0,-0.0,-0.0,-0.0,-0.0,-0.0,-0.0,-0.0,-0.0,-0.0,0.0,-0.0,-0.0,-0.0,-0.0,-0.0,0.0,-0.0,-0.0,-0.0,-0.0,-0.0,-0.0,-0.0,-0.0,-0.0,0.0303,0.101,0.1111,0.2928,0.7196,0.7798,0.7989,0.7972,0.7952,0.8038,0.8038,0.8041,0.8041,0.8038,0.8041,0.8041,0.8038,0.8038,0.8038,0.8038,0.8038,0.7952,0.7975,0.7985,0.524,0.1006,0.0303,-0.0,-0.0,-0.0,-0.0,-0.0,-0.0,-0.0,-0.0,-0.0,-0.0,-0.0,-0.0,-0.0,-0.0,-0.0,-0.0,-0.0,-0.0,-0.0,-0.0,-0.0,-0.0,-0.0,-0.0,-0.0,-0.0,-0.0,-0.0,-0.0,-0.0,-0.0,-0.0,-0.0,-0.0,-0.0,-0.0,-0.0,-0.0,-0.0,-0.0,-0.0,-0.0,-0.0,-0.0,-0.0,-0.0,-0.0,-0.0,-0.0,-0.0,-0.0,-0.0,-0.0,-0.0,-0.0,-0.0,-0.0,-0.0,-0.0,-0.0,-0.0,-0.0,-0.0,-0.0,-0.0,-0.0,-0.0,0.0,0.0,0.0,-0.0,-0.0,-0.0,0.0,-0.0,0.0,0.0,0.0,0.0,-0.0,0.0,0.0,0.0,0.0,-0.0,0.0,0.0,0.6586,0.6067,0.4728,0.6776,0.8006,0.7975,0.7952,0.8038,0.8038,0.7959,0.7959,0.8038,0.7959,0.7959,0.8038,0.8038,0.8038,0.8038,0.8038,0.7952,0.7975,0.7985,0.7488,0.6173,0.1716,-0.0,-0.0,-0.0,-0.0,-0.0,-0.0,-0.0,-0.0,-0.0,-0.0,-0.0,-0.0,-0.0,-0.0,-0.0,-0.0,-0.0,-0.0,-0.0,-0.0,-0.0,-0.0,-0.0,-0.0,-0.0,-0.0,-0.0,-0.0,-0.0,-0.0,-0.0,-0.0,-0.0,-0.0,-0.0,-0.0,-0.0,-0.0,-0.0,-0.0,-0.0,-0.0,-0.0,-0.0,-0.0,-0.0,-0.0,-0.0,-0.0,-0.0,-0.0,-0.0,-0.0,-0.0,-0.0,-0.0,-0.0,-0.0,-0.0,-0.0,-0.0,-0.0,-0.0,-0.0,-0.0,-0.0,0.0,0.0,0.0,0.0,-0.0,-0.0,0.0,0.0,0.0,0.0,0.0,0.0,0.0,0.0,0.0,0.0,0.0,0.0,0.4147,0.526,0.7818,0.8016,0.7481,0.6139,0.7263,0.7972,0.7955,0.8045,0.8045,0.7955,0.7969,0.7556,0.6628,0.7556,0.7962,0.8038,0.8038,0.8038,0.8038,0.7952,0.7962,0.7975,0.7999,0.8016,0.751,0.212,-0.0,-0.0,-0.0,-0.0,-0.0,-0.0,-0.0,-0.0,-0.0,-0.0,-0.0,-0.0,-0.0,-0.0,-0.0,-0.0,-0.0,-0.0,-0.0,-0.0,-0.0,-0.0,-0.0,-0.0,-0.0,-0.0,-0.0,-0.0,-0.0,-0.0,-0.0,-0.0,-0.0,-0.0,-0.0,-0.0,-0.0,-0.0,-0.0,-0.0,-0.0,-0.0,-0.0,-0.0,-0.0,-0.0,-0.0,-0.0,-0.0,-0.0,-0.0,-0.0,-0.0,-0.0,-0.0,-0.0,-0.0,-0.0,-0.0,-0.0,-0.0,-0.0,-0.0,-0.0,-0.0,-0.0,-0.0,0.0,0.0,-0.0,-0.0,-0.0,0.0,0.0,0.0,0.0,0.0,0.0,0.0,0.0,0.0,0.0,0.0,0.0,0.7513,0.0,0.7912,0.7992,0.7979,0.7972,0.7952,0.8038,0.8038,0.8038,0.8048,0.7965,0.7662,0.6945,0.6024,0.7353,0.7962,0.8038,0.8038,0.8041,0.8048,0.7965,0.7975,0.7985,0.8012,0.7305,0.5871,0.1615,-0.0,-0.0,-0.0,-0.0,-0.0,-0.0,-0.0,-0.0,-0.0,-0.0,-0.0,-0.0,-0.0,0.0189,0.1209,0.1551,0.1257,0.027,-0.0,-0.0,-0.0,-0.0,-0.0,-0.0,-0.0,-0.0,-0.0,-0.0,-0.0,-0.0,-0.0,-0.0,-0.0,-0.0,-0.0,-0.0,-0.0,-0.0,-0.0,-0.0,-0.0,-0.0,-0.0,-0.0,-0.0,-0.0,-0.0,-0.0,-0.0,-0.0,-0.0,-0.0,-0.0,-0.0,-0.0,-0.0,-0.0,-0.0,-0.0,-0.0,-0.0,-0.0,-0.0,-0.0,-0.0,-0.0,0.0,0.0,-0.0,-0.0,-0.0,-0.0,-0.0,0.0,0.0,0.0,0.0,0.0,0.0,0.0,0.0,0.0,0.0,0.0,0.5751,0.5331,0.7772,0.7955,0.7952,0.7972,0.7952,0.8038,0.8038,0.8038,0.8041,0.8041,0.6429,0.6326,0.7736,0.7962,0.7962,0.8038,0.8038,0.7952,0.7969,0.7972,0.7992,0.8019,0.8022,0.5157,0.0707,0.0202,-0.0,-0.0,-0.0,-0.0,-0.0,-0.0,-0.0,-0.0,-0.0,-0.0,-0.0,-0.0,-0.0,0.0927,0.5208,0.6424,0.5494,0.1078,-0.0,-0.0,-0.0,-0.0,-0.0,-0.0,-0.0,-0.0,-0.0,-0.0,-0.0,-0.0,-0.0,-0.0,-0.0,-0.0,-0.0,-0.0,-0.0,-0.0,-0.0,-0.0,-0.0,-0.0,-0.0,-0.0,-0.0,-0.0,-0.0,-0.0,-0.0,-0.0,-0.0,-0.0,-0.0,-0.0,-0.0,-0.0,-0.0,-0.0,-0.0,-0.0,-0.0,-0.0,-0.0,-0.0,-0.0,-0.0,0.0,0.1749,0.0308,-0.0,-0.0,-0.0,-0.0,-0.0,0.0,-0.0,0.0612,0.0,0.0,0.0,0.0,0.0,0.0,0.0,0.0,0.6845,0.7952,0.8045,0.8041,0.7952,0.8045,0.8038,0.8038,0.8038,0.8045,0.7959,0.735,0.735,0.7959,0.7969,0.7962,0.8038,0.7952,0.7965,0.7975,0.7995,0.8012,0.7717,0.4549,0.1918,-0.0,-0.0,-0.0,-0.0,-0.0,-0.0,-0.0,-0.0,-0.0,-0.0,-0.0,0.1979,0.4253,0.4253,0.3309,0.2575,0.4462,0.4963,0.4842,0.4403,0.2154,-0.0,-0.0,-0.0,-0.0,-0.0,-0.0,-0.0,-0.0,-0.0,-0.0,-0.0,-0.0,-0.0,-0.0,-0.0,-0.0,-0.0,-0.0,-0.0,-0.0,-0.0,-0.0,-0.0,-0.0,-0.0,-0.0,-0.0,-0.0,-0.0,-0.0,-0.0,-0.0,-0.0,-0.0,-0.0,-0.0,-0.0,-0.0,-0.0,-0.0,-0.0,-0.0,-0.0,-0.0,0.0637,0.1251,0.0,0.0,0.2689,0.1357,0.0518,-0.0,-0.0,-0.0,0.0286,0.0,0.1354,0.1962,0.3732,0.0,0.0,0.0,0.0,0.5644,0.0,0.7918,0.7955,0.8041,0.8038,0.8038,0.8038,0.8038,0.8038,0.8038,0.8038,0.8048,0.7962,0.7962,0.7962,0.7962,0.7962,0.7955,0.8038,0.7962,0.7563,0.6851,0.7701,0.7098,0.5363,0.1515,-0.0,-0.0,-0.0,-0.0,-0.0,-0.0,-0.0,-0.0,-0.0,-0.0,0.0202,0.1606,0.392,0.6208,0.6844,0.5969,0.4647,0.4667,0.4652,0.4837,0.5844,0.3053,-0.0,-0.0,-0.0,-0.0,-0.0,-0.0,-0.0,-0.0,-0.0,-0.0,-0.0,-0.0,-0.0,-0.0,-0.0,-0.0,-0.0,-0.0,-0.0,-0.0,-0.0,-0.0,-0.0,-0.0,-0.0,-0.0,-0.0,-0.0,-0.0,-0.0,-0.0,-0.0,-0.0,-0.0,-0.0,-0.0,-0.0,-0.0,-0.0,-0.0,-0.0,-0.0,-0.0,-0.0,0.2272,0.4268,0.0,0.2638,0.2137,0.3311,0.1661,-0.0,-0.0,-0.0,0.0971,0.3973,0.4462,0.4029,0.2898,0.0,0.0,0.0,0.0,0.7178,0.7412,0.7774,0.8038,0.8038,0.8038,0.8038,0.8038,0.8038,0.8038,0.8038,0.8038,0.8038,0.8038,0.8038,0.8038,0.8038,0.8038,0.8038,0.8038,0.7962,0.6545,0.4218,0.6879,0.4956,0.0101,-0.0,-0.0,-0.0,-0.0,-0.0,-0.0,-0.0,-0.0,-0.0,-0.0,-0.0,0.0805,0.5452,0.5528,0.4067,0.6415,0.7121,0.7104,0.7101,0.7029,0.649,0.4202,0.179,-0.0,-0.0,-0.0,-0.0,-0.0,-0.0,-0.0,-0.0,-0.0,-0.0,-0.0,-0.0,-0.0,-0.0,-0.0,-0.0,-0.0,-0.0,-0.0,-0.0,-0.0,-0.0,-0.0,-0.0,-0.0,-0.0,-0.0,-0.0,-0.0,-0.0,-0.0,-0.0,-0.0,-0.0,-0.0,-0.0,-0.0,-0.0,-0.0,-0.0,-0.0,0.1171,0.207,0.0417,0.1474,0.3064,0.3485,0.3433,0.329,0.3525,0.2532,0.1293,0.0224,0.0671,0.2205,0.5231,0.5366,0.0,0.0,0.0,0.0,0.0,0.0,0.7758,0.0,0.0,0.8038,0.8038,0.8038,0.8038,0.8038,0.8038,0.8038,0.8038,0.8038,0.8038,0.8038,0.8038,0.8038,0.8038,0.8038,0.8048,0.7962,0.7979,0.7582,0.6573,0.3736,0.1615,-0.0,-0.0,-0.0,-0.0,-0.0,-0.0,-0.0,-0.0,-0.0,-0.0,-0.0,0.2104,0.5062,0.6625,0.664,0.6146,0.6857,0.7105,0.7068,0.7068,0.7088,0.656,0.42,0.179,-0.0,-0.0,-0.0,-0.0,-0.0,-0.0,-0.0,-0.0,-0.0,-0.0,-0.0,-0.0,-0.0,-0.0,-0.0,-0.0,-0.0,-0.0,-0.0,-0.0,-0.0,-0.0,-0.0,-0.0,-0.0,-0.0,-0.0,-0.0,-0.0,-0.0,-0.0,-0.0,-0.0,-0.0,-0.0,-0.0,-0.0,-0.0,-0.0,-0.0,0.0,0.2145,0.2684,0.163,0.2129,0.298,0.3509,0.3712,0.3804,0.3618,0.3188,0.2541,0.1564,0.1607,0.2618,0.5129,0.5218,0.0,0.0,0.0,0.0,0.0,0.0,0.0,0.0,0.8007,0.8038,0.8038,0.8038,0.8038,0.8038,0.8038,0.8038,0.8038,0.8038,0.8038,0.8038,0.8038,0.8038,0.8038,0.8038,0.8045,0.7962,0.6954,0.6458,0.6263,0.1917,-0.0,0.0,-0.0,-0.0,-0.0,-0.0,-0.0,-0.0,-0.0,0.1313,0.3026,0.2806,0.4069,0.5886,0.6777,0.7057,0.7118,0.7118,0.7135,0.7143,0.7061,0.7081,0.6739,0.529,0.251,-0.0,-0.0,-0.0,-0.0,-0.0,-0.0,-0.0,-0.0,-0.0,-0.0,-0.0,-0.0,-0.0,-0.0,-0.0,-0.0,-0.0,-0.0,-0.0,-0.0,-0.0,-0.0,-0.0,-0.0,-0.0,-0.0,-0.0,-0.0,-0.0,-0.0,-0.0,-0.0,-0.0,-0.0,-0.0,-0.0,-0.0,-0.0,-0.0,-0.0,0.0,0.2745,0.2131,0.3283,0.3716,0.3788,0.3642,0.3681,0.0,0.3605,0.3581,0.3592,0.3622,0.2702,0.2449,0.4046,0.0,0.0,0.0,0.0,0.0,0.0,0.7546,0.0,0.7814,0.7957,0.8038,0.8038,0.8038,0.8038,0.8038,0.8038,0.8038,0.8038,0.8038,0.8038,0.8038,0.8038,0.8038,0.8038,0.8038,0.8041,0.7942,0.5422,0.4117,0.3615,0.1109,-0.0,-0.0,-0.0,-0.0,-0.0,-0.0,0.0202,0.0606,0.0606,0.3633,0.7679,0.7251,0.5689,0.416,0.6345,0.7091,0.7139,0.7139,0.7139,0.7058,0.7078,0.7002,0.6923,0.7042,0.3595,-0.0,-0.0,-0.0,-0.0,-0.0,-0.0,-0.0,-0.0,-0.0,-0.0,-0.0,-0.0,-0.0,-0.0,-0.0,-0.0,-0.0,-0.0,-0.0,-0.0,-0.0,-0.0,-0.0,-0.0,-0.0,-0.0,-0.0,-0.0,-0.0,-0.0,-0.0,-0.0,-0.0,-0.0,-0.0,-0.0,-0.0,-0.0,-0.0,-0.0,0.3033,0.0,0.2783,0.3149,0.3347,0.342,0.0,0.3534,0.0,0.0,0.0,0.3698,0.399,0.3636,0.3706,0.0,0.0,0.0,0.0,0.0,0.0,0.0,0.7916,0.795,0.7984,0.8018,0.8038,0.8038,0.8038,0.8038,0.8038,0.8038,0.8038,0.8038,0.8038,0.8038,0.8038,0.8038,0.8038,0.8038,0.8038,0.7952,0.7979,0.7369,0.4836,0.0907,0.0303,-0.0,-0.0,-0.0,-0.0,-0.0,-0.0,0.2524,0.6078,0.6078,0.5506,0.4929,0.6798,0.6942,0.6343,0.6902,0.7084,0.7139,0.7139,0.7139,0.7058,0.7078,0.5816,0.4832,0.6671,0.3595,-0.0,-0.0,-0.0,-0.0,-0.0,-0.0,-0.0,-0.0,-0.0,-0.0,-0.0,-0.0,-0.0,-0.0,-0.0,-0.0,-0.0,-0.0,-0.0,-0.0,-0.0,-0.0,-0.0,-0.0,-0.0,-0.0,-0.0,-0.0,-0.0,-0.0,-0.0,-0.0,-0.0,-0.0,-0.0,-0.0,-0.0,-0.0,-0.0,-0.0,0.284,0.305,0.3272,0.3326,0.341,0.351,0.3514,0.0,0.0,0.0,0.0,0.0,0.3983,0.0,0.0,0.0,0.0,0.0,0.0,0.0,0.0,0.0,0.8038,0.8038,0.8038,0.8038,0.8038,0.8038,0.8038,0.8038,0.8038,0.8038,0.8038,0.8038,0.8038,0.8038,0.8038,0.8038,0.8038,0.8038,0.8038,0.7955,0.7982,0.6756,0.5242,0.3536,0.1111,0.1414,0.3636,0.3636,0.2925,0.1812,0.1812,0.3626,0.6364,0.7594,0.6889,0.5667,0.6994,0.7359,0.7085,0.7081,0.7139,0.7139,0.7139,0.7139,0.7058,0.7084,0.5369,0.4111,0.649,0.3595,-0.0,-0.0,0.1501,0.2335,0.0423,-0.0,-0.0,-0.0,-0.0,-0.0,-0.0,-0.0,-0.0,-0.0,-0.0,-0.0,-0.0,-0.0,-0.0,-0.0,-0.0,0.0649,0.2321,0.2464,0.1751,0.0135,-0.0,-0.0,-0.0,-0.0,-0.0,-0.0,-0.0,-0.0,-0.0,-0.0,-0.0,-0.0,-0.0,-0.0,0.2734,0.3154,0.3568,0.352,0.3636,0.3811,0.0,0.0,0.0,0.0,0.0,0.0,0.0,0.0,0.0,0.0,0.0,0.0,0.0,0.0,0.0,0.7987,0.8038,0.8038,0.8038,0.8038,0.8038,0.8038,0.8038,0.8038,0.8038,0.8038,0.8038,0.8038,0.8038,0.8038,0.8038,0.8038,0.8038,0.8038,0.8041,0.7955,0.7875,0.5632,0.5849,0.7717,0.2725,0.3229,0.74,0.7815,0.667,0.4622,0.4622,0.462,0.4922,0.7166,0.7872,0.7684,0.7412,0.7272,0.7139,0.7139,0.7139,0.7139,0.7139,0.7139,0.7058,0.7091,0.546,0.4111,0.5665,0.3593,0.1077,0.1074,0.3785,0.5352,0.1774,0.0494,-0.0,-0.0,-0.0,-0.0,-0.0,-0.0,-0.0,-0.0,-0.0,-0.0,-0.0,-0.0,-0.0,-0.0,0.0595,0.2177,0.5115,0.5395,0.4064,0.101,0.0539,0.0269,-0.0,-0.0,-0.0,-0.0,-0.0,-0.0,-0.0,-0.0,-0.0,-0.0,-0.0,-0.0,0.2985,0.331,0.3517,0.3256,0.3402,0.3823,0.0,0.0,0.0,0.0,0.0,0.0,0.0,0.0,0.0,0.0,0.0,0.0,0.0,0.0,0.7539,0.7987,0.0,0.8038,0.8038,0.8038,0.8038,0.8038,0.8038,0.8038,0.8038,0.8038,0.8038,0.8038,0.8038,0.8038,0.8038,0.8038,0.8038,0.8038,0.7959,0.7975,0.7989,0.7578,0.7591,0.7818,0.4734,0.3819,0.4826,0.7068,0.7785,0.7372,0.7372,0.7369,0.7463,0.7872,0.7791,0.7594,0.7222,0.7091,0.7139,0.7139,0.7139,0.7139,0.7139,0.7139,0.7058,0.7081,0.5905,0.4103,0.1698,0.3499,0.6039,0.6037,0.6121,0.6105,0.5479,0.2517,-0.0,-0.0,-0.0,-0.0,-0.0,-0.0,-0.0,-0.0,-0.0,-0.0,-0.0,-0.0,-0.0,-0.0,0.3213,0.5318,0.5403,0.5396,0.5186,0.4587,0.3153,0.1607,0.0067,-0.0,-0.0,-0.0,-0.0,-0.0,-0.0,-0.0,-0.0,-0.0,-0.0,-0.0,0.2846,0.3164,0.3442,0.3385,0.3717,0.4174,0.0,0.0,0.0,0.0,0.0,0.0,0.0,0.0,0.0,0.0,0.0,0.6797,0.7302,0.7444,0.7631,0.0,0.8038,0.8038,0.8038,0.8038,0.8038,0.8038,0.8038,0.8038,0.8038,0.8038,0.8038,0.8038,0.8038,0.8038,0.8038,0.8038,0.8038,0.8038,0.8048,0.7553,0.6548,0.6548,0.7065,0.7902,0.6659,0.6142,0.6239,0.7469,0.7972,0.7962,0.7962,0.7959,0.7935,0.7879,0.7672,0.7444,0.7217,0.7139,0.7139,0.7139,0.7139,0.7139,0.7139,0.7139,0.7143,0.7064,0.6618,0.5722,0.42,0.4476,0.5188,0.5222,0.5863,0.6472,0.6325,0.4751,0.274,0.047,-0.0,-0.0,-0.0,-0.0,-0.0,-0.0,-0.0,-0.0,-0.0,0.1963,0.3383,0.3383,0.4079,0.4803,0.5495,0.556,0.5483,0.5413,0.4648,0.2889,0.0134,-0.0,-0.0,-0.0,-0.0,-0.0,-0.0,-0.0,-0.0,-0.0,-0.0,-0.0,0.2764,0.3021,0.335,0.0,0.0,0.0,0.0,0.0,0.0,0.0,0.0,0.0,0.0,0.0,0.0,0.0,0.6709,0.7071,0.7333,0.7502,0.7695,0.7957,0.8018,0.8038,0.8038,0.8038,0.8038,0.8038,0.8038,0.8038,0.8038,0.8038,0.8038,0.8038,0.8038,0.8038,0.8038,0.8038,0.8038,0.8038,0.8045,0.7341,0.6029,0.6029,0.6748,0.7985,0.7979,0.7972,0.7965,0.7965,0.7955,0.8035,0.8001,0.7967,0.7902,0.7641,0.7472,0.735,0.7193,0.7139,0.7139,0.7139,0.7139,0.7139,0.7139,0.7139,0.7139,0.7139,0.7064,0.7078,0.7084,0.5797,0.4421,0.4348,0.5096,0.5897,0.6225,0.6327,0.5179,0.1486,0.0313,-0.0,-0.0,-0.0,-0.0,-0.0,0.0864,0.1492,0.1492,0.3853,0.5758,0.624,0.4868,0.4363,0.562,0.5661,0.5583,0.5416,0.4998,0.3706,0.1347,0.0472,-0.0,-0.0,-0.0,-0.0,-0.0,-0.0,-0.0,-0.0,-0.0,-0.0,0.3015,0.3175,0.3376,0.3704,0.0,0.0,0.0,0.0,0.0,0.0,0.0,0.0,0.0,0.0,0.0,0.0,0.6926,0.7183,0.735,0.7502,0.7655,0.7811,0.7953,0.8038,0.8038,0.8038,0.8038,0.8038,0.8038,0.8038,0.8038,0.8038,0.8038,0.8038,0.8038,0.8038,0.8038,0.8038,0.8038,0.8038,0.7962,0.7969,0.7769,0.7769,0.7869,0.7972,0.7952,0.8041,0.8041,0.8041,0.8041,0.8024,0.7882,0.7746,0.7611,0.7448,0.738,0.735,0.7193,0.7139,0.7139,0.7139,0.7139,0.7139,0.7139,0.7139,0.7139,0.7139,0.7143,0.7058,0.7081,0.6997,0.681,0.6605,0.4946,0.3891,0.5993,0.6373,0.5643,0.3359,0.1329,-0.0,-0.0,-0.0,-0.0,-0.0,0.3304,0.5849,0.5849,0.4394,0.4068,0.6058,0.6197,0.5983,0.583,0.5552,0.5396,0.5396,0.3825,0.3558,0.4934,0.1818,-0.0,-0.0,-0.0,-0.0,-0.0,-0.0,-0.0,-0.0,-0.0,-0.0,0.2791,0.3093,0.3524,0.4176,0.0,0.0,0.0,0.0,0.0,0.0,0.0,0.0,0.0,0.0,0.0,0.6641,0.6875,0.7092,0.7339,0.7421,0.7512,0.7662,0.7729,0.7767,0.7767,0.7767,0.7767,0.7767,0.7848,0.7896,0.7896,0.7987,0.8038,0.8038,0.8038,0.8038,0.8038,0.8038,0.8038,0.8038,0.8048,0.7952,0.7952,0.7952,0.7952,0.7952,0.8041,0.8038,0.8038,0.8038,0.7984,0.7882,0.7736,0.759,0.7451,0.7394,0.7312,0.7217,0.716,0.7139,0.7139,0.7139,0.7139,0.7139,0.7139,0.7139,0.7139,0.7139,0.7139,0.7143,0.7061,0.7119,0.6766,0.5633,0.5352,0.5496,0.6228,0.6312,0.6041,0.5254,0.2347,-0.0,-0.0,-0.0,0.0864,0.354,0.5288,0.6325,0.6312,0.5575,0.5375,0.6073,0.5966,0.5803,0.5681,0.5491,0.4903,0.3825,0.4102,0.3703,0.2088,0.0741,-0.0,-0.0,-0.0,-0.0,-0.0,-0.0,-0.0,-0.0,-0.0,-0.0,0.2723,0.3302,0.3955,0.0,0.0,0.0,0.0,0.0,0.0,0.0,0.0,0.0,0.0,0.0,0.0,0.0,0.6898,0.7068,0.7272,0.7343,0.7411,0.7516,0.757,0.76,0.76,0.76,0.76,0.76,0.7689,0.7743,0.7743,0.7845,0.7899,0.7899,0.7899,0.7899,0.7899,0.7899,0.7899,0.7899,0.7899,0.795,0.8038,0.8038,0.8014,0.7967,0.7967,0.7943,0.7899,0.7899,0.7811,0.7662,0.7563,0.7434,0.7299,0.7299,0.7231,0.7139,0.7139,0.7139,0.7139,0.7139,0.7139,0.7139,0.7139,0.7139,0.7139,0.7139,0.7139,0.7129,0.7085,0.7041,0.6691,0.5474,0.5879,0.6512,0.6315,0.6278,0.6281,0.6295,0.4001,0.1568,0.0236,-0.0,0.1414,0.5686,0.6322,0.6312,0.6291,0.6281,0.623,0.6125,0.584,0.5657,0.5657,0.5488,0.4697,0.3078,0.3964,0.3163,0.0135,-0.0,-0.0,-0.0,-0.0,-0.0,-0.0,-0.0,-0.0,-0.0,-0.0,-0.0,0.2907,0.3865,0.0,0.0,0.0,0.0,0.0,0.0,0.0,0.0,0.0,0.0,0.0,0.0,0.0,0.6878,0.7048,0.7139,0.7139,0.7272,0.737,0.737,0.7502,0.7597,0.7597,0.7597,0.7597,0.7597,0.7597,0.7597,0.7597,0.76,0.76,0.76,0.76,0.76,0.76,0.76,0.76,0.76,0.76,0.7753,0.8035,0.8035,0.7953,0.7811,0.7811,0.7729,0.76,0.7597,0.7509,0.737,0.737,0.7275,0.7139,0.7139,0.7139,0.7139,0.7139,0.7139,0.7139,0.7139,0.7139,0.7139,0.7139,0.7139,0.7139,0.7139,0.7139,0.7105,0.6963,0.6824,0.6798,0.6702,0.6485,0.6278,0.6264,0.6271,0.6281,0.6291,0.6315,0.4969,0.0707,-0.0,0.1414,0.5686,0.6312,0.6291,0.6281,0.6264,0.6335,0.6257,0.5983,0.58,0.5796,0.5542,0.49,0.3678,0.3076,0.1877,0.0067,-0.0,-0.0,-0.0,-0.0,-0.0,-0.0,-0.0,-0.0,-0.0,-0.0,-0.0,0.3927,0.0,0.0,0.0,0.0,0.0,0.0,0.0,0.0,0.0,0.0,0.0,0.0,0.0,0.0,0.6898,0.6963,0.7024,0.7126,0.718,0.721,0.721,0.7248,0.7275,0.7275,0.7275,0.7275,0.7275,0.7377,0.7441,0.7441,0.7543,0.76,0.76,0.76,0.76,0.76,0.76,0.76,0.76,0.76,0.7645,0.7729,0.7729,0.7706,0.7662,0.7662,0.7638,0.759,0.7485,0.7411,0.736,0.7251,0.718,0.7139,0.7139,0.7139,0.7139,0.7139,0.7139,0.7139,0.7139,0.7139,0.7139,0.7139,0.7139,0.7119,0.7021,0.6993,0.6956,0.6807,0.6658,0.6546,0.6542,0.6474,0.6386,0.6285,0.6271,0.5879,0.4304,0.5271,0.4969,0.0707,-0.0,0.1414,0.5686,0.6312,0.6288,0.6268,0.6169,0.6057,0.5949,0.5766,0.561,0.5501,0.5423,0.5243,0.49,0.4703,0.3222,0.0134,-0.0,-0.0,-0.0,-0.0,-0.0,-0.0,-0.0,-0.0,-0.0,-0.0,-0.0,0.4712,0.0,0.0,0.0,0.0,0.0,0.0,0.0,0.0,0.0,0.0,0.0,0.6902,0.6854,0.0,0.699,0.7014,0.7044,0.7129,0.7139,0.7139,0.7139,0.7139,0.7139,0.7139,0.7139,0.7139,0.7139,0.7227,0.7278,0.7278,0.7366,0.7417,0.7417,0.7417,0.7417,0.7417,0.7417,0.7417,0.7417,0.7417,0.7417,0.7421,0.7543,0.7567,0.7506,0.7444,0.7417,0.7411,0.7319,0.7278,0.7272,0.7177,0.7139,0.7139,0.7139,0.7139,0.7139,0.7139,0.7139,0.7139,0.7139,0.7139,0.7129,0.7075,0.7054,0.7024,0.6878,0.6837,0.6803,0.6651,0.6539,0.6471,0.6471,0.643,0.6366,0.6285,0.6278,0.5889,0.4628,0.4086,0.2987,0.0471,0.0707,0.212,0.4638,0.5736,0.6278,0.6264,0.6125,0.5993,0.5901,0.5711,0.5552,0.546,0.5403,0.5372,0.5372,0.5379,0.4428,0.2209,0.0736,-0.0,-0.0,-0.0,-0.0,-0.0,-0.0,-0.0,-0.0,-0.0,-0.0,0.0,0.0,0.0,0.0,0.0,0.0,0.0,0.0,0.0,0.0,0.0,0.6725,0.6878,0.6919,0.697,0.7099,0.7132,0.7139,0.7139,0.7139,0.7139,0.7139,0.7139,0.7139,0.7139,0.7139,0.7139,0.7139,0.7139,0.7139,0.7139,0.7139,0.7139,0.7139,0.7139,0.7139,0.7139,0.7139,0.7139,0.7139,0.7139,0.7139,0.7149,0.7431,0.7482,0.7343,0.72,0.7139,0.7139,0.7139,0.7139,0.7139,0.7139,0.7139,0.7139,0.7139,0.7139,0.7139,0.7139,0.7139,0.7139,0.7139,0.7132,0.7095,0.6966,0.6919,0.6875,0.6722,0.6678,0.6644,0.6491,0.6454,0.6454,0.6454,0.6356,0.6264,0.6274,0.6203,0.6061,0.6002,0.275,-0.0,-0.0,0.1572,0.2986,0.3361,0.5082,0.6264,0.6338,0.6139,0.604,0.6013,0.5769,0.5599,0.5569,0.5443,0.5428,0.5428,0.5428,0.5432,0.5376,0.2209,0.0335,-0.0,-0.0,-0.0,-0.0,-0.0,-0.0,-0.0,-0.0,-0.0,0.0,0.0,0.0,0.0,0.0,0.0,0.0,0.0,0.0,0.0,0.0,0.6569,0.6722,0.6848,0.6939,0.697,0.7068,0.7139,0.7139,0.7139,0.7139,0.7139,0.7139,0.7139,0.7139,0.7139,0.7139,0.7139,0.7139,0.7139,0.7139,0.7139,0.7139,0.7139,0.7139,0.7139,0.7139,0.7139,0.7139,0.7139,0.7139,0.7139,0.7143,0.721,0.7221,0.7187,0.7153,0.7139,0.7139,0.7139,0.7139,0.7139,0.7139,0.7139,0.7139,0.7139,0.7139,0.7139,0.7139,0.7139,0.7139,0.7139,0.7065,0.697,0.6939,0.6844,0.6719,0.6563,0.6522,0.6488,0.6342,0.6305,0.6305,0.6305,0.6285,0.6338,0.6264,0.5395,0.4457,0.3912,0.1721,-0.0,-0.0,0.0393,0.1804,0.5101,0.5973,0.6281,0.6264,0.6234,0.6118,0.5878,0.5793,0.5661,0.543,0.5449,0.5428,0.5428,0.5428,0.5428,0.5432,0.4634,0.2883,0.0067,-0.0,-0.0,-0.0,-0.0,-0.0,-0.0,-0.0,-0.0,0.0,0.0,0.0,0.0,0.0,0.0,0.0,0.0,0.0,0.0,0.7517,0.7129,0.6658,0.7123,0.7483,0.7483,0.755,0.7603,0.7603,0.7182,0.6929,0.6929,0.6929,0.6929,0.6929,0.6929,0.6959,0.7034,0.7041,0.7068,0.7136,0.7139,0.7139,0.7139,0.7139,0.7139,0.7139,0.7139,0.7139,0.7139,0.7139,0.7139,0.7139,0.7139,0.7139,0.7139,0.7139,0.7139,0.7139,0.7139,0.7139,0.7139,0.7139,0.7139,0.7139,0.7139,0.7139,0.7129,0.7061,0.7041,0.7027,0.6953,0.6878,0.6807,0.6732,0.6654,0.6559,0.6413,0.6373,0.6356,0.6281,0.6338,0.6338,0.6338,0.6338,0.6264,0.6268,0.5715,0.5085,0.4698,0.2112,-0.0,-0.0,-0.0,0.1096,0.4307,0.5649,0.6281,0.6264,0.6196,0.6061,0.5827,0.5742,0.5606,0.5449,0.5428,0.5428,0.5428,0.5428,0.5428,0.5428,0.5379,0.4228,0.1804,0.0604,-0.0,-0.0,-0.0,-0.0,-0.0,-0.0,-0.0,0.0,0.0,0.0,0.0,0.0,0.0,0.0,0.0,0.0,0.0,0.8793,0.7998,0.7141,0.7757,0.8359,0.82,0.8225,0.8168,0.8004,0.7188,0.6702,0.6702,0.6702,0.6702,0.6702,0.6702,0.6753,0.6878,0.6892,0.6943,0.7058,0.7065,0.7065,0.7065,0.7065,0.7065,0.7065,0.7065,0.7065,0.7065,0.7065,0.7065,0.7065,0.7065,0.7092,0.7139,0.7139,0.7139,0.7139,0.7139,0.7139,0.7139,0.7139,0.7126,0.7102,0.7102,0.7088,0.7048,0.6929,0.6892,0.6868,0.6742,0.6681,0.6637,0.6512,0.6454,0.641,0.6295,0.6338,0.6338,0.6338,0.6338,0.6338,0.6338,0.6338,0.6264,0.6274,0.6274,0.6278,0.6291,0.2896,-0.0,-0.0,-0.0,0.0704,0.281,0.4932,0.6278,0.6264,0.6149,0.6,0.582,0.5694,0.5555,0.5442,0.5428,0.5428,0.5428,0.5428,0.5428,0.5428,0.5369,0.4897,0.3949,0.194,0.0603,-0.0,-0.0,-0.0,-0.0,-0.0,-0.0,0.0,0.0,0.0,0.0,0.0,0.0,0.0,0.0,0.0,0.0,0.9628,0.9108,0.8961,0.9126,0.9025,0.8162,0.8141,0.7922,0.7026,0.6781,0.6702,0.6702,0.6702,0.6702,0.6702,0.6702,0.6709,0.6729,0.6729,0.6739,0.6759,0.6759,0.6759,0.6759,0.6759,0.6759,0.6759,0.6759,0.6759,0.6759,0.6759,0.6759,0.6759,0.6759,0.6898,0.7139,0.7139,0.7139,0.7139,0.7139,0.7139,0.7139,0.7139,0.7065,0.6956,0.6956,0.6871,0.6756,0.6736,0.6729,0.6725,0.6709,0.661,0.6498,0.6478,0.6386,0.6285,0.6345,0.6338,0.6338,0.6338,0.6338,0.6338,0.6338,0.6338,0.6338,0.6264,0.6264,0.6268,0.6278,0.2893,-0.0,-0.0,-0.0,0.0705,0.2812,0.4937,0.6285,0.6264,0.6244,0.6118,0.583,0.5783,0.5661,0.5452,0.5428,0.5428,0.5428,0.5428,0.5428,0.5428,0.5428,0.5299,0.5173,0.4852,0.3165,-0.0,-0.0,-0.0,-0.0,-0.0,-0.0,0.0,0.0,0.0,0.0,0.0,0.0,0.0,0.0,0.0,1.1013,1.0716,1.0237,0.9476,0.9372,0.9207,0.8822,0.8277,0.7786,0.7398,0.6846,0.6454,0.6454,0.6454,0.6454,0.6454,0.6454,0.6488,0.6566,0.6573,0.661,0.6695,0.6702,0.6702,0.6702,0.6702,0.6702,0.6702,0.6702,0.6702,0.6702,0.6702,0.6702,0.6702,0.6702,0.677,0.6895,0.6895,0.6895,0.6895,0.6895,0.6895,0.6895,0.6895,0.6854,0.68,0.68,0.6759,0.6688,0.6603,0.6573,0.6559,0.6481,0.641,0.6356,0.6356,0.6312,0.6338,0.6338,0.6338,0.6338,0.6338,0.6338,0.6338,0.6338,0.6338,0.6338,0.6338,0.6338,0.6264,0.6278,0.383,0.1329,0.0235,0.1962,0.3062,0.1564,0.4148,0.6281,0.6271,0.6264,0.6142,0.5833,0.58,0.5681,0.5452,0.5428,0.5428,0.5428,0.5428,0.5428,0.5428,0.5428,0.5369,0.5386,0.437,0.3632,0.3032,0.101,-0.0,-0.0,-0.0,-0.0,0.0,0.0,0.0,0.0,0.0,0.0,0.0,0.0,1.0949,0.0,1.1323,1.1064,1.0019,0.992,0.9883,0.9585,0.903,0.8385,0.7859,0.7176,0.6567,0.6338,0.6338,0.6338,0.6338,0.6338,0.6305,0.641,0.642,0.6468,0.6583,0.6586,0.6586,0.6586,0.6586,0.6586,0.6586,0.6586,0.6586,0.6586,0.6586,0.6586,0.6586,0.6586,0.6586,0.6593,0.6668,0.6702,0.6702,0.6702,0.6702,0.6702,0.6702,0.6675,0.6644,0.6644,0.662,0.6573,0.6458,0.642,0.6403,0.6295,0.6338,0.6338,0.6338,0.6338,0.6338,0.6338,0.6338,0.6338,0.6338,0.6338,0.6338,0.6338,0.6338,0.6338,0.6338,0.6338,0.6264,0.6281,0.501,0.3047,0.047,0.3061,0.4641,0.1957,0.4304,0.6278,0.6274,0.6234,0.6098,0.583,0.5769,0.5644,0.5452,0.5428,0.5428,0.5428,0.5428,0.5428,0.5428,0.5428,0.5372,0.5389,0.362,0.3153,0.4048,0.1347,-0.0,-0.0,-0.0,-0.0,0.0,0.0,0.0,0.0,0.0,0.0,0.0,0.0,0.0,1.0665,1.1042,1.1368,1.1325,1.1556,1.1449,1.0503,1.0477,0.9959,0.8084,0.7783,0.7403,0.6416,0.6338,0.6338,0.6338,0.6338,0.6264,0.6271,0.6271,0.6274,0.6285,0.6285,0.6285,0.6285,0.6285,0.6285,0.6285,0.6285,0.6285,0.6285,0.6285,0.6285,0.6285,0.6285,0.6285,0.6298,0.658,0.6702,0.6702,0.6702,0.6702,0.6702,0.6702,0.6614,0.6485,0.6485,0.6396,0.6281,0.6274,0.6271,0.6271,0.6342,0.6338,0.6338,0.6338,0.6338,0.6338,0.6338,0.6338,0.6338,0.6338,0.6338,0.6338,0.6338,0.6338,0.6338,0.6338,0.6338,0.6268,0.6291,0.6207,0.4857,0.0706,0.18,0.391,0.5733,0.6126,0.6274,0.6264,0.6132,0.5979,0.582,0.5681,0.5535,0.5442,0.5428,0.5428,0.5428,0.5428,0.5428,0.5428,0.5428,0.5432,0.5379,0.3618,0.1878,0.027,0.0067,-0.0,-0.0,-0.0,-0.0,0.0,0.0,0.0,0.0,0.0,0.0,0.0,0.9439,1.0,1.0,1.0314,1.0588,1.0588,1.0581,1.0511,1.0155,0.9159,0.8138,0.7423,0.7525,0.7226,0.6259,0.6805,0.7022,0.6338,0.6338,0.6338,0.6338,0.6338,0.6338,0.6338,0.6338,0.6338,0.6338,0.6338,0.6338,0.6338,0.6338,0.6338,0.6338,0.6338,0.6338,0.6338,0.6338,0.6338,0.6345,0.6373,0.642,0.642,0.642,0.642,0.642,0.642,0.6383,0.6335,0.6335,0.6305,0.6338,0.6338,0.6338,0.6338,0.6338,0.6338,0.6338,0.6338,0.6338,0.6338,0.6338,0.6338,0.6338,0.6338,0.6338,0.6264,0.6271,0.6271,0.5954,0.4533,0.5326,0.6285,0.6295,0.6291,0.5811,0.4316,0.4623,0.5407,0.6213,0.6281,0.6234,0.6135,0.6067,0.5935,0.5691,0.562,0.5528,0.5439,0.5428,0.5428,0.5428,0.5428,0.5428,0.5428,0.5428,0.5369,0.5389,0.4776,0.2952,-0.0,-0.0,-0.0,-0.0,-0.0,-0.0,0.0,0.0,0.0,0.0,0.0,0.0,0.0,0.0,0.9272,0.9372,0.9699,0.9973,0.9973,0.9869,0.9928,1.0196,0.9269,0.8413,0.8061,0.7964,0.7475,0.6463,0.6853,0.6997,0.6629,0.6331,0.6256,0.6554,0.6331,0.6108,0.6108,0.6108,0.6108,0.6108,0.6156,0.6183,0.6183,0.6234,0.6338,0.6338,0.6338,0.6338,0.6338,0.6338,0.6338,0.6338,0.6338,0.6338,0.6338,0.6338,0.6338,0.6338,0.6338,0.6338,0.6338,0.6338,0.6338,0.6338,0.6338,0.6338,0.6338,0.6338,0.6338,0.6338,0.6338,0.6338,0.6338,0.6338,0.6338,0.6338,0.6338,0.6264,0.6271,0.6281,0.6291,0.5895,0.447,0.4704,0.5416,0.6146,0.574,0.5419,0.6152,0.6295,0.6264,0.615,0.62,0.6129,0.5983,0.5918,0.5806,0.561,0.5545,0.5471,0.5435,0.5428,0.5428,0.5428,0.5428,0.5428,0.5428,0.5428,0.5369,0.5389,0.4776,0.3625,0.1811,0.0605,-0.0,-0.0,-0.0,-0.0,0.0,0.0,0.0,0.0,0.0,0.0,0.801,0.0,0.841,0.8717,0.9239,0.9653,0.9666,0.9679,0.9967,1.0815,1.1196,1.0966,0.9996,0.9168,0.8197,0.7283,0.6365,0.6226,0.7078,0.6369,0.6226,0.7007,0.6297,0.58,0.58,0.58,0.58,0.58,0.5945,0.6023,0.6023,0.6173,0.6247,0.6247,0.6247,0.6247,0.6247,0.6247,0.6251,0.6254,0.6254,0.6257,0.6338,0.6338,0.6338,0.6338,0.6338,0.6338,0.6338,0.6338,0.6338,0.6338,0.6338,0.6338,0.6338,0.6338,0.6338,0.6338,0.6338,0.6338,0.6338,0.6338,0.6338,0.6338,0.6338,0.6271,0.6281,0.6295,0.6315,0.6329,0.6329,0.4555,0.36,0.5683,0.4396,0.368,0.5855,0.6224,0.6146,0.5868,0.5894,0.5969,0.5817,0.5674,0.5589,0.5583,0.545,0.5428,0.5428,0.5428,0.5428,0.5428,0.5428,0.5428,0.5428,0.5428,0.5432,0.5379,0.3685,0.356,0.5209,0.1683,-0.0,-0.0,-0.0,-0.0,0.3851,0.0,0.0,0.0,0.0,0.0,0.0,0.0,0.7288,0.8023,0.847,0.8864,0.9285,0.9539,0.9766,1.0007,0.9773,0.9506,0.945,0.8891,0.8318,0.7912,0.7836,0.7849,0.8056,0.7845,0.7491,0.7149,0.6865,0.644,0.58,0.58,0.58,0.58,0.584,0.5864,0.5864,0.5908,0.5928,0.5928,0.5928,0.5928,0.5928,0.5928,0.5989,0.6095,0.6095,0.6159,0.6338,0.6338,0.6338,0.6338,0.6338,0.6338,0.6338,0.6338,0.6338,0.6338,0.6338,0.6338,0.6338,0.6338,0.6338,0.6338,0.6338,0.6338,0.6338,0.6338,0.6338,0.6264,0.6271,0.6278,0.6285,0.6315,0.6325,0.6332,0.626,0.3461,0.1019,0.1649,0.1254,0.1486,0.3604,0.4318,0.486,0.5819,0.5868,0.5813,0.5667,0.5613,0.5549,0.5437,0.5452,0.5428,0.5428,0.5428,0.5428,0.5428,0.5428,0.5428,0.5428,0.5369,0.5379,0.5389,0.4922,0.3636,0.1482,0.0472,-0.0,-0.0,-0.0,-0.0,0.0,0.0,0.0,0.0,0.0,0.0,0.5952,0.6253,0.6627,0.7395,0.7789,0.8136,0.8559,0.8938,0.9178,0.9299,0.9144,0.9063,0.9408,0.8874,0.842,0.8457,0.8261,0.8178,0.8195,0.7928,0.7455,0.6984,0.6579,0.6168,0.5686,0.562,0.562,0.562,0.5681,0.5715,0.5715,0.5772,0.58,0.58,0.58,0.58,0.58,0.58,0.585,0.5935,0.5935,0.5986,0.6071,0.6071,0.6146,0.6338,0.6338,0.6338,0.6338,0.6338,0.6338,0.6338,0.6338,0.6338,0.6338,0.6338,0.6338,0.6338,0.6338,0.6338,0.6338,0.6338,0.6338,0.6264,0.6274,0.564,0.4776,0.3849,0.5045,0.6332,0.6339,0.3589,0.0929,0.0157,0.1412,0.2971,0.3868,0.4493,0.5012,0.5649,0.5701,0.5661,0.5511,0.5494,0.546,0.5435,0.5428,0.5428,0.5428,0.5428,0.5428,0.5428,0.5428,0.5428,0.5428,0.5372,0.504,0.43,0.4995,0.3641,-0.0,-0.0,-0.0,-0.0,-0.0,-0.0,0.4937,0.4983,0.0,0.0,0.5862,0.0,0.6361,0.6341,0.6303,0.6814,0.7134,0.7466,0.7769,0.8076,0.8357,0.8617,0.8931,0.9272,0.9633,0.8955,0.8498,0.8847,0.8142,0.7731,0.8063,0.7366,0.685,0.6655,0.5825,0.5318,0.5335,0.5335,0.5411,0.5428,0.5494,0.5566,0.5566,0.5691,0.5752,0.5752,0.5752,0.5752,0.5752,0.5752,0.5762,0.5779,0.5779,0.5786,0.58,0.58,0.5962,0.621,0.621,0.621,0.621,0.621,0.621,0.621,0.621,0.621,0.621,0.621,0.621,0.621,0.621,0.621,0.621,0.621,0.621,0.6213,0.6227,0.4815,0.2868,0.0776,0.3193,0.5957,0.6197,0.4523,0.2572,0.093,0.3431,0.5835,0.5475,0.5722,0.5832,0.5501,0.551,0.5515,0.5446,0.5428,0.5428,0.5428,0.5428,0.5428,0.5428,0.5428,0.5428,0.5428,0.5428,0.5428,0.5428,0.5376,0.4634,0.3015,0.4164,0.322,-0.0,-0.0,-0.0,-0.0,-0.0,-0.0,0.5865,0.6054,0.632,0.6678,0.6557,0.0,0.6208,0.5996,0.5898,0.629,0.6411,0.6613,0.7101,0.7442,0.7708,0.7768,0.819,0.8811,0.9573,0.8955,0.8675,0.9454,0.8735,0.8272,0.8454,0.8334,0.7667,0.6393,0.5489,0.5053,0.5169,0.5176,0.5233,0.5425,0.5456,0.5473,0.5473,0.5433,0.5447,0.5447,0.5447,0.5447,0.5447,0.5447,0.5515,0.563,0.563,0.5694,0.58,0.58,0.5837,0.5891,0.5891,0.5891,0.5891,0.5891,0.5891,0.5891,0.5891,0.5891,0.5891,0.5891,0.5891,0.5891,0.5891,0.5891,0.5891,0.5891,0.5891,0.5898,0.6068,0.5772,0.4876,0.2726,0.2803,0.3843,0.5568,0.5542,0.5009,0.4438,0.3845,0.391,0.5371,0.5558,0.5527,0.5534,0.5484,0.5463,0.5432,0.5428,0.5428,0.5428,0.5428,0.5428,0.5428,0.5428,0.5428,0.5428,0.5428,0.5432,0.5376,0.5386,0.5259,0.4861,0.2369,0.0716,-0.0,-0.0,-0.0,-0.0,-0.0,-0.0,0.6294,0.6582,0.6814,0.6917,0.6887,0.0,0.0,0.6138,0.6059,0.65,0.6398,0.6371,0.6914,0.7141,0.7241,0.7241,0.7756,0.8303,0.8751,0.8664,0.8832,0.9389,0.8763,0.8224,0.7993,0.7591,0.6883,0.5631,0.5157,0.4952,0.502,0.5023,0.5094,0.5243,0.5247,0.5284,0.5428,0.5428,0.5428,0.5428,0.5428,0.5428,0.5428,0.5428,0.5403,0.5477,0.5477,0.5515,0.5583,0.5583,0.5583,0.5596,0.5742,0.58,0.58,0.58,0.58,0.58,0.58,0.58,0.58,0.58,0.58,0.58,0.58,0.58,0.58,0.58,0.58,0.5806,0.5888,0.5902,0.5541,0.4437,0.4217,0.4512,0.5548,0.5708,0.5651,0.5503,0.4725,0.4348,0.5348,0.551,0.55,0.5488,0.541,0.5428,0.5428,0.5428,0.5428,0.5428,0.5428,0.5428,0.5428,0.5428,0.5428,0.5428,0.5428,0.5432,0.5379,0.45,0.3606,0.2704,0.091,-0.0,-0.0,-0.0,-0.0,-0.0,-0.0,0.0796,0.6609,0.6888,0.7087,0.7294,0.7278,0.7161,0.0,0.0,0.0,0.678,0.6518,0.6337,0.0,0.0,0.6854,0.6854,0.7361,0.7689,0.7636,0.8078,0.8502,0.8784,0.8318,0.7756,0.6967,0.62,0.5518,0.4886,0.4779,0.4782,0.487,0.4874,0.4942,0.5084,0.5114,0.5189,0.5315,0.5415,0.5428,0.5428,0.5428,0.5428,0.5428,0.5428,0.5428,0.5428,0.5428,0.5428,0.5428,0.5428,0.5428,0.5452,0.5623,0.5718,0.5718,0.5718,0.5718,0.5718,0.5718,0.5718,0.5718,0.5718,0.5718,0.5718,0.5718,0.5718,0.5718,0.5718,0.5718,0.5718,0.5718,0.5657,0.5671,0.5671,0.5671,0.5671,0.5671,0.5567,0.5545,0.5545,0.5447,0.5403,0.5395,0.5483,0.5504,0.5449,0.5428,0.5428,0.5428,0.5428,0.5428,0.5428,0.5428,0.5428,0.5428,0.5428,0.5428,0.5428,0.5428,0.5432,0.5379,0.3349,0.1521,-0.0,-0.0,-0.0,-0.0,-0.0,-0.0,-0.0,-0.0,0.1615,0.7016,0.7238,0.7444,0.8285,0.8392,0.8072,0.7463,0.0,0.6794,0.6384,0.0,0.6216,0.0,0.0,0.0,0.629,0.6747,0.7034,0.678,0.6893,0.7111,0.7297,0.7389,0.6914,0.5633,0.4761,0.4334,0.4549,0.427,0.4297,0.4697,0.4718,0.4785,0.4938,0.5064,0.5138,0.5155,0.5291,0.5428,0.5428,0.5428,0.5428,0.5428,0.5428,0.5428,0.5428,0.5428,0.5428,0.5428,0.5428,0.5428,0.5432,0.5466,0.5476,0.5476,0.5476,0.5476,0.5476,0.5476,0.5476,0.5476,0.5476,0.5476,0.5476,0.5476,0.5476,0.5476,0.5476,0.5476,0.5476,0.5476,0.5413,0.5416,0.5416,0.5416,0.5416,0.5416,0.5399,0.5456,0.5456,0.5439,0.5432,0.5386,0.5389,0.5449,0.5428,0.5428,0.5428,0.5428,0.5428,0.5428,0.5428,0.5428,0.5428,0.5428,0.5428,0.5428,0.5428,0.5428,0.5432,0.5379,0.2142,0.0199,-0.0,-0.0,-0.0,-0.0,-0.0,-0.0,-0.0,-0.0,0.1641,0.6292,0.6555,0.6755,0.7043,0.7073,0.7002,0.693,0.6715,0.6622,0.6892,0.0,0.0,0.0,0.0,0.0,0.0,0.6398,0.642,0.6119,0.5984,0.611,0.6653,0.6178,0.5453,0.4507,0.4151,0.407,0.4195,0.409,0.4141,0.4419,0.4511,0.4629,0.4782,0.4843,0.4918,0.5006,0.5155,0.5226,0.5226,0.5318,0.5428,0.5428,0.5428,0.5428,0.5428,0.5428,0.5428,0.5428,0.5428,0.5428,0.5428,0.5428,0.5428,0.5428,0.5428,0.5428,0.5428,0.5428,0.5428,0.5428,0.5428,0.5428,0.5428,0.5428,0.5428,0.5428,0.5428,0.5428,0.5428,0.5428,0.5428,0.5428,0.5428,0.5428,0.5428,0.5428,0.5428,0.5428,0.5428,0.5428,0.5428,0.5428,0.5428,0.5428,0.5428,0.5428,0.5428,0.5428,0.5428,0.5428,0.5428,0.5428,0.5428,0.5428,0.5428,0.5428,0.5428,0.5369,0.5332,0.525,0.1829,-0.0,-0.0,-0.0,-0.0,-0.0,-0.0,-0.0,-0.0,-0.0,0.0672,0.5581,0.5854,0.6005,0.5997,0.5975,0.6048,0.6208,0.6146,0.6182,0.678,0.6721,0.0,0.0,0.0,0.6404,0.0,0.0,0.6082,0.5488,0.5181,0.5246,0.5899,0.5099,0.4351,0.3943,0.3801,0.3826,0.3948,0.3883,0.3906,0.418,0.4345,0.4473,0.4623,0.467,0.4745,0.4857,0.4999,0.5074,0.5074,0.5186,0.526,0.5298,0.5298,0.5321,0.5428,0.5428,0.5428,0.5428,0.5428,0.5428,0.5428,0.5428,0.5428,0.5428,0.5428,0.5428,0.5428,0.5428,0.5428,0.5428,0.5428,0.5428,0.5428,0.5428,0.5428,0.5428,0.5428,0.5428,0.5428,0.5428,0.5428,0.5428,0.5428,0.5428,0.5428,0.5428,0.5428,0.5428,0.5428,0.5428,0.5428,0.5428,0.5428,0.5428,0.5428,0.5428,0.5428,0.5428,0.5428,0.5428,0.5428,0.5428,0.5428,0.5428,0.5428,0.5428,0.5428,0.5328,0.526,0.5088,0.2677,0.093,-0.0,0.0411,0.0405,-0.0,-0.0,0.0448,0.1233,0.0392,0.0224,0.5311,0.5525,0.5605,0.5933,0.5975,0.5864,0.5463,0.5435,0.548,0.5402,0.5919,0.6435,0.6594,0.6805,0.0,0.0,0.0,0.0,0.0,0.4415,0.4411,0.4906,0.4408,0.4077,0.4172,0.3563,0.3331,0.3768,0.349,0.3584,0.4164,0.42,0.4321,0.4522,0.4613,0.4694,0.4697,0.485,0.4925,0.4925,0.4931,0.5006,0.5138,0.5138,0.522,0.5428,0.5428,0.5428,0.5428,0.5428,0.5428,0.5428,0.5428,0.5428,0.5428,0.5428,0.5428,0.5428,0.5428,0.5428,0.5428,0.5428,0.5428,0.5428,0.5428,0.5428,0.5428,0.5428,0.5428,0.5428,0.5428,0.5428,0.5428,0.5428,0.5428,0.5428,0.5428,0.5428,0.5428,0.5428,0.5428,0.5428,0.5428,0.5428,0.5428,0.5428,0.5428,0.5428,0.5428,0.5428,0.5428,0.5428,0.5428,0.5428,0.5428,0.5428,0.5428,0.5428,0.522,0.5078,0.5085,0.4827,0.3155,0.0059,0.1407,0.1444,-0.0,-0.0,0.151,0.4284,0.1345,0.0783,0.4787,0.4842,0.4845,0.4836,0.4742,0.4694,0.4864,0.4951,0.5034,0.5266,0.5574,0.5773,0.5754,0.5964,0.0,0.0,0.0,0.0,0.0,0.386,0.3598,0.3585,0.0,0.0,0.3333,0.3191,0.3185,0.3337,0.3306,0.3524,0.402,0.414,0.4314,0.4512,0.457,0.4594,0.4594,0.4691,0.4769,0.4769,0.487,0.4945,0.4992,0.4992,0.502,0.5074,0.5169,0.5209,0.5216,0.5318,0.5428,0.5428,0.5428,0.5428,0.5428,0.5428,0.5428,0.5428,0.5428,0.5428,0.5428,0.5428,0.5428,0.5428,0.5428,0.5428,0.5428,0.5428,0.5428,0.5428,0.5428,0.5432,0.5372,0.5372,0.5379,0.5382,0.5376,0.5379,0.5379,0.5432,0.5369,0.5369,0.5428,0.5428,0.5428,0.5428,0.5428,0.5428,0.5428,0.5428,0.5428,0.5428,0.5428,0.5428,0.5428,0.5428,0.5321,0.5226,0.5165,0.5043,0.4853,0.4806,0.4241,0.3019,0.1533,0.147,0.2986,0.0953,0.157,0.4468,0.3439,0.2695,0.4519,0.4519,0.4429,0.4231,0.4123,0.4146,0.431,0.4396,0.4534,0.4709,0.4997,0.5232,0.5292,0.5479,0.5542,0.0,0.0,0.0,0.0,0.3276,0.2936,0.0,0.0,0.0,0.0,0.2896,0.2837,0.3035,0.3098,0.3346,0.3839,0.4006,0.4236,0.4382,0.4491,0.4519,0.4519,0.4562,0.4609,0.4609,0.4711,0.4785,0.484,0.484,0.4867,0.4925,0.5016,0.5053,0.5067,0.5216,0.5281,0.5284,0.5342,0.5428,0.5428,0.5428,0.5432,0.5432,0.5428,0.5432,0.5432,0.5428,0.5428,0.5428,0.5428,0.5428,0.5428,0.5428,0.5428,0.5428,0.5428,0.5369,0.5379,0.5379,0.4906,0.4436,0.4428,0.4979,0.5186,0.4556,0.4967,0.5376,0.5369,0.5432,0.5428,0.5428,0.5428,0.5428,0.5428,0.5428,0.5428,0.5428,0.5428,0.5428,0.5432,0.491,0.4779,0.5088,0.504,0.4891,0.4697,0.4704,0.4639,0.4497,0.2569,0.2014,0.2871,0.2021,0.2076,0.2925,0.4011,0.3772]},{"header":{"parameterUnit":"m.s-1","parameterCategory":1,"la1":30.6,"la2":29.2853,"lo1":-89.7004,"lo2":-87.6739,"dy":0.0162,"dx":0.0183,"nx":112,"ny":82,"refTime":"2024-07-30T06:00:00:Z","depth":0,"parameterNumber":3,"parameterNumberName":"V-component_of_WINDS"},"data":[0.0,0.0,0.0,0.0,0.0,0.0,0.0,0.0,0.0,0.0,0.0,0.0,0.0,0.0,0.0,0.0,0.0,0.0,0.0,0.0,0.0,0.0,0.0,0.0,0.0,0.0,0.0,0.0,0.0,0.0,0.0,0.0,0.0,0.0,0.0,0.0,0.0,0.0,0.0,0.0,0.0,0.0,0.0,0.0,0.0,0.0,0.0,0.0,0.0,0.0,0.0,0.0,0.0,0.0,0.0,0.0,0.0,0.0,0.0,0.0,0.0,0.0,0.0,0.0,0.0,0.0,0.0,0.0,0.0,0.0,0.0,0.0,0.0,0.0,0.0,0.0,0.0,0.0,0.0,0.0,0.0,0.0,0.0,0.0,0.0,0.0,0.0,0.0,0.0,0.0,-1.625,-1.8477,-2.2188,-2.4516,-2.4513,-2.4283,-2.2066,-1.7201,0.0,0.0,0.0,0.0,0.0,0.0,0.0,0.0,0.0,0.0,0.0,0.0,0.0,0.0,0.0,0.0,0.0,0.0,0.0,0.0,0.0,0.0,0.0,0.0,0.0,0.0,0.0,0.0,0.0,0.0,0.0,0.0,0.0,0.0,0.0,0.0,0.0,0.0,0.0,0.0,0.0,0.0,0.0,0.0,0.0,0.0,0.0,0.0,0.0,0.0,0.0,0.0,0.0,0.0,0.0,0.0,0.0,0.0,0.0,0.0,0.0,0.0,0.0,0.0,0.0,0.0,0.0,0.0,0.0,0.0,0.0,0.0,0.0,0.0,0.0,0.0,0.0,0.0,0.0,0.0,0.0,0.0,0.0,0.0,0.0,0.0,0.0,0.0,0.0,0.0,0.0,0.0,0.0,0.0,0.0,0.0,0.0,0.0,0.0,0.0,0.0,0.0,0.0,0.0,-1.7168,-2.1816,-2.4218,-2.5485,-2.5499,-2.4187,-2.1775,-1.8033,0.0,0.0,0.0,0.0,0.0,0.0,0.0,0.0,0.0,0.0,0.0,0.0,0.0,0.0,0.0,0.0,0.0,0.0,0.0,0.0,0.0,0.0,0.0,0.0,0.0,0.0,0.0,0.0,0.0,0.0,0.0,0.0,0.0,0.0,0.0,0.0,0.0,0.0,0.0,0.0,0.0,0.0,0.0,0.0,0.0,0.0,0.0,0.0,0.0,0.0,0.0,0.0,0.0,0.0,0.0,0.0,0.0,0.0,0.0,0.0,0.0,0.0,0.0,0.0,0.0,0.0,0.0,0.0,0.0,0.0,0.0,0.0,0.0,0.0,0.0,0.0,0.0,0.0,0.0,0.0,0.0,0.0,0.0,0.0,0.0,0.0,0.0,0.0,0.0,0.0,0.0,0.0,0.0,0.0,0.0,0.0,0.0,0.0,0.0,0.0,0.0,0.0,0.0,-1.6504,-1.8945,-2.2695,-2.4668,-2.5703,-2.5703,-2.4166,-2.1706,-1.8223,-1.6736,0.0,0.0,0.0,0.0,0.0,0.0,0.0,0.0,0.0,0.0,0.0,0.0,0.0,0.0,0.0,0.0,0.0,0.0,0.0,0.0,0.0,0.0,0.0,0.0,0.0,0.0,0.0,0.0,0.0,0.0,0.0,0.0,0.0,0.0,0.0,0.0,0.0,0.0,0.0,0.0,0.0,0.0,0.0,0.0,0.0,0.0,0.0,0.0,0.0,0.0,0.0,0.0,0.0,0.0,0.0,0.0,0.0,0.0,0.0,0.0,0.0,0.0,0.0,0.0,0.0,0.0,0.0,0.0,0.0,0.0,0.0,0.0,0.0,0.0,0.0,0.0,0.0,0.0,0.0,0.0,0.0,0.0,0.0,0.0,0.0,0.0,0.0,0.0,0.0,0.0,0.0,0.0,0.0,0.0,0.0,0.0,0.0,0.0,0.0,0.0,0.0,0.0,-1.8848,-2.0723,-2.2891,-2.4668,-2.5703,-2.5703,-2.3789,-2.1263,-1.8201,-1.5977,0.0,0.0,0.0,0.0,0.0,0.0,0.0,0.0,0.0,0.0,0.0,0.0,0.0,0.0,0.0,0.0,0.0,0.0,0.0,0.0,0.0,0.0,0.0,0.0,0.0,0.0,0.0,0.0,0.0,0.0,0.0,0.0,0.0,0.0,0.0,0.0,0.0,0.0,0.0,0.0,0.0,0.0,0.0,0.0,0.0,0.0,0.0,0.0,0.0,0.0,0.0,0.0,0.0,0.0,0.0,0.0,0.0,0.0,0.0,0.0,0.0,0.0,0.0,0.0,0.0,0.0,0.0,0.0,0.0,0.0,0.0,0.0,0.0,0.0,0.0,0.0,0.0,0.0,0.0,0.0,0.0,0.0,0.0,0.0,0.0,0.0,0.0,0.0,0.0,0.0,0.0,0.0,0.0,0.0,0.0,0.0,0.0,0.0,0.0,0.0,0.0,0.0,-1.9121,-2.2031,-2.3086,-2.4707,-2.5703,-2.5703,-2.2676,-1.9993,-1.8123,-1.4838,0.0,0.0,0.0,0.0,0.0,0.0,0.0,0.0,0.0,0.0,0.0,0.0,0.0,0.0,0.0,0.0,0.0,0.0,0.0,0.0,0.0,0.0,0.0,0.0,0.0,0.0,0.0,0.0,0.0,0.0,0.0,0.0,0.0,0.0,0.0,0.0,0.0,0.0,0.0,0.0,0.0,0.0,0.0,0.0,0.0,0.0,0.0,0.0,0.0,0.0,0.0,0.0,0.0,0.0,0.0,0.0,0.0,0.0,0.0,0.0,0.0,0.0,0.0,0.0,0.0,0.0,0.0,0.0,0.0,0.0,0.0,0.0,0.0,0.0,0.0,0.0,0.0,0.0,0.0,0.0,0.0,0.0,0.0,0.0,0.0,0.0,0.0,0.0,0.0,0.0,0.0,0.0,0.0,0.0,0.0,0.0,0.0,0.0,0.0,0.0,0.0,0.0,-1.8648,-2.1543,-2.2988,-2.4668,-2.5488,-2.4941,-2.3203,-2.0719,-1.7343,0.0,0.0,0.0,0.0,0.0,0.0,0.0,0.0,0.0,0.0,0.0,0.0,0.0,0.0,0.0,0.0,0.0,0.0,0.0,0.0,0.0,0.0,0.0,0.0,0.0,0.0,0.0,0.0,0.0,0.0,0.0,0.0,0.0,0.0,0.0,0.0,0.0,0.0,0.0,0.0,0.0,0.0,0.0,0.0,0.0,0.0,0.0,0.0,0.0,0.0,0.0,0.0,0.0,0.0,0.0,0.0,0.0,0.0,0.0,0.0,0.0,0.0,0.0,0.0,0.0,0.0,0.0,0.0,0.0,0.0,0.0,0.0,0.0,0.0,0.0,0.0,0.0,0.0,0.0,0.0,0.0,0.0,0.0,0.0,0.0,0.0,0.0,0.0,0.0,0.0,0.0,0.0,0.0,0.0,0.0,0.0,0.0,0.0,0.0,0.0,0.0,0.0,-1.5147,-1.8809,-2.1761,-2.2968,-2.4668,-2.5352,-2.4473,-2.2852,-2.039,-1.6845,0.0,0.0,0.0,0.0,0.0,0.0,0.0,0.0,0.0,0.0,0.0,0.0,0.0,0.0,0.0,0.0,0.0,0.0,0.0,0.0,0.0,0.0,0.0,0.0,0.0,0.0,0.0,0.0,0.0,0.0,0.0,0.0,0.0,0.0,0.0,0.0,0.0,0.0,0.0,0.0,0.0,0.0,0.0,0.0,0.0,0.0,0.0,0.0,0.0,0.0,0.0,0.0,0.0,0.0,0.0,0.0,0.0,0.0,0.0,0.0,0.0,0.0,0.0,0.0,0.0,0.0,0.0,0.0,0.0,0.0,0.0,0.0,0.0,0.0,0.0,0.0,0.0,0.0,0.0,0.0,0.0,0.0,0.0,0.0,0.0,0.0,0.0,0.0,0.0,0.0,0.0,0.0,0.0,0.0,0.0,0.0,0.0,0.0,0.0,0.0,0.0,0.0,-1.53,-1.9815,-2.3029,-2.3104,-2.4668,-2.5332,-2.4453,-2.1289,-1.8574,0.0,0.0,0.0,0.0,0.0,0.0,0.0,0.0,0.0,0.0,0.0,0.0,0.0,0.0,0.0,0.0,0.0,0.0,0.0,0.0,0.0,0.0,0.0,0.0,0.0,0.0,0.0,0.0,0.0,0.0,0.0,0.0,0.0,0.0,0.0,0.0,0.0,0.0,0.0,0.0,0.0,0.0,0.0,0.0,0.0,0.0,0.0,0.0,0.0,0.0,0.0,0.0,0.0,0.0,0.0,0.0,0.0,0.0,0.0,0.0,0.0,0.0,0.0,0.0,0.0,0.0,0.0,0.0,0.0,0.0,0.0,0.0,0.0,0.0,0.0,0.0,0.0,0.0,0.0,0.0,0.0,0.0,0.0,0.0,0.0,0.0,0.0,0.0,0.0,0.0,0.0,0.0,0.0,0.0,0.0,0.0,0.0,0.0,0.0,0.0,0.0,0.0,0.0,-1.6068,-2.0195,-2.3302,-2.3881,-2.4995,-2.5117,-2.3672,-2.2598,-2.0215,-1.6055,0.0,0.0,0.0,0.0,0.0,0.0,0.0,0.0,0.0,0.0,0.0,0.0,0.0,0.0,0.0,0.0,0.0,0.0,0.0,0.0,0.0,0.0,0.0,0.0,0.0,0.0,0.0,0.0,0.0,0.0,0.0,0.0,0.0,0.0,0.0,0.0,0.0,0.0,0.0,0.0,0.0,0.0,0.0,0.0,0.0,0.0,0.0,0.0,0.0,0.0,0.0,0.0,0.0,0.0,0.0,0.0,0.0,0.0,0.0,0.0,0.0,0.0,0.0,0.0,0.0,0.0,0.0,0.0,0.0,0.0,0.0,0.0,0.0,0.0,0.0,0.0,0.0,0.0,0.0,0.0,0.0,0.0,0.0,0.0,0.0,0.0,0.0,0.0,0.0,0.0,0.0,0.0,0.0,0.0,0.0,0.0,0.0,0.0,0.0,0.0,0.0,0.0,-1.6424,-2.0371,-2.3415,-2.4255,-2.5156,-2.5019,-2.3301,-2.2832,-2.0703,-1.6191,0.0,0.0,0.0,0.0,0.0,0.0,0.0,0.0,0.0,0.0,0.0,0.0,0.0,0.0,0.0,0.0,0.0,0.0,0.0,0.0,0.0,0.0,0.0,0.0,0.0,0.0,0.0,0.0,0.0,0.0,0.0,0.0,0.0,0.0,0.0,0.0,0.0,0.0,0.0,0.0,0.0,0.0,0.0,0.0,0.0,0.0,0.0,0.0,0.0,0.0,0.0,0.0,0.0,0.0,0.0,0.0,0.0,0.0,0.0,0.0,0.0,0.0,0.0,0.0,0.0,0.0,0.0,0.0,0.0,0.0,0.0,0.0,0.0,0.0,0.0,0.0,0.0,0.0,0.0,0.0,0.0,0.0,0.0,0.0,0.0,0.0,0.0,0.0,0.0,0.0,0.0,0.0,0.0,0.0,0.0,0.0,0.0,0.0,0.0,0.0,0.0,0.0,-1.6584,-2.0457,-2.3473,-2.4416,-2.521,-2.5039,-2.3359,-2.248,-2.0566,-1.7168,0.0,0.0,0.0,0.0,0.0,0.0,0.0,0.0,0.0,0.0,0.0,0.0,0.0,0.0,0.0,0.0,0.0,0.0,0.0,0.0,0.0,0.0,0.0,0.0,0.0,0.0,0.0,0.0,0.0,0.0,0.0,0.0,0.0,0.0,0.0,0.0,0.0,0.0,0.0,0.0,0.0,0.0,0.0,0.0,0.0,0.0,0.0,0.0,0.0,0.0,0.0,0.0,0.0,0.0,0.0,0.0,0.0,0.0,0.0,0.0,-1.8956,-1.7227,0.0,0.0,0.0,0.0,0.0,0.0,0.0,0.0,0.0,0.0,0.0,0.0,0.0,0.0,0.0,0.0,0.0,0.0,0.0,0.0,0.0,0.0,0.0,0.0,0.0,0.0,0.0,0.0,0.0,0.0,0.0,0.0,0.0,0.0,0.0,0.0,0.0,0.0,0.0,0.0,-1.7371,-2.0841,-2.3731,-2.5185,-2.5566,-2.5273,-2.4219,-2.334,-2.168,-1.8926,-1.7109,0.0,0.0,0.0,0.0,0.0,0.0,0.0,0.0,0.0,0.0,0.0,0.0,0.0,0.0,0.0,0.0,0.0,0.0,0.0,0.0,0.0,0.0,0.0,0.0,0.0,0.0,0.0,0.0,0.0,0.0,0.0,0.0,0.0,0.0,0.0,0.0,0.0,0.0,0.0,0.0,0.0,0.0,0.0,0.0,0.0,0.0,0.0,0.0,0.0,0.0,0.0,0.0,0.0,0.0,0.0,0.0,0.0,0.0,0.0,-2.2932,-2.1035,0.0,0.0,0.0,0.0,0.0,0.0,0.0,0.0,0.0,0.0,0.0,0.0,0.0,0.0,0.0,0.0,0.0,0.0,0.0,0.0,0.0,0.0,0.0,0.0,0.0,0.0,0.0,0.0,0.0,0.0,0.0,0.0,0.0,0.0,0.0,0.0,0.0,0.0,0.0,0.0,-1.8267,-2.1588,-2.4251,-2.5513,-2.5685,-2.5352,-2.4473,-2.3984,-2.2637,-2.0098,-1.8672,0.0,0.0,0.0,0.0,0.0,0.0,0.0,0.0,0.0,0.0,0.0,0.0,0.0,0.0,0.0,0.0,0.0,0.0,0.0,0.0,0.0,0.0,0.0,0.0,0.0,0.0,0.0,0.0,0.0,0.0,0.0,0.0,0.0,0.0,0.0,0.0,0.0,0.0,0.0,0.0,0.0,0.0,0.0,0.0,0.0,0.0,0.0,0.0,0.0,0.0,0.0,0.0,0.0,-2.8086,-2.8945,-2.9668,-3.0332,-3.0654,-3.0568,-2.7667,-2.5991,-2.5234,-2.4258,0.0,0.0,0.0,0.0,0.0,0.0,0.0,0.0,0.0,0.0,0.0,0.0,0.0,0.0,0.0,0.0,0.0,0.0,0.0,0.0,0.0,0.0,-2.1873,-2.1936,-2.2449,-2.2316,-2.0092,0.0,0.0,0.0,0.0,0.0,0.0,0.0,0.0,0.0,0.0,0.0,-1.9224,-2.2339,-2.4727,-2.5605,-2.5703,-2.541,-2.4687,-2.4492,-2.3496,-2.1406,-2.0176,-1.8496,0.0,0.0,0.0,0.0,0.0,0.0,0.0,0.0,0.0,0.0,0.0,0.0,0.0,0.0,0.0,0.0,0.0,0.0,0.0,0.0,0.0,0.0,0.0,0.0,0.0,0.0,0.0,0.0,0.0,0.0,0.0,0.0,-1.5253,-1.623,0.0,0.0,0.0,0.0,0.0,0.0,0.0,0.0,0.0,0.0,0.0,0.0,0.0,-2.6873,-2.8574,-3.0937,-3.2207,-3.2402,-3.4043,-3.4863,-3.498,-3.5098,-3.5155,-3.513,-3.4659,0.0,-2.8789,-2.7168,0.0,0.0,0.0,0.0,0.0,0.0,0.0,0.0,0.0,0.0,0.0,0.0,0.0,0.0,0.0,0.0,0.0,0.0,0.0,0.0,0.0,0.0,-2.7265,-2.7285,-2.7363,-2.7338,-2.6918,-2.2662,-1.8846,-1.8554,-1.7234,-1.608,0.0,0.0,0.0,0.0,0.0,0.0,-2.0204,-2.2704,-2.4727,-2.5605,-2.5703,-2.5644,-2.5547,-2.4844,-2.4258,-2.3926,-2.1719,-1.9922,-1.8828,-1.6386,0.0,0.0,0.0,0.0,0.0,0.0,0.0,0.0,0.0,0.0,0.0,0.0,0.0,0.0,0.0,0.0,0.0,0.0,0.0,0.0,0.0,0.0,0.0,0.0,0.0,0.0,0.0,0.0,0.0,-1.5957,-1.8105,-1.9453,-2.0023,-1.9763,0.0,0.0,0.0,0.0,0.0,0.0,0.0,0.0,0.0,-2.8574,-3.0357,-3.1656,-3.2393,-3.4417,-3.5429,-3.5431,-3.6684,-3.7301,-3.7344,-3.7344,-3.7383,-3.7461,-3.7455,-3.6113,-3.375,-3.1523,-2.957,-2.7871,0.0,0.0,0.0,0.0,-2.6026,-2.6215,-2.7518,-2.7423,-2.6583,-2.5587,0.0,0.0,0.0,0.0,0.0,0.0,0.0,-2.4679,-2.5156,-2.6797,-2.8301,-2.8301,-2.8301,-2.8281,-2.8211,-2.6093,-2.3774,-2.2275,-2.0598,-1.8969,-1.7523,-1.6983,0.0,0.0,0.0,-2.1005,-2.1857,-2.3829,-2.5273,-2.5664,-2.5703,-2.5703,-2.5703,-2.5352,-2.4922,-2.4434,-2.2891,-2.1406,-2.0098,-1.7988,-1.5879,0.0,0.0,0.0,0.0,0.0,0.0,0.0,0.0,0.0,0.0,0.0,0.0,0.0,0.0,0.0,0.0,0.0,0.0,0.0,0.0,0.0,0.0,0.0,0.0,0.0,0.0,0.0,0.0,-1.8379,-2.0859,-2.2363,-2.345,-2.3398,0.0,0.0,0.0,0.0,0.0,0.0,-2.7581,-3.0292,-3.203,-3.2467,-3.4269,-3.5346,-3.554,-3.7194,-3.8001,-3.7976,-3.9083,-3.9657,-3.9728,-3.9723,-3.9785,-3.9902,-3.9902,-3.9414,-3.8398,-3.5566,-3.3379,-3.1738,-3.1055,-3.025,-2.9564,-3.0417,-3.0598,-3.0635,-3.2092,-3.1935,-3.0895,-2.9788,-2.8745,-2.7607,-2.5936,0.0,0.0,0.0,0.0,-2.7519,-2.8164,-2.8965,-2.9551,-2.9355,-2.9297,-2.9219,-2.8945,-2.8716,-2.7908,-2.5691,-2.4039,-2.2334,-2.0212,-1.969,0.0,-1.9259,-2.1084,-2.2705,-2.3357,-2.4752,-2.5703,-2.5703,-2.5703,-2.5703,-2.5703,-2.5703,-2.543,-2.4766,-2.3711,-2.2559,-2.1328,-1.9375,-1.7617,-1.6094,0.0,0.0,0.0,0.0,0.0,0.0,0.0,0.0,0.0,0.0,0.0,0.0,0.0,0.0,0.0,0.0,0.0,0.0,0.0,0.0,0.0,0.0,0.0,0.0,0.0,0.0,0.0,0.0,0.0,-2.418,-2.5725,0.0,0.0,0.0,0.0,-2.6477,-2.8841,-3.1053,-3.2829,-3.3818,-3.5079,-3.6733,-3.6724,-3.7153,-3.8097,-3.9702,-4.055,-4.0614,-4.2332,-4.3223,-4.3352,-4.3348,-4.3379,-4.3437,-4.3437,-4.2949,-4.1875,-3.8496,-3.6074,-3.4492,-3.4394,-3.3847,-3.3238,-3.4034,-3.3852,-3.332,-3.418,-3.3448,-3.2228,-3.2841,-3.1968,-3.0839,-3.1523,-3.0586,0.0,0.0,-3.1191,-3.1875,-3.1934,-3.2539,-3.2949,-3.2187,-3.1992,-3.1777,-3.0937,-3.0117,-2.9212,-2.813,-2.7167,-2.6247,-2.527,0.0,-2.3779,-2.296,-2.3641,-2.4297,-2.4336,-2.5137,-2.5703,-2.5703,-2.5703,-2.5703,-2.5703,-2.5703,-2.5684,-2.5644,-2.4043,-2.3086,-2.3066,-2.0605,-1.8809,-1.7891,-1.6122,0.0,0.0,0.0,0.0,0.0,0.0,0.0,0.0,0.0,0.0,0.0,0.0,0.0,0.0,0.0,0.0,0.0,0.0,0.0,0.0,0.0,0.0,0.0,0.0,0.0,0.0,0.0,0.0,-2.7462,-2.9107,0.0,-2.918,-2.9627,-3.0432,-3.1546,-3.2987,-3.4601,-3.6423,-3.7808,-3.9108,-4.0287,-4.0784,-4.117,-4.144,-4.2033,-4.2299,-4.2283,-4.2912,-4.3294,-4.3477,-4.3458,-4.3551,-4.3691,-4.3691,-4.3516,-4.3144,-4.1914,-4.0098,-3.7988,-3.7402,-3.6992,-3.6777,-3.707,-3.6981,-3.6797,-3.707,-3.6806,-3.6181,-3.5318,-3.4261,-3.3301,-3.3047,-3.2539,-3.2109,-3.2422,-3.2734,-3.2969,-3.2969,-3.3184,-3.332,-3.3047,-3.2969,-3.2754,-3.1914,-3.1484,-3.0996,-3.0071,-2.876,-2.7489,-2.663,-2.6718,-2.6415,-2.4985,-2.5521,-2.5879,-2.5312,-2.5508,-2.5703,-2.5703,-2.5703,-2.5703,-2.5703,-2.5703,-2.5469,-2.4902,-2.375,-2.2871,-2.2383,-2.0937,-1.9453,-1.8027,-1.6843,-1.4942,0.0,0.0,0.0,0.0,0.0,0.0,0.0,0.0,0.0,0.0,0.0,0.0,0.0,0.0,0.0,0.0,0.0,0.0,0.0,0.0,0.0,0.0,0.0,0.0,0.0,0.0,-2.8767,-3.018,-3.2009,-3.3033,-3.273,-3.3121,-3.3987,-3.543,-3.665,-3.7964,-3.9475,-4.0862,-4.188,-4.2453,-4.3008,-4.3258,-4.3165,-4.3434,-4.3547,-4.3508,-4.3855,-4.4085,-4.4237,-4.4292,-4.4416,-4.457,-4.457,-4.4414,-4.4141,-4.4141,-4.2956,-4.1056,-4.0209,-3.9883,-3.9844,-3.957,-3.9297,-3.9004,-3.8691,-3.8594,-3.8418,-3.7246,-3.6484,-3.5918,-3.5332,-3.4941,-3.4726,-3.4726,-3.4492,-3.4277,-3.4277,-3.4277,-3.4199,-3.3906,-3.3848,-3.3613,-3.2773,-3.2598,-3.2344,-3.1504,-3.0176,-2.8906,-2.8027,-2.8359,-2.8242,-2.6797,-2.707,-2.7129,-2.625,-2.6133,-2.6035,-2.5723,-2.5703,-2.5703,-2.5703,-2.5703,-2.5449,-2.4883,-2.373,-2.2852,-2.2324,-2.0918,-1.9629,-1.8457,-1.7296,-1.5703,-1.3668,0.0,0.0,0.0,0.0,0.0,0.0,0.0,0.0,0.0,0.0,0.0,0.0,0.0,0.0,0.0,0.0,0.0,0.0,0.0,0.0,0.0,0.0,0.0,-2.4648,-2.8219,-3.1207,-3.2237,-3.4329,-3.5412,-3.4755,-3.5984,-3.7199,-3.8084,-3.9792,-4.1155,-4.2036,-4.2813,-4.3242,-4.3261,-4.322,-4.3181,-4.3181,-4.3951,-4.4335,-4.4355,-4.5334,-4.5834,-4.589,-4.6025,-4.6169,-4.6289,-4.6308,-4.582,-4.5039,-4.5039,-4.4506,-4.3577,-4.2763,-4.2441,-4.2344,-4.1523,-4.0684,-3.9824,-3.8965,-3.8672,-3.8672,-3.8652,-3.8633,-3.8633,-3.8613,-3.8008,-3.7344,-3.7344,-3.6719,-3.6035,-3.6035,-3.6016,-3.5781,-3.4941,-3.4746,-3.4492,-3.3633,-3.3437,-3.3203,-3.2383,-3.1543,-3.0664,-2.9785,-2.9648,-2.9336,-2.8476,-2.834,0.0,-2.7148,-2.7012,-2.668,-2.582,-2.5723,-2.5703,-2.5703,-2.5703,-2.5684,-2.5664,-2.4043,-2.3105,-2.3105,-2.0703,-1.9375,-1.9336,-1.763,-1.6319,-1.5435,0.0,0.0,0.0,0.0,0.0,0.0,0.0,0.0,0.0,0.0,0.0,0.0,0.0,0.0,0.0,0.0,0.0,0.0,0.0,0.0,0.0,-2.7656,-3.0059,-3.0059,-3.2109,-3.4146,-3.5637,-3.6851,-3.7943,-3.8892,-3.9277,-4.0085,-4.1585,-4.2162,-4.2797,-4.3621,-4.3874,-4.4297,-4.4913,-4.4913,-4.4913,-4.4913,-4.5124,-4.524,-4.524,-4.5509,-4.5746,-4.5906,-4.5944,-4.6038,-4.6169,-4.6257,-4.6041,-4.5657,-4.5761,-4.5588,-4.5142,-4.3847,-4.3301,-4.3164,-4.2363,-4.1543,-4.0801,-4.0566,-4.0488,-4.0371,-3.9746,-3.9531,-3.9414,-3.8789,-3.8437,-3.8242,-3.8242,-3.7617,-3.6934,-3.6934,-3.6465,-3.5937,-3.5703,-3.5644,-3.5391,-3.4531,-3.4336,-3.4082,-3.3242,-3.2402,-3.1562,-3.0684,-3.0547,-3.0254,-2.9375,-2.9238,-2.8926,-2.8047,-2.7383,-2.6914,-2.668,-2.6074,-2.5703,-2.5703,-2.5703,-2.543,-2.4805,-2.3769,-2.3144,-2.3105,-2.1875,-2.0898,-2.0254,-1.8529,-1.7201,0.0,0.0,0.0,0.0,0.0,0.0,0.0,0.0,0.0,0.0,0.0,0.0,0.0,0.0,0.0,0.0,0.0,0.0,0.0,0.0,0.0,0.0,-3.1328,-3.3769,-3.5215,-3.5898,-3.6754,-3.8094,-3.9197,-4.0214,-4.1135,-4.145,-4.2143,-4.3508,-4.3605,-4.397,-4.4797,-4.4836,-4.5066,-4.5566,-4.5586,-4.5586,-4.5586,-4.5643,-4.568,-4.568,-4.5776,-4.587,-4.5983,-4.5983,-4.6018,-4.61,-4.6124,-4.6029,-4.59,-4.5974,-4.5943,-4.5743,0.0,0.0,0.0,0.0,-4.2422,-4.1699,-4.1699,-4.1484,-4.1113,-4.0605,-4.0449,-4.0351,-3.9844,-3.9434,-3.9141,-3.9141,-3.8516,-3.7754,-3.7383,-3.6914,-3.6445,-3.6094,-3.5996,-3.5859,-3.5351,-3.5234,-3.498,-3.4101,-3.3262,0.0,-3.1582,-3.1133,-3.0723,-3.0215,-3.0137,-2.9824,-2.8965,-2.8086,-2.7402,-2.7031,-2.6211,-2.5703,-2.5703,-2.5703,0.0,0.0,0.0,-2.3379,-2.2637,-2.2148,0.0,0.0,0.0,0.0,0.0,-1.8896,0.0,0.0,-1.6419,-1.6349,0.0,0.0,0.0,0.0,0.0,0.0,0.0,0.0,0.0,0.0,0.0,0.0,0.0,0.0,0.0,0.0,-3.4589,-3.6406,-3.9609,-3.9352,-3.9121,-3.9894,-4.126,-4.2164,-4.2274,-4.2854,-4.3566,-4.4393,-4.4451,-4.4778,-4.5547,-4.5605,0.0,0.0,0.0,-4.5624,-4.5624,-4.5757,-4.5813,-4.5808,-4.5982,-4.6078,-4.6078,-4.6078,-4.6061,-4.6065,-4.595,-4.5887,-4.5881,-4.5866,-4.5853,-4.5757,-4.5156,-4.488,-4.4746,-4.4082,-4.3281,-4.2539,-4.2422,0.0,0.0,-4.123,-4.1191,-4.1191,-4.1191,-4.0664,-4.0059,-4.0059,-3.9414,-3.8574,-3.7793,-3.7441,-3.7109,-3.6328,-3.6074,-3.5996,-3.5996,-3.5996,-3.5762,-3.5,-3.4141,-3.3281,-3.248,-3.1543,-3.0898,-3.0898,-3.0898,-3.0625,-2.9844,-2.8984,-2.8105,-2.7246,-2.6367,0.0,-2.5703,-2.5703,-2.5703,-2.5703,-2.4961,-2.3848,-2.2246,-2.2285,-2.2285,-2.2187,-2.2187,-2.2519,-2.3184,-2.3144,-2.3113,-2.3057,-1.9072,-1.844,0.0,0.0,0.0,0.0,0.0,0.0,0.0,0.0,0.0,0.0,0.0,0.0,0.0,0.0,0.0,-3.504,-3.737,-3.9375,-4.0742,-4.1299,-4.162,-4.1769,-4.2489,-4.325,-4.3953,-4.4066,-4.4412,-4.5278,-4.5336,-4.5413,-4.5586,-4.5699,-4.5757,-4.5757,-4.5815,-4.5834,-4.5834,-4.5873,-4.5854,-4.579,-4.5829,0.0,-4.5848,-4.5848,-4.5868,-4.5853,-4.5892,-4.5808,-4.568,-4.5772,-4.5834,-4.5868,-4.5731,-4.5384,-4.4941,-4.4805,-4.4199,-4.3359,-4.2637,-4.2305,-4.2051,-4.1406,-4.1191,-4.1191,-4.1191,-4.1074,0.0,-4.0957,-4.0312,-3.9609,-3.9434,-3.8359,-3.7266,-3.709,-3.6504,-3.5996,-3.5996,-3.5996,-3.5957,-3.5781,-3.5039,-3.418,-3.332,-3.1914,-3.0898,-3.0898,-3.0898,-3.084,-3.0664,-2.9883,-2.9004,-2.8144,-2.7266,-2.6465,-2.5762,-2.5703,-2.5703,-2.5703,-2.5547,-2.498,-2.3965,-2.459,-2.4629,-2.3926,-2.3926,-2.3652,-2.3125,-2.3164,-2.3483,-2.4015,-2.2466,-2.1952,0.0,0.0,0.0,0.0,0.0,0.0,0.0,0.0,0.0,0.0,0.0,-3.0079,-3.1796,0.0,-3.6052,-3.8209,-4.0008,-4.1465,-4.2324,-4.3092,-4.3401,-4.2998,-4.3551,-4.4107,-4.4564,-4.491,-4.5295,-4.5719,-4.5757,-4.5757,-4.5757,-4.5815,-4.5857,-4.5854,-4.5874,-4.5893,-4.5893,-4.5896,-4.5883,-4.5834,-4.5834,-4.5834,-4.5834,-4.5815,-4.5812,-4.5796,-4.5757,-4.5699,-4.5605,-4.5738,-4.5873,-4.5986,-4.5998,-4.5862,-4.5644,-4.5644,-4.5098,-4.4297,-4.3848,-4.3418,-4.291,-4.207,-4.1797,-4.1738,-4.1328,-4.1191,-4.1191,-4.1191,-4.0898,-4.0449,-4.0019,-3.9258,-3.8496,-3.8047,-3.7285,-3.6641,-3.6641,-3.6309,-3.5996,-3.5996,-3.5293,-3.4551,-3.4121,-3.2656,-3.1406,-3.0976,-3.0898,-3.0898,-3.0898,-3.0137,-2.9434,-2.9004,-2.7773,-2.6816,-2.6387,-2.5957,-2.5703,-2.5703,-2.5703,-2.5508,-2.5078,-2.5469,-2.5508,-2.5059,-2.5059,-2.4844,-2.4394,-2.4434,-2.4626,-2.4935,-2.4505,-2.4226,0.0,0.0,0.0,0.0,0.0,0.0,0.0,0.0,-2.9213,-3.1796,-3.3057,-3.4375,-3.6601,-3.7715,-3.9043,-4.1328,-4.2226,-4.2969,-4.3828,-4.4437,-4.4631,-4.4184,-4.4598,-4.4928,-4.4939,-4.5522,-4.5893,-4.5893,-4.5893,-4.5893,-4.5893,-4.5924,-4.5939,-4.5938,-4.5963,-4.5963,-4.5949,-4.5939,-4.593,-4.5873,-4.5873,-4.5873,-4.5834,-4.5796,-4.5757,-4.5757,-4.5643,-4.5605,-4.5661,-4.5764,-4.5938,-4.6103,-4.6123,-4.6201,-4.6308,-4.6308,-4.5859,-4.5234,-4.5058,-4.4531,-4.3789,-4.2734,-4.2402,-4.2246,-4.1445,-4.1191,-4.1191,-4.1191,-4.1191,-4.1035,-4.0332,-4.0039,-3.9726,-3.9023,-3.8066,-3.7305,-3.7305,-3.6621,-3.5996,-3.5996,-3.543,-3.4902,-3.4726,-3.3574,-3.2344,-3.1309,-3.1016,-3.0898,-3.0898,-3.0293,-2.9785,-2.9629,-2.834,-2.7363,-2.7031,-2.6191,-2.5703,-2.5703,-2.5703,-2.5703,-2.5703,-2.5703,-2.5703,-2.5703,-2.5703,-2.5703,-2.5703,-2.5703,-2.5664,-2.5625,-2.5604,-2.5539,-2.3125,-2.2949,-2.3711,-2.6797,-2.7148,-2.8319,0.0,0.0,-3.459,-3.7186,-3.8437,-3.9355,-4.043,-4.1289,-4.2187,-4.3242,-4.3496,-4.3867,-4.4726,-4.4821,-4.5097,-4.5899,-4.5848,-4.5765,-4.5765,-4.5843,-4.5901,-4.5901,-4.5901,-4.5901,-4.5901,-4.6023,-4.608,-4.6075,-4.6196,-4.6209,-4.6073,-4.608,-4.5988,-4.5815,-4.5815,-4.5757,-4.5624,-4.5624,-4.5605,-4.5605,-4.5605,-4.568,-4.5791,-4.5852,-4.5977,-4.6103,-4.6219,-4.6279,-4.6308,-4.6308,-4.623,-4.6035,-4.5273,-4.4941,-4.457,-4.293,-4.2402,-4.2246,-4.1445,-4.1191,-4.1191,-4.1191,-4.1191,-4.1172,-4.1074,-4.0488,-3.9883,-3.9785,-3.8496,-3.7305,-3.7305,-3.6621,-3.5996,-3.5996,-3.5918,-3.5605,-3.4824,-3.4531,-3.3887,-3.2285,-3.1406,-3.0898,-3.0898,-3.0801,-3.0469,-2.9687,-2.9434,-2.8672,-2.7129,-2.6191,-2.5703,-2.5703,-2.5703,-2.5703,-2.5703,-2.5703,-2.5703,-2.5703,-2.5703,-2.5703,-2.5703,-2.5703,-2.5703,-2.5684,-2.5623,-2.5531,-2.8125,-2.8418,0.0,0.0,-3.2519,-3.4375,-3.6758,-3.791,-3.8926,-4.0488,-4.1504,-4.2226,-4.2598,-4.334,-4.4023,0.0,-4.4883,-4.5332,-4.5703,-4.5273,-4.5071,-4.5482,-4.544,-4.5576,-4.6069,-4.612,-4.612,-4.612,-4.612,-4.612,-4.612,-4.6189,-4.6227,-4.6227,-4.6273,-4.624,-4.6102,-4.6026,-4.593,-4.5796,-4.5719,-4.5643,-4.5586,-4.5586,-4.5586,-4.5586,-4.568,-4.5776,-4.5871,-4.5969,-4.61,-4.6227,-4.6286,-4.6303,-4.6308,-4.6308,-4.6308,-4.625,-4.5879,-4.5762,-4.5547,-4.4316,-4.3574,-4.3008,-4.2148,-4.1562,-4.1191,-4.1191,-4.1191,-4.1191,-4.1191,-4.0937,-4.0664,-4.0664,-3.9336,-3.8066,-3.8066,-3.6973,-3.5996,-3.5996,-3.5996,-3.5879,-3.5527,-3.5039,-3.4297,-3.3086,-3.2187,-3.1465,-3.0976,-3.0898,-3.0566,-2.9687,-2.9609,-2.9101,-2.7851,-2.6953,-2.6465,-2.6465,-2.5977,-2.5703,-2.5703,-2.5703,-2.5703,-2.5703,-2.5703,-2.5703,-2.5703,-2.5703,-2.5703,-2.5703,-2.5664,-2.5616,-3.0976,0.0,0.0,-3.4082,-3.6738,-3.8906,-3.875,-4.0351,-4.2051,-4.2637,-4.3262,-4.3691,-4.3691,-4.4219,-4.4726,-4.4961,-4.5527,-4.6035,-4.6269,-4.5547,-4.5098,-4.5332,-4.5141,-4.5346,-4.6229,-4.6308,-4.6308,-4.6308,-4.6308,-4.6308,-4.6308,-4.6267,-4.6264,-4.6308,-4.6269,-4.6177,-4.6051,-4.596,-4.5853,-4.5738,-4.5643,-4.5586,-4.5586,-4.5586,-4.5605,-4.5643,-4.5757,-4.5853,-4.5969,-4.6065,-4.6171,-4.6308,-4.6308,-4.6308,-4.6308,-4.6308,-4.6308,-4.6308,-4.6308,-4.6308,-4.6152,-4.5273,-4.4414,-4.3535,-4.2656,-4.1836,-4.1191,-4.1191,-4.1191,-4.1191,-4.1191,-4.1191,-4.1191,-4.1191,-4.0059,-3.8887,-3.8652,-3.7422,-3.6289,-3.6055,-3.5996,-3.5996,-3.5996,-3.5488,-3.4766,-3.3887,-3.3066,-3.2148,-3.1035,-3.0898,-3.0664,-3.0039,-2.9746,-2.9336,-2.8711,-2.7851,-2.7266,-2.7012,-2.6406,-2.5957,-2.5703,-2.5703,-2.5703,-2.5703,-2.5703,-2.5703,-2.5703,-2.5703,-2.5703,-2.5703,-2.5703,-2.5664,0.0,0.0,-3.3008,-3.6348,-3.8535,-4.0273,-4.1875,-4.2969,-4.3633,-4.3652,-4.3672,-4.3691,-4.3691,-4.3711,-4.4023,-4.4863,-4.5019,-4.5332,-4.6172,-4.5547,-4.5312,-4.6152,-4.5508,-4.5331,-4.6211,-4.6308,-4.6308,-4.6308,-4.6308,-4.6308,-4.6308,-4.618,-4.6174,-4.6308,-4.6172,-4.6036,-4.5909,-4.5907,-4.5796,-4.5605,-4.5586,-4.5586,-4.5586,-4.5586,-4.568,-4.5796,-4.5796,-4.5911,-4.6084,-4.6103,-4.6171,-4.6308,-4.6308,-4.6308,-4.6308,-4.6308,-4.6308,-4.6308,-4.6308,-4.6308,-4.6152,-4.5273,-4.4414,-4.3535,-4.2656,-4.1836,-4.1191,-4.1191,-4.1191,-4.1191,-4.1191,-4.1191,-4.1191,-4.1191,-4.0508,-3.9629,-3.8789,-3.7891,-3.7012,-3.6152,-3.5996,-3.5996,-3.5996,-3.5976,-3.5664,-3.4785,-3.3926,-3.2773,-3.1113,-3.0898,-3.0898,-3.0859,-3.0098,-2.959,-2.9551,-2.8769,-2.7891,-2.7051,-2.6973,-2.6582,-2.5723,-2.5703,-2.5703,-2.5703,-2.5703,-2.5703,-2.5703,-2.5703,-2.5703,-2.5703,-2.5703,-2.5703,0.0,0.0,-3.6992,-3.9316,-4.1601,-4.3437,-4.4004,-4.4355,-4.4551,-4.4551,-4.3633,-4.2832,-4.2832,-4.2832,-4.3125,-4.4004,-4.4629,-4.5293,-4.6172,-4.5547,-4.5117,-4.5391,-4.5176,-4.5117,-4.541,-4.5957,0.0,-4.6308,-4.6308,-4.6308,-4.6308,-4.6257,-4.6212,-4.6166,-4.6116,-4.6009,-4.5849,-4.5825,-4.5757,-4.5586,-4.5586,-4.5586,-4.5586,-4.5586,-4.568,-4.5813,-4.5841,-4.5969,-4.6116,-4.6201,-4.6261,-4.6308,-4.6308,-4.6308,-4.6308,-4.6308,-4.6308,-4.6308,-4.6308,-4.6308,-4.625,-4.5957,-4.5273,-4.4394,-4.3535,-4.2676,-4.1875,-4.1348,-4.1191,-4.1191,-4.1191,-4.1191,-4.1191,-4.1191,-4.0527,-3.9668,-3.8789,-3.793,-3.7031,-3.6172,-3.5996,-3.5996,-3.5996,-3.5996,-3.5508,-3.4062,-3.3125,-3.2187,-3.1055,-3.0898,-3.0898,-3.0898,-3.0644,-3.0469,-3.0469,-2.9668,-2.9043,-2.873,-2.7637,-2.6875,-2.6562,-2.6016,-2.5703,-2.5703,-2.5703,-2.5703,-2.5703,-2.5703,-2.5703,-2.5703,-2.5703,-2.5703,-3.584,-3.7754,-3.9238,-4.1894,-4.3555,-4.4629,-4.4922,-4.4512,-4.3906,-4.3301,-4.1797,-4.0488,-4.0176,-3.9863,-4.0332,-4.2461,-4.3281,-4.4258,-4.6055,-4.5547,-4.5117,-4.543,-4.5195,-4.5117,0.0,0.0,0.0,-4.6308,-4.6308,-4.6308,-4.6308,-4.6202,-4.6142,-4.61,-4.6026,-4.593,-4.5796,-4.5796,-4.5738,-4.5586,-4.5586,-4.5586,-4.5586,-4.5586,-4.568,-4.5794,-4.584,-4.5949,-4.6113,-4.6189,-4.6269,-4.6308,-4.6308,-4.6308,-4.6308,-4.6308,-4.6308,-4.6308,-4.6308,-4.6308,-4.6308,-4.6308,-4.5703,-4.4844,-4.3965,-4.3086,-4.2226,-4.1426,-4.1191,-4.1191,-4.1191,-4.1191,-4.1191,-4.1191,-4.0762,-4.0137,-3.9258,-3.8379,-3.7519,-3.6621,-3.6211,-3.5996,-3.5996,-3.5996,-3.5508,-3.4082,-3.3164,-3.2207,-3.1055,-3.0898,-3.0898,-3.0898,-3.0898,-3.0898,-3.0898,-3.0391,-2.9922,-2.9629,-2.8555,-2.7656,-2.7031,-2.6465,-2.6016,-2.5703,-2.5703,-2.5703,-2.5703,-2.5703,-2.5703,-2.5703,-2.5703,-2.5703,-3.7754,-3.8789,-3.9902,-4.3984,-4.4375,-4.3965,-4.4766,-4.3555,-4.1797,-4.0117,-3.834,-3.6836,-3.5976,0.0,-3.6074,-4.0312,-4.1152,-4.2422,-4.5762,-4.5566,-4.5371,0.0,0.0,0.0,0.0,0.0,0.0,-4.6308,-4.6308,-4.6308,-4.6287,-4.6047,-4.598,-4.6082,-4.5911,-4.5796,-4.5796,-4.5796,-4.5738,-4.5586,-4.5586,-4.5586,-4.5586,-4.5586,-4.568,-4.5813,-4.5808,-4.5913,-4.6092,-4.6094,-4.6172,-4.6289,-4.6308,-4.6308,-4.6308,-4.6308,-4.6308,-4.6308,-4.6308,-4.6308,-4.6308,-4.6308,-4.5742,-4.4902,-4.3984,-4.3125,-4.2285,-4.1445,-4.1191,-4.1191,-4.1191,-4.1191,-4.1191,-4.1191,-4.1191,-4.0957,-4.0039,-3.918,-3.832,-3.7402,-3.6562,-3.5996,-3.5996,-3.5996,-3.5703,-3.4824,-3.4004,-3.2851,-3.1172,-3.0937,-3.0898,-3.0898,-3.0898,-3.0898,-3.0898,-3.0898,-3.0547,-2.9726,-2.9629,-2.8867,-2.7207,-2.709,-2.666,-2.5781,-2.5762,-2.5742,-2.5703,-2.5703,-2.5703,-2.5703,-2.5703,-2.5703,-3.9141,-4.1426,-4.3633,-4.4726,-4.4824,-4.4551,-4.4121,-4.2226,-4.0059,-3.832,-3.6055,-3.4141,-3.332,0.0,0.0,-3.7891,-4.043,0.0,-4.5039,-4.5703,0.0,-4.6269,0.0,-4.6055,-4.6289,-4.6308,0.0,-4.6308,-4.6308,-4.6257,-4.6164,-4.6192,-4.6105,-4.5873,-4.5873,-4.5796,-4.5643,-4.5643,-4.5624,-4.5586,-4.5586,-4.5586,-4.5586,-4.5586,-4.568,-4.5796,-4.5786,-4.5858,-4.5963,-4.6066,-4.6113,-4.6152,-4.6269,-4.6308,-4.6308,-4.6308,-4.6308,-4.6308,-4.6308,-4.6308,-4.6308,-4.6308,-4.6152,-4.5683,-4.416,-4.3535,-4.3066,-4.1601,-4.1191,-4.1191,-4.1191,-4.1191,-4.1191,-4.1191,-4.1191,-4.0781,-3.9258,-3.8769,-3.8144,-3.6621,-3.6152,-3.5996,-3.5996,-3.5996,-3.5703,-3.4824,-3.4512,-3.3769,-3.207,-3.1309,-3.0898,-3.0898,-3.0898,-3.0898,-3.0898,-3.0898,-3.0801,-3.0586,-2.9961,-2.9394,-2.8965,-2.8301,-2.7559,-2.6699,-2.668,-2.6348,-2.5703,-2.5703,-2.5703,-2.5703,-2.5703,-2.5703,-4.1133,-4.3242,-4.5,-4.5,-4.4414,-4.3437,-4.1836,-3.9473,-3.6914,-3.4434,-3.2441,0.0,-2.957,-3.1055,0.0,0.0,0.0,0.0,-4.4648,-4.5742,-4.6308,0.0,-4.6308,0.0,-4.6308,-4.6308,-4.6308,0.0,-4.6308,-4.625,-4.6116,-4.6123,-4.6026,-4.5815,-4.5776,-4.5719,-4.5586,-4.5586,-4.5586,-4.5586,-4.5586,-4.5586,-4.5586,-4.5586,-4.5624,-4.5719,-4.5719,-4.5776,-4.5849,-4.5968,-4.6045,-4.6113,-4.625,-4.6308,-4.6308,-4.6308,-4.6308,-4.6308,-4.6308,-4.6308,-4.6308,-4.6308,-4.6308,-4.6055,-4.4687,-4.4004,-4.3418,-4.2109,-4.1465,-4.1191,-4.1191,-4.1191,-4.1191,-4.1191,-4.1191,-4.0937,-3.9941,-3.9141,-3.8086,-3.6348,-3.5996,-3.5996,-3.5996,-3.5996,-3.582,-3.5332,-3.4629,-3.3789,-3.2851,-3.1992,-3.1328,-3.0937,-3.0898,-3.0898,-3.0898,-3.0898,-3.0898,-3.0898,-3.0449,-3.0,-2.9629,-2.9121,-2.8281,-2.7012,-2.6992,-2.6562,-2.5703,-2.5703,-2.5703,-2.5703,-2.5703,-2.5703,-4.3066,-4.4336,-4.5,-4.5,-4.3691,-4.1699,-3.9023,-3.6328,-3.3398,-2.9961,0.0,-2.7324,-2.5801,-2.7578,-3.041,-3.3945,0.0,-4.0781,-4.4336,-4.5586,-4.6172,-4.6289,-4.6308,-4.6308,-4.6308,-4.6308,-4.6288,-4.6278,-4.6276,-4.6216,-4.6082,-4.5984,-4.5892,-4.5796,-4.568,-4.5586,-4.5586,-4.5605,-4.5605,-4.5586,-4.5605,-4.5605,-4.5586,-4.5586,-4.5586,-4.5586,-4.5586,-4.568,-4.5815,-4.5873,-4.5991,-4.6102,-4.6249,-4.6308,-4.6308,-4.6308,-4.6308,-4.6308,-4.6308,-4.6308,-4.6308,-4.6308,-4.6308,-4.6133,-4.5254,-4.4394,-4.3516,-4.2656,-4.1816,-4.1191,-4.1191,-4.1191,-4.1191,-4.1191,-4.1191,-4.1172,-4.1055,-3.9668,-3.7949,-3.6328,-3.5996,-3.5996,-3.5996,-3.5996,-3.5996,-3.5996,-3.4707,-3.3652,-3.3437,-3.2598,-3.1738,-3.0976,-3.0898,-3.0898,-3.0898,-3.0898,-3.0898,-3.0898,-3.0898,-3.0566,-2.9805,-2.9766,-2.9004,-2.7383,-2.7344,-2.6855,-2.5879,-2.5879,-2.5801,-2.5703,-2.5703,-2.5703,-4.3379,-4.4336,-4.5,-4.5,-4.3691,-4.1543,-3.8262,-3.498,0.0,0.0,0.0,-2.498,-2.4687,-2.6172,0.0,-3.2949,0.0,0.0,0.0,0.0,-4.5488,0.0,0.0,0.0,0.0,-4.6308,0.0,0.0,-4.6134,-4.6087,-4.5949,-4.6027,-4.5988,-4.5815,-4.568,-4.5586,-4.5586,-4.5719,-4.5719,-4.5586,-4.5719,-4.5719,-4.5586,-4.5586,-4.5586,-4.5586,-4.5586,-4.568,-4.5815,-4.5873,-4.5976,-4.6112,-4.6257,-4.6308,-4.6308,-4.6308,-4.6308,-4.6308,-4.6308,-4.6308,-4.6308,-4.6308,-4.6308,-4.6133,-4.5254,-4.4394,-4.3516,-4.2656,-4.1816,-4.1191,-4.1191,-4.1191,-4.1191,-4.1191,-4.1191,-4.0996,-4.0273,-3.8769,-3.7226,-3.6191,-3.5996,-3.5996,-3.5996,-3.5996,-3.5996,-3.5996,-3.5742,-3.5039,-3.3594,-3.207,-3.1074,-3.0918,-3.0898,-3.0898,-3.0898,-3.0898,-3.0898,-3.0898,-3.0898,-3.082,-3.0684,-3.0664,-3.0195,-2.918,-2.9141,-2.8379,-2.6777,-2.6777,-2.6406,-2.5703,-2.5703,-2.5703,-4.2793,-4.3652,-4.4219,-4.3769,-4.2012,-3.9512,-3.6055,0.0,0.0,0.0,0.0,-2.3457,-2.2578,0.0,0.0,0.0,0.0,0.0,0.0,0.0,0.0,0.0,0.0,0.0,0.0,-4.624,-4.6166,-4.61,-4.6046,-4.5938,-4.586,-4.5854,-4.5796,-4.5699,-4.5624,-4.5624,-4.5699,-4.5776,-4.5767,-4.5713,-4.5767,-4.5738,-4.5586,-4.5586,-4.5586,-4.5586,-4.568,-4.5738,-4.5815,-4.595,-4.6046,-4.6111,-4.624,-4.6308,-4.6308,-4.6308,-4.6308,-4.6308,-4.6308,-4.6308,-4.6308,-4.6308,-4.6308,-4.6133,-4.5254,-4.4394,-4.3516,-4.2656,-4.1816,-4.1191,-4.1191,-4.1191,-4.1191,-4.1191,-4.1191,-4.084,-3.9512,-3.8574,-3.7578,-3.6269,-3.5996,-3.5996,-3.5996,-3.5996,-3.5996,-3.5996,-3.5605,-3.4863,-3.3574,-3.2324,-3.1406,-3.0957,-3.0898,-3.0898,-3.0898,-3.0898,-3.0898,-3.0898,-3.0898,-3.0898,-3.0898,-3.0898,-3.0488,-2.9629,-2.9609,-2.8965,-2.7676,-2.7676,-2.7226,-2.6387,-2.6836,-2.6562,-4.1875,-4.2773,-4.3223,-4.2363,-4.0351,-3.7637,-3.3984,-3.0488,0.0,0.0,-2.2852,-2.2227,-2.1094,0.0,0.0,0.0,0.0,0.0,0.0,0.0,0.0,0.0,0.0,0.0,0.0,-4.613,0.0,-4.6044,-4.5911,-4.5834,-4.5796,-4.568,-4.5586,-4.5586,-4.5586,-4.5643,-4.5757,-4.5789,-4.5785,-4.5757,-4.578,-4.5738,-4.5586,-4.5586,-4.5605,-4.5643,-4.5757,-4.5815,-4.5873,-4.6026,-4.6124,-4.6151,-4.6261,-4.6308,-4.6308,-4.6308,-4.6308,-4.6308,-4.6308,-4.6308,-4.6308,-4.6308,-4.6172,-4.5898,-4.5215,-4.4258,-4.3281,-4.26,-4.1807,-4.1153,-4.119,-4.1172,-4.1152,-4.1191,-4.1191,-4.0723,-3.8984,-3.8594,-3.8086,-3.6348,-3.5996,-3.5996,-3.5996,-3.5996,-3.5996,-3.5996,-3.543,-3.4668,-3.3789,-3.3125,-3.2344,-3.1289,-3.1016,-3.0898,-3.0898,-3.0898,-3.0898,-3.0898,-3.0898,-3.0898,-3.0898,-3.0898,-3.0586,-2.9883,-2.9883,-2.9453,-2.8574,-2.8574,-2.8125,-2.7305,-2.7988,-2.7578,-4.0859,-4.1894,-4.2324,-4.1504,-3.9941,-3.75,-3.3262,0.0,0.0,-2.373,-2.1934,-2.1016,-2.166,-2.2109,0.0,0.0,0.0,0.0,0.0,0.0,0.0,0.0,0.0,0.0,0.0,-4.6009,-4.5902,-4.583,-4.5699,-4.568,-4.5796,-4.568,-4.5586,-4.5586,-4.5586,-4.5605,-4.5605,-4.5742,-4.5736,-4.5618,-4.5738,-4.5738,-4.5586,-4.5586,-4.568,-4.5776,-4.5796,-4.5911,-4.6065,-4.6084,-4.6158,-4.6284,-4.6308,-4.6308,-4.6308,-4.6308,-4.6308,-4.6308,-4.6308,-4.6308,-4.6308,-4.6308,-4.5762,-4.5098,-4.5019,-4.3848,-4.249,-4.2416,-4.1735,-4.104,-4.1177,-4.1113,-4.1055,-4.1172,-4.1191,-4.0723,-3.8984,-3.8594,-3.8086,-3.6348,-3.5996,-3.5996,-3.5996,-3.5996,-3.5996,-3.5996,-3.5937,-3.5566,-3.4687,-3.4512,-3.3867,-3.2246,-3.1367,-3.0898,-3.0898,-3.0898,-3.0898,-3.0898,-3.0898,-3.0898,-3.0898,-3.0898,-3.0859,-3.0781,-3.0781,-3.0351,-2.9473,-2.9473,-2.9023,-2.8184,-2.8262,-2.8203,-3.9023,-4.0254,-4.082,-4.0508,-3.832,-3.5547,-3.2812,0.0,-2.5017,-2.3514,-2.1777,-2.0664,-2.1055,-2.1543,-2.2637,0.0,-2.5937,-2.804,0.0,0.0,0.0,0.0,0.0,0.0,0.0,0.0,-4.58,-4.568,-4.5624,-4.5605,-4.568,-4.5624,-4.5586,-4.5586,-4.5586,-4.5624,-4.5719,-4.5761,-4.5761,-4.5719,-4.5776,-4.5738,-4.5586,-4.568,-4.5757,-4.5815,-4.593,-4.6026,-4.6116,-4.6183,-4.6249,-4.6308,-4.6308,-4.6308,-4.6308,-4.6308,-4.6308,-4.6308,-4.6308,-4.6308,-4.6308,-4.6308,-4.5328,-4.4171,-4.4171,-4.3252,-4.2109,-4.1578,-4.1167,-4.0906,-4.1034,-4.1096,-4.1133,-4.1191,-4.1191,-4.0723,-3.8984,-3.8594,-3.8086,-3.6348,-3.5996,-3.5996,-3.5996,-3.5996,-3.5996,-3.5996,-3.5996,-3.5684,-3.4805,-3.4707,-3.4062,-3.2383,-3.1894,-3.1465,-3.0937,-3.0898,-3.0898,-3.0898,-3.0898,-3.0898,-3.0898,-3.0898,-3.0898,-3.0898,-3.0898,-3.0723,-3.0371,-3.0371,-2.9922,-2.9101,-2.9629,-2.9297,-3.6738,-3.8262,-3.9062,-3.8809,-3.6498,-3.3707,0.0,0.0,-2.4069,-2.3007,-2.1576,-2.0527,-2.0586,-2.1094,-2.1873,0.0,-2.3848,-2.5648,-2.9334,0.0,0.0,0.0,0.0,-4.2872,0.0,-4.5488,-4.5699,-4.5605,-4.5586,-4.5586,-4.5586,-4.5586,-4.5586,-4.5586,-4.5586,-4.5643,-4.5738,-4.5738,-4.5738,-4.5738,-4.5738,-4.5699,-4.5586,-4.5738,-4.5806,-4.5838,-4.602,-4.6117,-4.6174,-4.6264,-4.6308,-4.6308,-4.6308,-4.6308,-4.6308,-4.6308,-4.6308,-4.6308,-4.6308,-4.6308,-4.6249,-4.5987,-4.4809,-4.3485,-4.3211,-4.2473,-4.1597,-4.0965,-4.0829,-4.0867,-4.0933,-4.1078,-4.1191,-4.1191,-4.1191,-4.0723,-3.8984,-3.8594,-3.8086,-3.6348,-3.5996,-3.5996,-3.5996,-3.5996,-3.5996,-3.5996,-3.5996,-3.5781,-3.5156,-3.5078,-3.4434,-3.2734,-3.2559,-3.2109,-3.0996,-3.0898,-3.0898,-3.0898,-3.0898,-3.0898,-3.0898,-3.0898,-3.0898,-3.0898,-3.0898,-3.0898,-3.0898,-3.0898,-3.0586,-3.0,-3.0605,-3.0234,-3.4043,-3.6016,-3.7129,-3.6269,-3.4672,-3.2416,0.0,-2.6196,-2.383,-2.2156,-2.1107,-2.0527,-2.0586,-2.0605,-2.1169,-2.2821,-2.3784,-2.5801,-3.0095,0.0,0.0,0.0,0.0,-4.2325,-4.3137,-4.466,-4.5586,-4.5586,-4.5586,-4.5586,-4.5586,-4.5586,-4.5586,-4.5586,-4.5586,-4.5586,-4.5586,-4.5586,-4.5586,-4.5586,-4.5586,-4.5586,-4.5586,-4.5738,-4.5844,-4.59,-4.6032,-4.618,-4.6308,-4.6308,-4.6308,-4.6308,-4.6308,-4.6308,-4.6308,-4.6308,-4.6308,-4.6308,-4.6308,-4.6308,-4.6145,-4.5219,-4.4226,-4.3227,-4.229,-4.1443,-4.0812,-4.0793,-4.0904,-4.0974,-4.0839,-4.0996,-4.1191,-4.1191,-4.1191,-4.0723,-3.8984,-3.8594,-3.8086,-3.6348,-3.5996,-3.5996,-3.5996,-3.5996,-3.5996,-3.5996,-3.5996,-3.5996,-3.5996,-3.5996,-3.5312,-3.3574,-3.3398,-3.2715,-3.1035,-3.0898,-3.0898,-3.0898,-3.0898,-3.0898,-3.0898,-3.0898,-3.0898,-3.0898,-3.0898,-3.0898,-3.0898,-3.0898,-3.0898,-3.0898,-3.0898,-3.0898,-2.9941,-3.156,-3.2669,-3.1833,-3.0687,-2.9156,-2.6924,-2.4822,-2.3048,-2.1945,-2.1,-2.0408,-2.0507,-2.0497,-2.143,-2.4347,-2.4977,0.0,0.0,0.0,0.0,0.0,0.0,-4.4564,0.0,0.0,-4.5586,-4.5586,-4.5586,-4.5586,-4.5586,-4.5586,-4.5586,-4.5586,-4.5586,-4.5586,-4.5586,-4.5586,-4.5586,-4.5586,-4.5586,-4.5643,-4.5738,-4.5834,-4.5921,-4.6037,-4.6177,-4.6261,-4.6308,-4.6308,-4.6308,-4.6308,-4.6308,-4.6308,-4.6308,-4.6308,-4.6308,-4.6308,-4.6308,-4.5889,-4.5304,-4.5003,-4.3777,-4.2389,-4.2101,-4.1347,-4.06,-4.06,-4.0716,-4.0844,-4.082,-4.0996,-4.1191,-4.1191,-4.1191,-4.0723,-3.8984,-3.8594,-3.8086,-3.6348,-3.5996,-3.5996,-3.5996,-3.5996,-3.5996,-3.5996,-3.5996,-3.5996,-3.5996,-3.5996,-3.5332,-3.3594,-3.3398,-3.2715,-3.1035,-3.0898,-3.0898,-3.0898,-3.0898,-3.0898,-3.0898,-3.0898,-3.0898,-3.0898,-3.0898,-3.0898,-3.0898,-3.0898,-3.0898,-3.0898,-3.0898,-3.0898,0.0,-2.8043,-2.9213,-2.8704,-2.7829,-2.667,-2.4969,-2.3438,-2.2136,-2.1336,-2.0713,-2.033,-2.0448,-2.0425,-2.1324,-2.4129,-2.4549,0.0,0.0,0.0,0.0,0.0,0.0,0.0,0.0,-4.5413,-4.5586,-4.5586,-4.5586,-4.5586,-4.5586,-4.5586,-4.5586,-4.5586,-4.5586,-4.5586,-4.5586,-4.5586,-4.5586,-4.5586,-4.5586,-4.5624,-4.5738,-4.5843,-4.5955,-4.6021,-4.621,-4.6308,0.0,-4.6308,-4.6308,-4.6308,-4.6308,-4.6308,-4.6308,-4.6308,-4.627,-4.617,-4.5871,-4.5365,-4.4712,-4.4032,-4.2742,-4.1424,-4.1424,-4.0985,-4.0508,-4.0562,-4.0677,-4.0815,-4.087,-4.1037,-4.1191,-4.1191,-4.1191,-4.0723,-3.8984,-3.8594,-3.8086,-3.6348,-3.5996,-3.5996,-3.5996,-3.5996,-3.5996,-3.5996,-3.5996,-3.5996,-3.5996,-3.5996,-3.5332,-3.3594,-3.3398,-3.2715,-3.1035,-3.0898,-3.0898,-3.0898,-3.0898,-3.0898,-3.0898,-3.0898,-3.0898,-3.0898,-3.0898,-3.0898,-3.0898,-3.0898,-3.0898,-3.0898,-3.0898,-3.0898,0.0,-2.5065,-2.634,-2.626,-2.563,-2.4612,-2.2995,-2.1999,0.0,-2.0446,-2.0312,-2.0369,-2.0542,-2.0526,-2.1089,-2.2947,0.0,0.0,0.0,0.0,0.0,0.0,-4.2797,0.0,-4.4316,-4.5124,-4.5586,-4.5586,-4.5586,-4.5586,-4.5586,-4.5586,-4.5586,-4.5586,-4.5586,-4.5586,-4.5586,-4.5586,-4.5586,-4.5586,-4.5586,-4.5605,-4.5622,-4.5813,-4.5909,-4.5932,-4.6198,-4.6308,-4.6308,-4.6308,-4.6308,-4.6308,-4.6308,-4.6289,-4.6285,-4.6285,-4.6166,-4.5885,-4.5144,-4.4718,-4.4219,-4.2458,-4.127,-4.0489,-4.0489,-4.0489,-4.0543,-4.0658,-4.075,-4.0823,-4.0981,-4.1093,-4.1191,-4.1191,-4.1152,-4.0644,-3.8965,-3.8555,-3.8008,-3.6328,-3.5996,-3.5996,-3.5996,-3.5996,-3.5996,-3.5996,-3.5996,-3.5996,-3.5996,-3.5996,-3.5351,-3.3672,-3.3437,-3.2754,-3.1133,-3.0937,-3.0898,-3.0898,-3.0898,-3.0898,-3.0898,-3.0898,-3.0898,-3.0898,-3.0898,-3.0898,-3.0898,-3.0898,-3.0898,-3.0898,-3.0898,-3.0898,-1.8127,0.0,-2.0791,-2.0166,-2.0272,-2.0438,0.0,-2.03,0.0,0.0,0.0,-2.0708,-2.2064,-2.1729,-2.245,0.0,0.0,0.0,0.0,0.0,0.0,0.0,-4.4893,-4.5086,-4.5278,-4.547,-4.5586,-4.5586,-4.5586,-4.5586,-4.5586,-4.5586,-4.5586,-4.5586,-4.5586,-4.5586,-4.5586,-4.5586,-4.5586,-4.5586,-4.5586,-4.568,-4.5834,-4.5877,-4.6016,-4.6202,-4.6268,-4.6308,-4.6308,-4.6308,-4.6308,-4.6308,-4.6308,-4.624,-4.6164,-4.6164,-4.5665,-4.5004,-4.4819,-4.3829,-4.2439,-4.1243,-4.0696,-4.0489,-4.0489,-4.0489,-4.0543,-4.0658,-4.0739,-4.0828,-4.0964,-4.1093,-4.1191,-4.1191,-4.0684,-3.9902,-3.8828,-3.8086,-3.7285,-3.6211,-3.5996,-3.5996,-3.5996,-3.5996,-3.5996,-3.5996,-3.5996,-3.5996,-3.5996,-3.5996,-3.5586,-3.4512,-3.3809,-3.2988,-3.1973,-3.1289,-3.0898,-3.0898,-3.0898,-3.0898,-3.0898,-3.0898,-3.0898,-3.0898,-3.0898,-3.0898,-3.0898,-3.0898,-3.0898,-3.0898,-3.0898,-3.0898,-1.5901,-1.7748,-1.9552,-1.9107,-1.9588,-2.0165,-2.0185,0.0,0.0,0.0,0.0,0.0,-2.2026,0.0,0.0,0.0,0.0,0.0,0.0,0.0,0.0,0.0,-4.5586,-4.5586,-4.5586,-4.5586,-4.5586,-4.5586,-4.5586,-4.5586,-4.5586,-4.5586,-4.5586,-4.5586,-4.5586,-4.5586,-4.5586,-4.5586,-4.5586,-4.5586,-4.5586,-4.5699,-4.5853,-4.5892,-4.6011,-4.6212,-4.6276,-4.6267,-4.6205,-4.6205,-4.6177,-4.6117,-4.6117,-4.6068,-4.6007,-4.5998,-4.5418,-4.4543,-4.4157,-4.2829,-4.1232,-4.0677,-4.0489,-4.0489,-4.0489,-4.0489,-4.0543,-4.0696,-4.0781,-4.0829,-4.0974,-4.1093,-4.1172,-4.1113,-4.0441,-3.9599,-3.8767,-3.7891,-3.7012,-3.6152,-3.5996,-3.5996,-3.5996,-3.5996,-3.5996,-3.5996,-3.5996,-3.5996,-3.5996,-3.5996,-3.5664,-3.4785,-3.3926,-3.306,-3.2182,-3.1309,-3.0829,-3.0898,-3.0898,-3.0898,-3.0898,-3.0898,-3.0898,-3.0898,-3.0898,-3.0898,-3.0898,-3.0898,-3.0898,-3.0898,-3.0898,-3.0898,-1.5503,-1.7888,-2.0235,-1.9965,-2.0619,-2.1342,0.0,0.0,0.0,0.0,0.0,0.0,0.0,0.0,0.0,0.0,0.0,0.0,0.0,0.0,0.0,-4.5297,-4.5586,-4.5586,-4.5586,-4.5586,-4.5586,-4.5586,-4.5586,-4.5586,-4.5586,-4.5586,-4.5586,-4.5586,-4.5586,-4.5586,-4.5586,-4.5586,-4.5586,-4.5586,-4.5605,-4.5699,-4.5832,-4.5866,-4.5977,-4.6116,-4.6209,-4.6176,-4.607,-4.608,-4.6003,-4.5901,-4.5901,-4.5881,-4.5869,-4.5889,-4.5218,-4.4141,-4.3137,-4.1774,-4.0489,-4.0489,-4.0489,-4.0489,-4.0489,-4.0489,-4.0543,-4.0735,-4.0788,-4.0829,-4.0958,-4.1073,-4.1138,-4.1021,-4.0232,-3.9325,-3.869,-3.7731,-3.6797,-3.6113,-3.5996,-3.5996,-3.5996,-3.5996,-3.5996,-3.5996,-3.5996,-3.5996,-3.5996,-3.5996,-3.5723,-3.498,-3.4116,-3.321,-3.2293,-3.1395,-3.0866,-3.0862,-3.0855,-3.0858,-3.0879,-3.0898,-3.0898,-3.0898,-3.0898,-3.0898,-3.0898,-3.0898,-3.0898,-3.0898,-3.0898,-3.0898,-1.6926,-1.8773,-1.9946,-1.8465,-1.9292,-2.0625,0.0,0.0,0.0,0.0,0.0,0.0,0.0,0.0,0.0,0.0,0.0,0.0,0.0,0.0,-4.2758,-4.5297,0.0,-4.5586,-4.5586,-4.5586,-4.5586,-4.5586,-4.5586,-4.5586,-4.5586,-4.5586,-4.5586,-4.5586,-4.5586,-4.5586,-4.5586,-4.5586,-4.5586,-4.5586,-4.5719,-4.5815,-4.5892,-4.5902,-4.5979,-4.61,-4.6007,-4.5955,-4.5919,-4.5924,-4.5907,-4.5896,-4.5896,-4.5877,-4.5822,-4.5813,-4.4757,-4.3066,-4.1485,-4.0735,-4.0489,-4.0489,-4.0489,-4.0489,-4.0489,-4.0489,-4.0543,-4.0677,-4.0726,-4.0751,-4.0941,-4.1023,-4.1023,-4.1003,-3.9766,-3.8543,-3.838,-3.7161,-3.6055,-3.5937,-3.5957,-3.5996,-3.5996,-3.5996,-3.5996,-3.5996,-3.5996,-3.5996,-3.5996,-3.5996,-3.5957,-3.5801,-3.497,-3.406,-3.3176,-3.2247,-3.1411,-3.0694,-3.0639,-3.0661,-3.0723,-3.084,-3.0898,-3.0898,-3.0898,-3.0898,-3.0898,-3.0898,-3.0898,-3.0898,-3.0898,-3.0898,-1.6138,-1.7946,-1.9523,-1.9196,-2.1081,-2.3083,0.0,0.0,0.0,0.0,0.0,0.0,0.0,0.0,0.0,0.0,0.0,-3.8546,-4.1412,-4.222,-4.3278,0.0,-4.5586,-4.5586,-4.5586,-4.5586,-4.5586,-4.5586,-4.5586,-4.5586,-4.5586,-4.5586,-4.5586,-4.5586,-4.5586,-4.5586,-4.5586,-4.5586,-4.5586,-4.5586,-4.5643,-4.5748,-4.5863,-4.5863,-4.5905,-4.5986,-4.5926,-4.588,-4.5847,-4.5861,-4.5796,-4.5738,-4.5738,-4.5719,-4.5584,-4.4682,-4.3508,-4.222,-4.0931,-4.0489,-4.0489,-4.0489,-4.0489,-4.0489,-4.0489,-4.0489,-4.0508,-4.0581,-4.0636,-4.0713,-4.082,-4.0869,-4.0784,-4.0347,-3.9232,-3.8166,-3.7795,-3.6705,-3.5813,-3.5895,-3.5957,-3.5996,-3.5996,-3.5996,-3.5996,-3.5996,-3.5996,-3.5996,-3.5996,-3.5962,-3.5954,-3.5954,-3.5115,-3.4176,-3.328,-3.2358,-3.1499,-3.0698,-3.0645,-3.0704,-3.08,-3.0879,-3.0898,-3.0898,-3.0898,-3.0898,-3.0898,-3.0898,-3.0898,-3.0898,-3.0898,-3.0898,-1.5676,-1.7356,-1.9242,0.0,0.0,0.0,0.0,0.0,0.0,0.0,0.0,0.0,0.0,0.0,0.0,0.0,-3.8046,-4.0104,-4.1585,-4.2547,-4.3643,-4.5124,-4.547,-4.5586,-4.5586,-4.5586,-4.5586,-4.5586,-4.5586,-4.5586,-4.5586,-4.5586,-4.5586,-4.5586,-4.5586,-4.5586,-4.5586,-4.5586,-4.5586,-4.5586,-4.5624,-4.5703,-4.5796,-4.5796,-4.5834,-4.5873,-4.5834,-4.5796,-4.5757,-4.5757,-4.5699,-4.5566,-4.5374,-4.5182,-4.4816,-4.3335,-4.2374,-4.1681,-4.0796,-4.0489,-4.0489,-4.0489,-4.0489,-4.0489,-4.0489,-4.0489,-4.0489,-4.0489,-4.0581,-4.0658,-4.0696,-4.0604,-4.0364,-3.9704,-3.8709,-3.7765,-3.7198,-3.6348,-3.572,-3.5828,-3.5917,-3.5976,-3.5996,-3.5996,-3.5996,-3.5996,-3.5986,-3.5985,-3.5985,-3.5907,-3.5849,-3.5848,-3.5192,-3.4294,-3.314,-3.2102,-3.1263,-3.0717,-3.0689,-3.0734,-3.0849,-3.0875,-3.0898,-3.0898,-3.0898,-3.0898,-3.0898,-3.0898,-3.0898,-3.0898,-3.0898,-3.0898,-1.7099,-1.8241,-1.9396,-2.1004,0.0,0.0,0.0,0.0,0.0,0.0,0.0,0.0,0.0,0.0,0.0,0.0,-3.9277,-4.0739,-4.1681,-4.2547,-4.3412,-4.4297,-4.5105,-4.5586,-4.5586,-4.5586,-4.5586,-4.5586,-4.5586,-4.5586,-4.5586,-4.5586,-4.5586,-4.5586,-4.5586,-4.5586,-4.5586,-4.5586,-4.5586,-4.5586,-4.5738,-4.5776,-4.5811,-4.5811,-4.5794,-4.5796,-4.568,-4.5605,-4.5605,-4.5605,-4.5605,-4.5509,-4.4701,-4.3932,-4.3162,-4.2239,-4.1854,-4.1681,-4.0796,-4.0489,-4.0489,-4.0489,-4.0489,-4.0489,-4.0489,-4.0489,-4.0489,-4.0489,-4.0508,-4.0543,-4.0677,-4.0196,-3.9634,-3.9471,-3.8216,-3.7023,-3.68,-3.6142,-3.563,-3.5702,-3.5815,-3.5937,-3.5996,-3.5996,-3.5996,-3.5996,-3.5962,-3.5913,-3.5913,-3.5786,-3.5706,-3.572,-3.5597,-3.4822,-3.3064,-3.1487,-3.0602,-3.0602,-3.0602,-3.0634,-3.0719,-3.0825,-3.0898,-3.0898,-3.0898,-3.0898,-3.0898,-3.0898,-3.0898,-3.0898,-3.0898,-3.0898,-1.583,-1.7542,-1.925,-2.0298,0.0,0.0,0.0,0.0,0.0,0.0,0.0,0.0,0.0,0.0,0.0,-3.7661,-3.8988,-4.0219,-4.1623,-4.2085,-4.2604,-4.3451,-4.3835,-4.4047,-4.4047,-4.4047,-4.4047,-4.4047,-4.4509,-4.4778,-4.4778,-4.5297,-4.5586,-4.5586,-4.5586,-4.5586,-4.5586,-4.5586,-4.5586,-4.5586,-4.5643,-4.568,-4.568,-4.568,-4.568,-4.568,-4.5605,-4.5586,-4.5586,-4.5586,-4.5278,-4.4701,-4.3874,-4.3047,-4.2258,-4.1931,-4.147,-4.0931,-4.0604,-4.0489,-4.0489,-4.0489,-4.0489,-4.0489,-4.0489,-4.0489,-4.0489,-4.0489,-4.0489,-4.0508,-4.0562,-4.0373,-3.9899,-3.8851,-3.8083,-3.7332,-3.6246,-3.5795,-3.5624,-3.5689,-3.5802,-3.5918,-3.5996,-3.5996,-3.5986,-3.5939,-3.5921,-3.5872,-3.5795,-3.57,-3.5434,-3.4885,-3.3833,-3.291,-3.2218,-3.1141,-3.0527,-3.0602,-3.0645,-3.0715,-3.0828,-3.087,-3.0898,-3.0898,-3.0898,-3.0898,-3.0898,-3.0898,-3.0898,-3.0898,-3.0898,-3.0898,-1.5445,-1.7603,-1.9884,0.0,0.0,0.0,0.0,0.0,0.0,0.0,0.0,0.0,0.0,0.0,0.0,0.0,-3.9123,-4.0085,-4.1239,-4.1643,-4.2027,-4.2624,-4.2931,-4.3104,-4.3104,-4.3104,-4.3104,-4.3104,-4.3605,-4.3912,-4.3912,-4.4489,-4.4797,-4.4797,-4.4797,-4.4797,-4.4797,-4.4797,-4.4797,-4.4797,-4.4797,-4.5086,-4.5586,-4.5586,-4.5451,-4.5182,-4.5182,-4.5047,-4.4797,-4.4797,-4.4297,-4.3451,-4.2893,-4.2162,-4.1393,-4.1393,-4.1008,-4.0489,-4.0489,-4.0489,-4.0489,-4.0489,-4.0489,-4.0489,-4.0489,-4.0489,-4.0489,-4.0489,-4.0489,-4.0431,-4.0181,-3.9931,-3.9456,-3.8342,-3.7649,-3.693,-3.5815,-3.5603,-3.5622,-3.5699,-3.5812,-3.5923,-3.5995,-3.5996,-3.5988,-3.59,-3.5853,-3.5795,-3.568,-3.5622,-3.5334,-3.4737,-3.3122,-3.2083,-3.2083,-3.1121,-3.0519,-3.0568,-3.0623,-3.0736,-3.0898,-3.0898,-3.0898,-3.0898,-3.0898,-3.0898,-3.0898,-3.0898,-3.0898,-3.0898,-3.0898,-3.0898,-1.6484,-1.8786,0.0,0.0,0.0,0.0,0.0,0.0,0.0,0.0,0.0,0.0,0.0,0.0,0.0,-3.9008,-3.9969,-4.0489,-4.0489,-4.1239,-4.1797,-4.1797,-4.2547,-4.3085,-4.3085,-4.3085,-4.3085,-4.3085,-4.3085,-4.3085,-4.3085,-4.3104,-4.3104,-4.3104,-4.3104,-4.3104,-4.3104,-4.3104,-4.3104,-4.3104,-4.3104,-4.397,-4.5566,-4.5566,-4.5105,-4.4297,-4.4297,-4.3835,-4.3104,-4.3085,-4.2585,-4.1797,-4.1797,-4.1258,-4.0489,-4.0489,-4.0489,-4.0489,-4.0489,-4.0489,-4.0489,-4.0489,-4.0489,-4.0489,-4.0489,-4.0489,-4.0489,-4.0489,-4.0489,-4.0296,-3.9488,-3.87,-3.807,-3.8007,-3.6776,-3.5603,-3.5526,-3.5565,-3.5622,-3.568,-3.5815,-3.5927,-3.5989,-3.5996,-3.5988,-3.59,-3.5795,-3.568,-3.5622,-3.5526,-3.5474,-3.5488,-3.393,-3.2891,-3.2872,-3.1429,-3.0507,-3.0502,-3.0549,-3.0685,-3.0898,-3.0898,-3.0898,-3.0898,-3.0898,-3.0898,-3.0898,-3.0898,-3.0898,-3.0898,-3.0898,-3.0898,-1.605,0.0,0.0,0.0,0.0,0.0,0.0,0.0,0.0,0.0,0.0,0.0,0.0,0.0,0.0,-3.9123,-3.9488,-3.9835,-4.0412,-4.0719,-4.0893,-4.0893,-4.1104,-4.1258,-4.1258,-4.1258,-4.1258,-4.1258,-4.1835,-4.22,-4.22,-4.2777,-4.3104,-4.3104,-4.3104,-4.3104,-4.3104,-4.3104,-4.3104,-4.3104,-4.3104,-4.3355,-4.3835,-4.3835,-4.3701,-4.3451,-4.3451,-4.3316,-4.3047,-4.245,-4.2027,-4.1739,-4.1123,-4.0719,-4.0489,-4.0489,-4.0489,-4.0489,-4.0489,-4.0489,-4.0489,-4.0489,-4.0489,-4.0489,-4.0489,-4.0489,-4.0373,-3.9815,-3.9662,-3.945,-3.8604,-3.7757,-3.7123,-3.7103,-3.6719,-3.6219,-3.5641,-3.5565,-3.5612,-3.5698,-3.5805,-3.5927,-3.5989,-3.5996,-3.5988,-3.59,-3.5795,-3.5661,-3.5545,-3.4988,-3.4353,-3.3737,-3.2699,-3.1814,-3.1198,-3.0756,-3.051,-3.0507,-3.0558,-3.0651,-3.0742,-3.0762,-3.0801,-3.0898,-3.0898,-3.0898,-3.0898,-3.0898,-3.0898,-3.0898,-3.0898,-3.0898,-1.7137,0.0,0.0,0.0,0.0,0.0,0.0,0.0,0.0,0.0,0.0,0.0,-3.9142,-3.8873,0.0,-3.9642,-3.9777,-3.995,-4.0431,-4.0489,-4.0489,-4.0489,-4.0489,-4.0489,-4.0489,-4.0489,-4.0489,-4.0489,-4.0989,-4.1277,-4.1277,-4.1777,-4.2066,-4.2066,-4.2066,-4.2066,-4.2066,-4.2066,-4.2066,-4.2066,-4.2066,-4.2066,-4.2085,-4.2777,-4.2912,-4.2566,-4.222,-4.2066,-4.2027,-4.1508,-4.1277,-4.1239,-4.07,-4.0489,-4.0489,-4.0489,-4.0489,-4.0489,-4.0489,-4.0489,-4.0489,-4.0489,-4.0489,-4.0431,-4.0123,-4.0008,-3.9835,-3.9008,-3.8777,-3.8584,-3.7719,-3.7084,-3.6699,-3.6699,-3.6469,-3.6103,-3.5641,-3.5603,-3.5669,-3.5756,-3.5862,-3.595,-3.5993,-3.6009,-3.5953,-3.5834,-3.5714,-3.5603,-3.5526,-3.4737,-3.3987,-3.3468,-3.2391,-3.1487,-3.0968,-3.0641,-3.0467,-3.0467,-3.0506,-3.054,-3.0624,-3.0675,-3.0742,-3.082,-3.0879,-3.0898,-3.0898,-3.0898,-3.0898,-3.0898,-3.0898,-3.0898,0.0,0.0,0.0,0.0,0.0,0.0,0.0,0.0,0.0,0.0,0.0,-3.8142,-3.9008,-3.9238,-3.9527,-4.0258,-4.045,-4.0489,-4.0489,-4.0489,-4.0489,-4.0489,-4.0489,-4.0489,-4.0489,-4.0489,-4.0489,-4.0489,-4.0489,-4.0489,-4.0489,-4.0489,-4.0489,-4.0489,-4.0489,-4.0489,-4.0489,-4.0489,-4.0489,-4.0489,-4.0489,-4.0489,-4.0546,-4.2143,-4.2431,-4.1643,-4.0835,-4.0489,-4.0489,-4.0489,-4.0489,-4.0489,-4.0489,-4.0489,-4.0489,-4.0489,-4.0489,-4.0489,-4.0489,-4.0489,-4.0489,-4.0489,-4.045,-4.0239,-3.9508,-3.9238,-3.8988,-3.8123,-3.7873,-3.768,-3.6815,-3.6603,-3.6603,-3.6603,-3.6045,-3.5526,-3.5584,-3.5636,-3.574,-3.5868,-3.595,-3.5996,-3.5996,-3.6001,-3.5931,-3.5721,-3.5596,-3.5526,-3.5493,-3.4814,-3.4257,-3.4103,-3.2718,-3.1756,-3.1583,-3.0871,-3.0398,-3.0398,-3.0398,-3.0417,-3.0487,-3.0624,-3.0682,-3.0703,-3.082,-3.0898,-3.0898,-3.0898,-3.0898,-3.0898,-3.0898,-3.0898,0.0,0.0,0.0,0.0,0.0,0.0,0.0,0.0,0.0,0.0,0.0,-3.7257,-3.8123,-3.8834,-3.9354,-3.9527,-4.0085,-4.0489,-4.0489,-4.0489,-4.0489,-4.0489,-4.0489,-4.0489,-4.0489,-4.0489,-4.0489,-4.0489,-4.0489,-4.0489,-4.0489,-4.0489,-4.0489,-4.0489,-4.0489,-4.0489,-4.0489,-4.0489,-4.0489,-4.0489,-4.0489,-4.0489,-4.0508,-4.0893,-4.095,-4.0758,-4.0566,-4.0489,-4.0489,-4.0489,-4.0489,-4.0489,-4.0489,-4.0489,-4.0489,-4.0489,-4.0489,-4.0489,-4.0489,-4.0489,-4.0489,-4.0489,-4.0065,-3.9527,-3.9354,-3.8815,-3.8104,-3.7219,-3.6988,-3.6796,-3.5968,-3.5757,-3.5757,-3.5757,-3.5641,-3.5493,-3.5526,-3.557,-3.566,-3.5724,-3.5838,-3.5937,-3.5996,-3.5994,-3.5931,-3.5731,-3.5695,-3.5622,-3.5526,-3.5353,-3.4699,-3.3333,-3.2852,-3.2102,-3.0794,-3.0513,-3.0398,-3.0398,-3.0398,-3.0398,-3.0417,-3.0549,-3.0646,-3.0703,-3.082,-3.0898,-3.0898,-3.0898,-3.0898,-3.0898,-3.0898,-3.0898,0.0,0.0,0.0,0.0,0.0,0.0,0.0,0.0,0.0,0.0,-3.614,-3.6677,-3.7281,-3.797,-3.8498,-3.8498,-3.8843,-3.9112,-3.9112,-3.9231,-3.9296,-3.9296,-3.9296,-3.9296,-3.9296,-3.9296,-3.9469,-3.9892,-3.9931,-4.0085,-4.0469,-4.0489,-4.0489,-4.0489,-4.0489,-4.0489,-4.0489,-4.0489,-4.0489,-4.0489,-4.0489,-4.0489,-4.0489,-4.0489,-4.0489,-4.0489,-4.0489,-4.0489,-4.0489,-4.0489,-4.0489,-4.0489,-4.0489,-4.0489,-4.0489,-4.0489,-4.0489,-4.0431,-4.0046,-3.9931,-3.9854,-3.9431,-3.9008,-3.8604,-3.818,-3.7738,-3.7199,-3.6372,-3.6142,-3.6045,-3.5622,-3.5493,-3.5493,-3.5493,-3.5493,-3.5526,-3.5545,-3.5579,-3.5615,-3.5688,-3.5817,-3.5918,-3.5957,-3.5957,-3.5882,-3.5718,-3.5669,-3.5622,-3.5526,-3.5141,-3.4372,-3.3045,-3.2564,-3.1795,-3.0513,-3.0398,-3.0398,-3.0398,-3.0398,-3.0398,-3.0398,-3.0506,-3.0568,-3.0591,-3.0736,-3.0801,-3.0801,-3.0879,-3.0898,-3.0898,-3.0898,-3.0898,0.0,0.0,0.0,0.0,0.0,0.0,0.0,0.0,0.0,0.0,-3.5268,-3.6077,-3.6316,-3.6889,-3.7317,-3.7373,-3.7487,-3.7619,-3.7655,-3.7859,-3.8007,-3.8007,-3.8007,-3.8007,-3.8007,-3.8007,-3.8296,-3.9008,-3.9084,-3.9373,-4.0027,-4.0065,-4.0065,-4.0065,-4.0065,-4.0065,-4.0065,-4.0065,-4.0065,-4.0065,-4.0065,-4.0065,-4.0065,-4.0065,-4.0219,-4.0489,-4.0489,-4.0489,-4.0489,-4.0489,-4.0489,-4.0489,-4.0489,-4.0412,-4.0277,-4.0277,-4.02,-3.9969,-3.9296,-3.9084,-3.895,-3.8238,-3.7892,-3.7642,-3.693,-3.6603,-3.6353,-3.5699,-3.5493,-3.5493,-3.5493,-3.5493,-3.5493,-3.5493,-3.5493,-3.5526,-3.5584,-3.5584,-3.5603,-3.568,-3.5801,-3.5898,-3.5918,-3.5918,-3.5872,-3.571,-3.5657,-3.5603,-3.5526,-3.4872,-3.4026,-3.3006,-3.2295,-3.1506,-3.0475,-3.0398,-3.0398,-3.0398,-3.0398,-3.0398,-3.0398,-3.0448,-3.0488,-3.0507,-3.0622,-3.0717,-3.0723,-3.0859,-3.0898,-3.0898,-3.0898,-3.0898,0.0,0.0,0.0,0.0,0.0,0.0,0.0,0.0,0.0,0.0,-3.4137,-3.4905,-3.4964,-3.5607,-3.6196,-3.6441,-3.7106,-3.7672,-3.7909,-3.7973,-3.8007,-3.8007,-3.8007,-3.8007,-3.8007,-3.8007,-3.8046,-3.8161,-3.8161,-3.8219,-3.8334,-3.8334,-3.8334,-3.8334,-3.8334,-3.8334,-3.8334,-3.8334,-3.8334,-3.8334,-3.8334,-3.8334,-3.8334,-3.8334,-3.9123,-4.0489,-4.0489,-4.0489,-4.0489,-4.0489,-4.0489,-4.0489,-4.0489,-4.0065,-3.945,-3.945,-3.8969,-3.8315,-3.82,-3.8161,-3.8142,-3.8046,-3.7488,-3.6853,-3.6738,-3.6219,-3.5641,-3.5532,-3.5493,-3.5493,-3.5493,-3.5493,-3.5493,-3.5493,-3.5493,-3.5493,-3.5526,-3.5526,-3.5545,-3.5603,-3.5762,-3.5918,-3.5976,-3.5996,-3.5911,-3.5729,-3.5695,-3.5641,-3.5526,-3.5411,-3.4699,-3.3064,-3.2795,-3.2102,-3.0533,-3.0398,-3.0398,-3.0398,-3.0398,-3.0398,-3.0398,-3.0398,-3.0441,-3.0502,-3.0634,-3.0756,-3.0879,-3.0898,-3.0898,-3.0898,-3.0898,-3.0898,0.0,0.0,0.0,0.0,0.0,0.0,0.0,0.0,0.0,-3.1985,-3.2497,-3.3224,-3.4463,-3.4977,-3.5283,-3.5382,-3.5854,-3.6243,-3.6364,-3.6492,-3.6603,-3.6603,-3.6603,-3.6603,-3.6603,-3.6603,-3.6796,-3.7238,-3.7276,-3.7488,-3.7969,-3.8007,-3.8007,-3.8007,-3.8007,-3.8007,-3.8007,-3.8007,-3.8007,-3.8007,-3.8007,-3.8007,-3.8007,-3.8007,-3.8392,-3.9104,-3.9104,-3.9104,-3.9104,-3.9104,-3.9104,-3.9104,-3.9104,-3.8873,-3.8565,-3.8565,-3.8334,-3.793,-3.745,-3.7276,-3.7199,-3.6757,-3.6353,-3.6045,-3.6045,-3.5795,-3.5493,-3.5493,-3.5493,-3.5493,-3.5493,-3.5493,-3.5493,-3.5493,-3.5493,-3.5493,-3.5493,-3.5493,-3.5526,-3.5603,-3.5693,-3.5815,-3.5937,-3.5942,-3.5905,-3.5825,-3.5717,-3.5622,-3.5565,-3.5526,-3.4834,-3.3083,-3.2891,-3.2218,-3.0533,-3.0398,-3.0398,-3.0398,-3.0398,-3.0398,-3.0398,-3.0398,-3.0448,-3.0544,-3.0608,-3.0684,-3.0788,-3.0862,-3.0898,-3.0898,-3.0898,-3.0898,0.0,0.0,0.0,0.0,0.0,0.0,0.0,0.0,-3.0081,0.0,-3.1109,-3.1906,-3.3556,-3.4033,-3.4186,-3.4271,-3.4603,-3.4925,-3.5088,-3.5273,-3.5432,-3.5493,-3.5493,-3.5493,-3.5493,-3.5493,-3.5757,-3.6353,-3.6411,-3.668,-3.7334,-3.7353,-3.7353,-3.7353,-3.7353,-3.7353,-3.7353,-3.7353,-3.7353,-3.7353,-3.7353,-3.7353,-3.7353,-3.7353,-3.7353,-3.7392,-3.7815,-3.8007,-3.8007,-3.8007,-3.8007,-3.8007,-3.8007,-3.7853,-3.768,-3.768,-3.7546,-3.7276,-3.6622,-3.6411,-3.6315,-3.5699,-3.5493,-3.5493,-3.5493,-3.5493,-3.5493,-3.5493,-3.5493,-3.5493,-3.5493,-3.5493,-3.5493,-3.5493,-3.5493,-3.5493,-3.5493,-3.5493,-3.5526,-3.5622,-3.5646,-3.573,-3.5895,-3.5885,-3.5853,-3.5845,-3.5698,-3.5603,-3.5584,-3.5353,-3.4584,-3.3064,-3.2718,-3.2006,-3.0533,-3.0398,-3.0398,-3.0398,-3.0398,-3.0398,-3.0398,-3.0398,-3.0467,-3.0564,-3.0587,-3.0639,-3.075,-3.0849,-3.0898,-3.0898,-3.0898,-3.0898,0.0,0.0,0.0,0.0,0.0,0.0,0.0,0.0,0.0,-2.9104,-3.0338,-3.1446,-3.1544,-3.2187,-3.2785,-3.3059,-3.3743,-3.4449,-3.5016,-3.5105,-3.5207,-3.5479,-3.5493,-3.5493,-3.5493,-3.5493,-3.5526,-3.5565,-3.5565,-3.5584,-3.5641,-3.5641,-3.5641,-3.5641,-3.5641,-3.5641,-3.5641,-3.5641,-3.5641,-3.5641,-3.5641,-3.5641,-3.5641,-3.5641,-3.5641,-3.5718,-3.7315,-3.8007,-3.8007,-3.8007,-3.8007,-3.8007,-3.8007,-3.7507,-3.6776,-3.6776,-3.6276,-3.5622,-3.5584,-3.5565,-3.5565,-3.5512,-3.5493,-3.5493,-3.5493,-3.5493,-3.5493,-3.5493,-3.5493,-3.5493,-3.5493,-3.5493,-3.5493,-3.5493,-3.5493,-3.5493,-3.5493,-3.5493,-3.5545,-3.568,-3.5655,-3.5687,-3.595,-3.5834,-3.5704,-3.5695,-3.5649,-3.5584,-3.5526,-3.4776,-3.391,-3.3006,-3.2218,-3.1391,-3.0475,-3.0398,-3.0398,-3.0398,-3.0398,-3.0398,-3.0398,-3.0398,-3.0417,-3.0506,-3.0568,-3.0704,-3.0897,-3.0898,-3.0898,-3.0898,-3.0898,-3.0898,0.0,0.0,0.0,0.0,0.0,0.0,0.0,-2.5933,-2.7475,-2.7475,-2.8338,-2.909,-2.909,-3.0729,-3.2112,-3.2206,-3.2747,-3.3257,-3.3484,-3.3941,-3.4366,-3.4614,-3.5009,-3.5304,-3.5493,-3.5493,-3.5493,-3.5493,-3.5493,-3.5493,-3.5493,-3.5493,-3.5493,-3.5493,-3.5493,-3.5493,-3.5493,-3.5493,-3.5493,-3.5493,-3.5493,-3.5493,-3.5493,-3.5493,-3.5493,-3.5532,-3.6142,-3.6411,-3.6411,-3.6411,-3.6411,-3.6411,-3.6411,-3.6199,-3.593,-3.593,-3.5757,-3.5493,-3.5493,-3.5493,-3.5493,-3.5493,-3.5493,-3.5493,-3.5493,-3.5493,-3.5493,-3.5493,-3.5493,-3.5493,-3.5493,-3.5493,-3.5526,-3.5565,-3.5565,-3.5579,-3.5631,-3.5639,-3.5641,-3.5699,-3.568,-3.5682,-3.5795,-3.5718,-3.5647,-3.5694,-3.5622,-3.5353,-3.4795,-3.441,-3.366,-3.2275,-3.1872,-3.1352,-3.0456,-3.0398,-3.0398,-3.0398,-3.0398,-3.0398,-3.0398,-3.0398,-3.0448,-3.0564,-3.0586,-3.0659,-3.0762,-3.0859,-3.0898,-3.0898,-3.0898,-3.0898,0.0,0.0,0.0,0.0,0.0,0.0,0.0,0.0,-2.5474,-2.575,-2.6649,-2.7402,-2.7402,-2.8867,-3.033,-3.1147,-3.1802,-3.2241,-3.233,-3.2857,-3.3372,-3.3643,-3.4064,-3.4393,-3.4506,-3.4581,-3.4595,-3.452,-3.4581,-3.4641,-3.4641,-3.4641,-3.4641,-3.4641,-3.4911,-3.5064,-3.5064,-3.5353,-3.5493,-3.5493,-3.5493,-3.5493,-3.5493,-3.5493,-3.5493,-3.5493,-3.5493,-3.5493,-3.5493,-3.5493,-3.5493,-3.5493,-3.5493,-3.5493,-3.5493,-3.5493,-3.5493,-3.5493,-3.5493,-3.5493,-3.5493,-3.5493,-3.5493,-3.5493,-3.5493,-3.5493,-3.5493,-3.5493,-3.5493,-3.5493,-3.5493,-3.5526,-3.5565,-3.5622,-3.568,-3.5708,-3.5757,-3.5727,-3.5705,-3.5765,-3.5733,-3.5724,-3.5803,-3.5699,-3.5526,-3.5328,-3.5161,-3.4757,-3.393,-3.3564,-3.2929,-3.1814,-3.1448,-3.1025,-3.0436,-3.0398,-3.0398,-3.0398,-3.0398,-3.0398,-3.0398,-3.0398,-3.0448,-3.0564,-3.0586,-3.0626,-3.0708,-3.0834,-3.0898,-3.0898,-3.0898,-3.0898,0.0,0.0,0.0,0.0,0.0,0.0,-2.186,0.0,-2.3107,-2.3951,-2.5383,-2.6521,-2.6557,-2.6594,-2.7383,-2.9714,-3.076,-3.1402,-3.1704,-3.1973,-3.2276,-3.2515,-3.2746,-3.2793,-3.26,-3.2766,-3.2793,-3.2615,-3.2779,-3.2891,-3.2891,-3.2891,-3.2891,-3.2891,-3.3718,-3.416,-3.416,-3.5007,-3.543,-3.543,-3.543,-3.543,-3.543,-3.543,-3.5449,-3.5468,-3.5468,-3.5488,-3.5493,-3.5493,-3.5493,-3.5493,-3.5493,-3.5493,-3.5493,-3.5493,-3.5493,-3.5493,-3.5493,-3.5493,-3.5493,-3.5493,-3.5493,-3.5493,-3.5493,-3.5493,-3.5493,-3.5493,-3.5493,-3.5493,-3.5493,-3.5565,-3.5622,-3.5699,-3.5815,-3.5892,-3.5892,-3.5805,-3.5757,-3.5881,-3.5805,-3.5768,-3.5952,-3.5751,-3.5309,-3.4604,-3.4302,-3.3853,-3.2987,-3.2179,-3.1698,-3.166,-3.091,-3.0398,-3.0398,-3.0398,-3.0398,-3.0398,-3.0398,-3.0398,-3.0398,-3.0398,-3.0417,-3.0506,-3.056,-3.0653,-3.0714,-3.0833,-3.0898,-3.0898,-3.0898,-3.0898,-0.9903,0.0,0.0,0.0,0.0,0.0,0.0,0.0,-2.0023,-2.2042,-2.3272,-2.4355,-2.5511,-2.6209,-2.6833,-2.7493,-2.8384,-2.9256,-2.9971,-3.0752,-3.1316,-3.1442,-3.2024,-3.2383,-3.2312,-3.2364,-3.2447,-3.2584,-3.2645,-3.2752,-3.2891,-3.2891,-3.2891,-3.2891,-3.3122,-3.3256,-3.3256,-3.3506,-3.3622,-3.3622,-3.3622,-3.3622,-3.3622,-3.3622,-3.3968,-3.4564,-3.4564,-3.493,-3.5493,-3.5493,-3.5493,-3.5493,-3.5493,-3.5493,-3.5493,-3.5493,-3.5493,-3.5493,-3.5493,-3.5493,-3.5493,-3.5493,-3.5493,-3.5493,-3.5493,-3.5493,-3.5493,-3.5493,-3.5493,-3.5526,-3.5565,-3.5603,-3.5641,-3.5815,-3.5872,-3.5911,-3.5963,-3.5947,-3.5923,-3.5978,-3.5896,-3.5828,-3.5795,-3.5166,-3.4582,-3.4315,-3.3712,-3.2968,-3.2141,-3.1833,-3.1468,-3.0833,-3.0533,-3.0398,-3.0398,-3.0398,-3.0398,-3.0398,-3.0398,-3.0398,-3.0398,-3.0448,-3.0506,-3.0564,-3.0642,-3.0723,-3.0843,-3.0875,-3.0898,-3.0898,-3.0898,-3.0898,0.0,0.0,0.0,0.0,0.0,0.0,-1.6353,-1.7179,-1.8207,-2.0317,-2.14,-2.2354,-2.3676,-2.4557,-2.5217,-2.5548,-2.637,-2.7284,-2.8116,-2.8801,-2.9363,-2.9739,-3.03,-3.0788,-3.1127,-3.1216,-3.1352,-3.1501,-3.1628,-3.173,-3.184,-3.1872,-3.1872,-3.1872,-3.2218,-3.241,-3.241,-3.2737,-3.2891,-3.2891,-3.2891,-3.2891,-3.2891,-3.2891,-3.3179,-3.366,-3.366,-3.3949,-3.443,-3.443,-3.4853,-3.5493,-3.5493,-3.5493,-3.5493,-3.5493,-3.5493,-3.5493,-3.5493,-3.5493,-3.5493,-3.5493,-3.5493,-3.5493,-3.5493,-3.5493,-3.5493,-3.5493,-3.5493,-3.5526,-3.5584,-3.5611,-3.5678,-3.5868,-3.5897,-3.5911,-3.5949,-3.564,-3.5496,-3.5918,-3.5949,-3.5756,-3.5316,-3.471,-3.4047,-3.3313,-3.275,-3.2102,-3.1256,-3.116,-3.0968,-3.0436,-3.0398,-3.0398,-3.0398,-3.0398,-3.0398,-3.0398,-3.0398,-3.0398,-3.0398,-3.0467,-3.0524,-3.0598,-3.067,-3.0762,-3.0898,-3.0898,-3.0898,-3.0898,-3.0898,-3.0703,-1.3563,-1.3692,0.0,0.0,-1.5783,0.0,-1.7243,-1.7188,-1.7202,-1.872,-1.9601,-2.0374,-2.1345,-2.2189,-2.296,-2.3676,-2.4538,-2.5474,-2.6465,-2.6764,-2.7158,-2.7847,-2.8163,-2.8602,-2.9322,-2.9545,-2.9669,-2.9713,-2.9966,-3.016,-3.0256,-3.0256,-3.0302,-3.0398,-3.116,-3.1564,-3.1564,-3.2275,-3.2622,-3.2622,-3.2622,-3.2622,-3.2622,-3.2622,-3.2679,-3.2776,-3.2776,-3.2814,-3.2891,-3.2891,-3.3814,-3.5218,-3.5218,-3.5218,-3.5218,-3.5218,-3.5218,-3.5218,-3.5218,-3.5218,-3.5218,-3.5218,-3.5218,-3.5218,-3.5218,-3.5218,-3.5218,-3.5218,-3.5218,-3.5238,-3.5315,-3.5377,-3.5451,-3.5577,-3.5599,-3.5599,-3.5597,-3.4943,-3.4612,-3.5515,-3.5636,-3.5342,-3.4569,-3.4192,-3.35,-3.2011,-3.1653,-3.1275,-3.0494,-3.0398,-3.0398,-3.0398,-3.0398,-3.0398,-3.0398,-3.0398,-3.0398,-3.0398,-3.0398,-3.0398,-3.0398,-3.0487,-3.0549,-3.0614,-3.0597,-3.0632,-3.0762,-3.0762,-3.0762,-3.0742,-3.0664,-3.0195,-1.528,-1.6086,-1.6904,-1.5731,-1.6436,0.0,-1.5271,-1.5418,-1.6206,-1.7165,-1.7495,-1.8045,-1.951,-2.0446,-2.1035,-2.12,-2.2501,-2.4208,-2.63,-2.6764,-2.6897,-2.6882,-2.7083,-2.7269,-2.7438,-2.7475,-2.7648,-2.797,-2.8241,-2.8659,-2.9313,-2.9352,-2.9679,-3.0379,-3.0552,-3.0648,-3.0648,-3.0814,-3.0891,-3.0891,-3.0891,-3.0891,-3.0891,-3.0891,-3.1275,-3.1929,-3.1929,-3.2295,-3.2891,-3.2891,-3.3103,-3.341,-3.341,-3.341,-3.341,-3.341,-3.341,-3.341,-3.341,-3.341,-3.341,-3.341,-3.341,-3.341,-3.341,-3.341,-3.341,-3.341,-3.341,-3.3449,-3.3557,-3.359,-3.3633,-3.3698,-3.3731,-3.3727,-3.3723,-3.3569,-3.3514,-3.3713,-3.3746,-3.366,-3.3439,-3.2774,-3.2165,-3.1788,-3.1102,-3.059,-3.0417,-3.0398,-3.0398,-3.0398,-3.0398,-3.0398,-3.0398,-3.0398,-3.0398,-3.0398,-3.0398,-3.0417,-3.0487,-3.0544,-3.0606,-3.0692,-3.0102,-2.9835,-2.9844,-2.9844,-2.9844,-2.9844,-2.9121,-2.8711,-1.706,-1.7723,-1.8471,-1.7448,-1.7942,0.0,0.0,-1.62,-1.6646,-1.7858,-1.7458,-1.7385,-1.8996,-1.962,-1.9895,-1.9895,-2.1308,-2.2813,-2.4043,-2.4986,-2.5651,-2.5972,-2.619,-2.6487,-2.6985,-2.7142,-2.735,-2.7675,-2.7827,-2.8082,-2.8467,-2.8486,-2.889,-2.9737,-2.9756,-2.9967,-3.0398,-3.0398,-3.0398,-3.0398,-3.0398,-3.0398,-3.0398,-3.0398,-3.0641,-3.1064,-3.1064,-3.1275,-3.166,-3.166,-3.166,-3.1737,-3.2564,-3.2891,-3.2891,-3.2891,-3.2891,-3.2891,-3.2891,-3.2891,-3.2891,-3.2891,-3.2891,-3.2891,-3.2891,-3.2891,-3.2891,-3.2891,-3.2891,-3.2929,-3.2974,-3.3051,-3.3114,-3.3142,-3.3151,-3.3151,-3.3152,-3.2788,-3.2461,-3.2447,-3.2095,-3.1951,-3.2393,-3.2069,-3.1595,-3.1121,-3.0679,-3.0398,-3.0398,-3.0398,-3.0398,-3.0398,-3.0398,-3.0398,-3.0398,-3.0398,-3.0398,-3.0398,-3.0398,-3.0417,-3.0506,-3.0569,-3.0471,-3.0152,-2.9791,-2.9394,-2.8945,-2.8516,-2.8535,-2.8945,-2.8496,-2.8055,-1.9331,-1.9586,-2.0013,-1.9772,-1.9861,-1.9675,0.0,0.0,0.0,-1.8629,-1.7789,-1.7293,0.0,0.0,-1.8831,-1.8831,-2.0225,-2.127,-2.1123,-2.25,-2.3842,-2.4633,-2.5041,-2.5568,-2.6461,-2.6591,-2.6821,-2.736,-2.7101,-2.7121,-2.7621,-2.764,-2.8025,-2.8832,-2.9006,-2.9429,-3.014,-3.0321,-3.0398,-3.0398,-3.0398,-3.0398,-3.0398,-3.0398,-3.0398,-3.0398,-3.0398,-3.0398,-3.0398,-3.0398,-3.0398,-3.0533,-3.1891,-3.2429,-3.2429,-3.2429,-3.2429,-3.2429,-3.2429,-3.2429,-3.2429,-3.2429,-3.2429,-3.2429,-3.2429,-3.2429,-3.2429,-3.2429,-3.2429,-3.2429,-3.2429,-3.2499,-3.2576,-3.2576,-3.2576,-3.2576,-3.2576,-3.198,-3.1448,-3.1448,-3.0891,-3.0641,-3.1395,-3.1499,-3.1218,-3.0513,-3.0398,-3.0398,-3.0398,-3.0398,-3.0398,-3.0398,-3.0398,-3.0398,-3.0398,-3.0398,-3.0398,-3.0398,-3.0398,-3.0417,-3.0506,-3.0579,-3.0294,-2.9609,-2.9434,-2.8926,-2.8047,-2.7168,-2.7207,-2.8047,-2.7871,-2.7394,-2.2772,-2.2784,-2.2574,-2.1443,-2.1863,-2.1733,-1.8471,0.0,-1.8665,-1.7422,0.0,-1.6963,0.0,0.0,0.0,-1.7165,-1.8537,-1.9326,-1.8629,-2.0018,-2.1408,-2.2293,-2.3084,-2.372,-2.4157,-2.3666,-2.3967,-2.5476,-2.4216,-2.437,-2.664,-2.6755,-2.714,-2.8005,-2.8717,-2.914,-2.9236,-3.0006,-3.0398,-3.0398,-3.0398,-3.0398,-3.0398,-3.0398,-3.0398,-3.0398,-3.0398,-3.0398,-3.0398,-3.0398,-3.0398,-3.0417,-3.0609,-3.0667,-3.0667,-3.0667,-3.0667,-3.0667,-3.0667,-3.0667,-3.0667,-3.0667,-3.0667,-3.0667,-3.0667,-3.0667,-3.0667,-3.0667,-3.0667,-3.0667,-3.0667,-3.0698,-3.0717,-3.0717,-3.0717,-3.0717,-3.0717,-3.0621,-3.0552,-3.0552,-3.0456,-3.0417,-3.0544,-3.0564,-3.0513,-3.0398,-3.0398,-3.0398,-3.0398,-3.0398,-3.0398,-3.0398,-3.0398,-3.0398,-3.0398,-3.0398,-3.0398,-3.0398,-3.0398,-3.0417,-3.0506,-3.0628,-3.0351,-2.9609,-2.8848,-2.8027,-2.7148,-2.6269,-2.6309,-2.7129,-2.6367,-2.5905,-2.2881,-2.3051,-2.3176,-2.217,-2.2263,-2.2039,-1.9985,-1.9501,-1.9368,-1.9066,0.0,0.0,0.0,0.0,0.0,0.0,-1.7458,-1.7638,-1.6812,-1.7378,-1.853,-2.0325,-2.1025,-2.1668,-2.2403,-2.267,-2.3081,-2.3793,-2.3197,-2.3485,-2.5063,-2.5582,-2.6255,-2.7121,-2.7467,-2.789,-2.839,-2.9236,-2.964,-2.964,-3.016,-3.0398,-3.0398,-3.0398,-3.0398,-3.0398,-3.0398,-3.0398,-3.0398,-3.0398,-3.0398,-3.0398,-3.0398,-3.0398,-3.0398,-3.0398,-3.0398,-3.0398,-3.0398,-3.0398,-3.0398,-3.0398,-3.0398,-3.0398,-3.0398,-3.0398,-3.0398,-3.0398,-3.0398,-3.0398,-3.0398,-3.0398,-3.0398,-3.0398,-3.0398,-3.0398,-3.0398,-3.0398,-3.0398,-3.0398,-3.0398,-3.0398,-3.0398,-3.0398,-3.0398,-3.0398,-3.0398,-3.0398,-3.0398,-3.0398,-3.0398,-3.0398,-3.0398,-3.0398,-3.0398,-3.0398,-3.0398,-3.0398,-3.0448,-3.0237,-2.9775,-2.9905,-2.9375,-2.8066,-2.7715,-2.7129,-2.623,-2.5879,-2.5898,-2.623,-2.5879,-2.5655,-2.3246,-2.348,-2.3644,-2.2577,-2.2299,-2.1996,-2.0792,-2.026,-2.0065,-2.0263,-1.952,0.0,0.0,0.0,-1.7477,0.0,0.0,-1.6825,-1.5606,-1.5484,-1.6265,-1.8291,-1.9198,-2.0041,-2.102,-2.1284,-2.1696,-2.2389,-2.2023,-2.2436,-2.4014,-2.4639,-2.537,-2.6217,-2.6486,-2.6909,-2.7544,-2.8352,-2.8775,-2.8775,-2.941,-2.9833,-3.0044,-3.0044,-3.0179,-3.0398,-3.0398,-3.0398,-3.0398,-3.0398,-3.0398,-3.0398,-3.0398,-3.0398,-3.0398,-3.0398,-3.0398,-3.0398,-3.0398,-3.0398,-3.0398,-3.0398,-3.0398,-3.0398,-3.0398,-3.0398,-3.0398,-3.0398,-3.0398,-3.0398,-3.0398,-3.0398,-3.0398,-3.0398,-3.0398,-3.0398,-3.0398,-3.0398,-3.0398,-3.0398,-3.0398,-3.0398,-3.0398,-3.0398,-3.0398,-3.0398,-3.0398,-3.0398,-3.0398,-3.0398,-3.0398,-3.0398,-3.0398,-3.0398,-3.0398,-3.0398,-3.0398,-3.0398,-3.0217,-2.9833,-2.9228,-2.9135,-2.8403,-2.6934,-2.693,-2.652,-2.5703,-2.5684,-2.566,-2.5673,-2.5681,-2.5643,-2.4989,-2.4922,-2.4524,-2.2735,-2.2299,-2.1884,-2.0212,-2.0462,-2.0814,-1.9986,-2.0307,-2.0723,-2.0755,-1.9904,0.0,0.0,0.0,0.0,0.0,-1.4785,-1.5132,-1.5921,-1.7681,-1.9181,-2.0059,-1.8766,-1.8888,-2.137,-2.005,-2.0589,-2.3918,-2.4129,-2.4505,-2.5322,-2.6159,-2.6621,-2.664,-2.7505,-2.7928,-2.7928,-2.7967,-2.839,-2.914,-2.914,-2.9602,-3.0398,-3.0398,-3.0398,-3.0398,-3.0398,-3.0398,-3.0398,-3.0398,-3.0398,-3.0398,-3.0398,-3.0398,-3.0398,-3.0398,-3.0398,-3.0398,-3.0398,-3.0398,-3.0398,-3.0398,-3.0398,-3.0398,-3.0398,-3.0398,-3.0398,-3.0398,-3.0398,-3.0398,-3.0398,-3.0398,-3.0398,-3.0398,-3.0398,-3.0398,-3.0398,-3.0398,-3.0398,-3.0398,-3.0398,-3.0398,-3.0398,-3.0398,-3.0398,-3.0398,-3.0398,-3.0398,-3.0398,-3.0398,-3.0398,-3.0398,-3.0398,-3.0398,-3.0398,-2.9602,-2.9171,-2.9209,-2.8461,-2.7692,-2.6914,-2.6838,-2.6445,-2.5703,-2.5625,-2.56,-2.5601,-2.5668,-2.5633,-2.5214,-2.5203,-2.4924,-2.3771,-2.3052,-2.2324,-2.1067,-2.1026,-2.0967,-2.0002,-2.0445,-2.0816,-2.0233,-1.9356,0.0,0.0,0.0,0.0,0.0,-1.3136,-1.3311,-1.3618,0.0,0.0,-1.6024,-1.7008,-1.8061,-1.8927,-1.8992,-2.0242,-2.309,-2.3783,-2.4466,-2.5264,-2.5591,-2.5726,-2.5726,-2.6601,-2.7044,-2.7044,-2.7621,-2.8044,-2.8313,-2.8313,-2.8467,-2.8775,-2.9313,-2.9544,-2.9583,-3.016,-3.0398,-3.0398,-3.0398,-3.0398,-3.0398,-3.0398,-3.0398,-3.0398,-3.0398,-3.0398,-3.0398,-3.0398,-3.0398,-3.0398,-3.0398,-3.0398,-3.0398,-3.0398,-3.0398,-3.0398,-3.0398,-3.0417,-3.0467,-3.0467,-3.0506,-3.0525,-3.0487,-3.0506,-3.0506,-3.0417,-3.0448,-3.0448,-3.0398,-3.0398,-3.0398,-3.0398,-3.0398,-3.0398,-3.0398,-3.0398,-3.0398,-3.0398,-3.0398,-3.0398,-3.0398,-3.0398,-3.0179,-2.964,-2.9294,-2.8602,-2.7525,-2.7255,-2.6776,-2.5997,-2.599,-2.5896,-2.5706,-2.5685,-2.5675,-2.5669,-2.5689,-2.564,-2.5303,-2.5303,-2.512,-2.4302,-2.3687,-2.2929,-2.1665,-2.1608,-2.156,-2.0601,-2.0815,-2.118,-2.1225,-1.9924,-1.8708,0.0,0.0,0.0,0.0,-1.2669,-1.2592,0.0,0.0,0.0,0.0,-1.5255,-1.6298,-1.7215,-1.7799,-1.9223,-2.1773,-2.3013,-2.4024,-2.4851,-2.5149,-2.5303,-2.5303,-2.587,-2.614,-2.614,-2.6717,-2.714,-2.7448,-2.7448,-2.7601,-2.7928,-2.8448,-2.8659,-2.8736,-2.9583,-2.9948,-2.9967,-3.0294,-3.0398,-3.0398,-3.0398,-3.0417,-3.0417,-3.0398,-3.0417,-3.0417,-3.0398,-3.0398,-3.0398,-3.0398,-3.0398,-3.0398,-3.0398,-3.0398,-3.0398,-3.0398,-3.0448,-3.0506,-3.0506,-3.0546,-3.0598,-3.054,-3.0574,-3.0579,-3.0482,-3.0497,-3.0487,-3.0448,-3.0417,-3.0398,-3.0398,-3.0398,-3.0398,-3.0398,-3.0398,-3.0398,-3.0398,-3.0398,-3.0398,-3.0417,-3.015,-2.9755,-2.9228,-2.8582,-2.7736,-2.664,-2.6341,-2.5976,-2.5505,-2.5515,-2.5585,-2.5699,-2.5682,-2.5658,-2.5674,-2.5685,-2.5622]}]]